[[{"header":{"parameterUnit":"m.s-1","parameterCategory":1,"la1":30.6,"la2":29.2853,"lo1":-89.7004,"lo2":-87.6739,"dy":0.0162,"dx":0.0183,"nx":112,"ny":82,"refTime":"2024-09-17T06:00:00:Z","depth":0,"parameterNumber":2,"parameterNumberName":"U-component_of_WINDS"},"data":[0.0,0.0,0.0,0.0,0.0,0.0,0.0,0.0,0.0,0.0,0.0,0.0,0.0,0.0,0.0,0.0,0.0,0.0,0.0,0.0,0.0,0.0,0.0,0.0,0.0,0.0,0.0,0.0,0.0,0.0,0.0,0.0,0.0,0.0,0.0,0.0,0.0,0.0,0.0,0.0,0.0,0.0,0.0,0.0,0.0,0.0,0.0,0.0,0.0,0.0,0.0,0.0,0.0,0.0,0.0,0.0,0.0,0.0,0.0,0.0,0.0,0.0,0.0,0.0,0.0,0.0,0.0,0.0,0.0,0.0,0.0,0.0,0.0,0.0,0.0,0.0,0.0,0.0,0.0,0.0,0.0,0.0,0.0,0.0,0.0,0.0,0.0,0.0,0.0,0.0,-0.4449,-0.529,-0.577,-0.6051,-0.6135,-0.5837,-0.5347,-0.4667,0.0,0.0,0.0,0.0,0.0,0.0,0.0,0.0,0.0,0.0,0.0,0.0,0.0,0.0,0.0,0.0,0.0,0.0,0.0,0.0,0.0,0.0,0.0,0.0,0.0,0.0,0.0,0.0,0.0,0.0,0.0,0.0,0.0,0.0,0.0,0.0,0.0,0.0,0.0,0.0,0.0,0.0,0.0,0.0,0.0,0.0,0.0,0.0,0.0,0.0,0.0,0.0,0.0,0.0,0.0,0.0,0.0,0.0,0.0,0.0,0.0,0.0,0.0,0.0,0.0,0.0,0.0,0.0,0.0,0.0,0.0,0.0,0.0,0.0,0.0,0.0,0.0,0.0,0.0,0.0,0.0,0.0,0.0,0.0,0.0,0.0,0.0,0.0,0.0,0.0,0.0,0.0,0.0,0.0,0.0,0.0,0.0,0.0,0.0,0.0,0.0,0.0,0.0,0.0,-0.469,-0.5985,-0.5906,-0.5888,-0.6248,-0.5714,-0.516,-0.4712,0.0,0.0,0.0,0.0,0.0,0.0,0.0,0.0,0.0,0.0,0.0,0.0,0.0,0.0,0.0,0.0,0.0,0.0,0.0,0.0,0.0,0.0,0.0,0.0,0.0,0.0,0.0,0.0,0.0,0.0,0.0,0.0,0.0,0.0,0.0,0.0,0.0,0.0,0.0,0.0,0.0,0.0,0.0,0.0,0.0,0.0,0.0,0.0,0.0,0.0,0.0,0.0,0.0,0.0,0.0,0.0,0.0,0.0,0.0,0.0,0.0,0.0,0.0,0.0,0.0,0.0,0.0,0.0,0.0,0.0,0.0,0.0,0.0,0.0,0.0,0.0,0.0,0.0,0.0,0.0,0.0,0.0,0.0,0.0,0.0,0.0,0.0,0.0,0.0,0.0,0.0,0.0,0.0,0.0,0.0,0.0,0.0,0.0,0.0,0.0,0.0,0.0,0.0,-0.4284,-0.5026,-0.5934,-0.5939,-0.5944,-0.612,-0.5586,-0.5082,-0.472,-0.3973,0.0,0.0,0.0,0.0,0.0,0.0,0.0,0.0,0.0,0.0,0.0,0.0,0.0,0.0,0.0,0.0,0.0,0.0,0.0,0.0,0.0,0.0,0.0,0.0,0.0,0.0,0.0,0.0,0.0,0.0,0.0,0.0,0.0,0.0,0.0,0.0,0.0,0.0,0.0,0.0,0.0,0.0,0.0,0.0,0.0,0.0,0.0,0.0,0.0,0.0,0.0,0.0,0.0,0.0,0.0,0.0,0.0,0.0,0.0,0.0,0.0,0.0,0.0,0.0,0.0,0.0,0.0,0.0,0.0,0.0,0.0,0.0,0.0,0.0,0.0,0.0,0.0,0.0,0.0,0.0,0.0,0.0,0.0,0.0,0.0,0.0,0.0,0.0,0.0,0.0,0.0,0.0,0.0,0.0,0.0,0.0,0.0,0.0,0.0,0.0,0.0,0.0,-0.4788,-0.5201,-0.5724,-0.5853,-0.5913,-0.5946,-0.5481,-0.5033,-0.4634,-0.3766,0.0,0.0,0.0,0.0,0.0,0.0,0.0,0.0,0.0,0.0,0.0,0.0,0.0,0.0,0.0,0.0,0.0,0.0,0.0,0.0,0.0,0.0,0.0,0.0,0.0,0.0,0.0,0.0,0.0,0.0,0.0,0.0,0.0,0.0,0.0,0.0,0.0,0.0,0.0,0.0,0.0,0.0,0.0,0.0,0.0,0.0,0.0,0.0,0.0,0.0,0.0,0.0,0.0,0.0,0.0,0.0,0.0,0.0,0.0,0.0,0.0,0.0,0.0,0.0,0.0,0.0,0.0,0.0,0.0,0.0,0.0,0.0,0.0,0.0,0.0,0.0,0.0,0.0,0.0,0.0,0.0,0.0,0.0,0.0,0.0,0.0,0.0,0.0,0.0,0.0,0.0,0.0,0.0,0.0,0.0,0.0,0.0,0.0,0.0,0.0,0.0,0.0,-0.4462,-0.4906,-0.5641,-0.5596,-0.5621,-0.5785,-0.545,-0.4942,-0.4363,-0.3554,0.0,0.0,0.0,0.0,0.0,0.0,0.0,0.0,0.0,0.0,0.0,0.0,0.0,0.0,0.0,0.0,0.0,0.0,0.0,0.0,0.0,0.0,0.0,0.0,0.0,0.0,0.0,0.0,0.0,0.0,0.0,0.0,0.0,0.0,0.0,0.0,0.0,0.0,0.0,0.0,0.0,0.0,0.0,0.0,0.0,0.0,0.0,0.0,0.0,0.0,0.0,0.0,0.0,0.0,0.0,0.0,0.0,0.0,0.0,0.0,0.0,0.0,0.0,0.0,0.0,0.0,0.0,0.0,0.0,0.0,0.0,0.0,0.0,0.0,0.0,0.0,0.0,0.0,0.0,0.0,0.0,0.0,0.0,0.0,0.0,0.0,0.0,0.0,0.0,0.0,0.0,0.0,0.0,0.0,0.0,0.0,0.0,0.0,0.0,0.0,0.0,0.0,-0.4441,-0.4844,0.0,-0.5599,-0.5669,-0.5732,-0.5247,-0.4758,-0.4316,0.0,0.0,0.0,0.0,0.0,0.0,0.0,0.0,0.0,0.0,0.0,0.0,0.0,0.0,0.0,0.0,0.0,0.0,0.0,0.0,0.0,0.0,0.0,0.0,0.0,0.0,0.0,0.0,0.0,0.0,0.0,0.0,0.0,0.0,0.0,0.0,0.0,0.0,0.0,0.0,0.0,0.0,0.0,0.0,0.0,0.0,0.0,0.0,0.0,0.0,0.0,0.0,0.0,0.0,0.0,0.0,0.0,0.0,0.0,0.0,0.0,0.0,0.0,0.0,0.0,0.0,0.0,0.0,0.0,0.0,0.0,0.0,0.0,0.0,0.0,0.0,0.0,0.0,0.0,0.0,0.0,0.0,0.0,0.0,0.0,0.0,0.0,0.0,0.0,0.0,0.0,0.0,0.0,0.0,0.0,0.0,0.0,0.0,0.0,0.0,0.0,0.0,-0.3948,-0.4389,-0.4878,0.0,-0.5638,-0.5665,-0.5587,-0.5073,-0.4564,-0.4076,0.0,0.0,0.0,0.0,0.0,0.0,0.0,0.0,0.0,0.0,0.0,0.0,0.0,0.0,0.0,0.0,0.0,0.0,0.0,0.0,0.0,0.0,0.0,0.0,0.0,0.0,0.0,0.0,0.0,0.0,0.0,0.0,0.0,0.0,0.0,0.0,0.0,0.0,0.0,0.0,0.0,0.0,0.0,0.0,0.0,0.0,0.0,0.0,0.0,0.0,0.0,0.0,0.0,0.0,0.0,0.0,0.0,0.0,0.0,0.0,0.0,0.0,0.0,0.0,0.0,0.0,0.0,0.0,0.0,0.0,0.0,0.0,0.0,0.0,0.0,0.0,0.0,0.0,0.0,0.0,0.0,0.0,0.0,0.0,0.0,0.0,0.0,0.0,0.0,0.0,0.0,0.0,0.0,0.0,0.0,0.0,0.0,0.0,0.0,0.0,0.0,0.0,-0.3686,-0.4336,-0.4968,-0.5643,-0.5701,-0.5602,-0.5319,-0.4923,-0.4345,0.0,0.0,0.0,0.0,0.0,0.0,0.0,0.0,0.0,0.0,0.0,0.0,0.0,0.0,0.0,0.0,0.0,0.0,0.0,0.0,0.0,0.0,0.0,0.0,0.0,0.0,0.0,0.0,0.0,0.0,0.0,0.0,0.0,0.0,0.0,0.0,0.0,0.0,0.0,0.0,0.0,0.0,0.0,0.0,0.0,0.0,0.0,0.0,0.0,0.0,0.0,0.0,0.0,0.0,0.0,0.0,0.0,0.0,0.0,0.0,0.0,0.0,0.0,0.0,0.0,0.0,0.0,0.0,0.0,0.0,0.0,0.0,0.0,0.0,0.0,0.0,0.0,0.0,0.0,0.0,0.0,0.0,0.0,0.0,0.0,0.0,0.0,0.0,0.0,0.0,0.0,0.0,0.0,0.0,0.0,0.0,0.0,0.0,0.0,0.0,0.0,0.0,0.0,-0.3826,-0.4441,-0.5036,-0.5691,-0.5552,-0.537,-0.5304,-0.4759,-0.4162,-0.3603,0.0,0.0,0.0,0.0,0.0,0.0,0.0,0.0,0.0,0.0,0.0,0.0,0.0,0.0,0.0,0.0,0.0,0.0,0.0,0.0,0.0,0.0,0.0,0.0,0.0,0.0,0.0,0.0,0.0,0.0,0.0,0.0,0.0,0.0,0.0,0.0,0.0,0.0,0.0,0.0,0.0,0.0,0.0,0.0,0.0,0.0,0.0,0.0,0.0,0.0,0.0,0.0,0.0,0.0,0.0,0.0,0.0,0.0,0.0,0.0,0.0,0.0,0.0,0.0,0.0,0.0,0.0,0.0,0.0,0.0,0.0,0.0,0.0,0.0,0.0,0.0,0.0,0.0,0.0,0.0,0.0,0.0,0.0,0.0,0.0,0.0,0.0,0.0,0.0,0.0,0.0,0.0,0.0,0.0,0.0,0.0,0.0,0.0,0.0,0.0,0.0,0.0,-0.3884,-0.4468,-0.5056,-0.5745,-0.5487,-0.5239,-0.5114,-0.4617,-0.4081,-0.356,0.0,0.0,0.0,0.0,0.0,0.0,0.0,0.0,0.0,0.0,0.0,0.0,0.0,0.0,0.0,0.0,0.0,0.0,0.0,0.0,0.0,0.0,0.0,0.0,0.0,0.0,0.0,0.0,0.0,0.0,0.0,0.0,0.0,0.0,0.0,0.0,0.0,0.0,0.0,0.0,0.0,0.0,0.0,0.0,0.0,0.0,0.0,0.0,0.0,0.0,0.0,0.0,0.0,0.0,0.0,0.0,0.0,0.0,0.0,0.0,0.0,0.0,0.0,0.0,0.0,0.0,0.0,0.0,0.0,0.0,0.0,0.0,0.0,0.0,0.0,0.0,0.0,0.0,0.0,0.0,0.0,0.0,0.0,0.0,0.0,0.0,0.0,0.0,0.0,0.0,0.0,0.0,0.0,0.0,0.0,0.0,0.0,0.0,0.0,0.0,0.0,0.0,-0.3884,-0.4468,-0.5056,-0.5745,-0.5458,-0.5129,-0.4829,-0.4478,-0.4021,-0.3449,0.0,0.0,0.0,0.0,0.0,0.0,0.0,0.0,0.0,0.0,0.0,0.0,0.0,0.0,0.0,0.0,0.0,0.0,0.0,0.0,0.0,0.0,0.0,0.0,0.0,0.0,0.0,0.0,0.0,0.0,0.0,0.0,0.0,0.0,0.0,0.0,0.0,0.0,0.0,0.0,0.0,0.0,0.0,0.0,0.0,0.0,0.0,0.0,0.0,0.0,0.0,0.0,0.0,0.0,0.0,0.0,0.0,0.0,0.0,0.0,-0.5196,-0.446,0.0,0.0,0.0,0.0,0.0,0.0,0.0,0.0,0.0,0.0,0.0,0.0,0.0,0.0,0.0,0.0,0.0,0.0,0.0,0.0,0.0,0.0,0.0,0.0,0.0,0.0,0.0,0.0,0.0,0.0,0.0,0.0,0.0,0.0,0.0,0.0,0.0,0.0,0.0,0.0,-0.3884,-0.4468,-0.5056,-0.5745,-0.5261,-0.488,-0.4814,-0.4303,-0.3837,-0.3506,-0.3199,0.0,0.0,0.0,0.0,0.0,0.0,0.0,0.0,0.0,0.0,0.0,0.0,0.0,0.0,0.0,0.0,0.0,0.0,0.0,0.0,0.0,0.0,0.0,0.0,0.0,0.0,0.0,0.0,0.0,0.0,0.0,0.0,0.0,0.0,0.0,0.0,0.0,0.0,0.0,0.0,0.0,0.0,0.0,0.0,0.0,0.0,0.0,0.0,0.0,0.0,0.0,0.0,0.0,0.0,0.0,0.0,0.0,0.0,0.0,-0.6719,-0.5994,0.0,0.0,0.0,0.0,0.0,0.0,0.0,0.0,0.0,0.0,0.0,0.0,0.0,0.0,0.0,0.0,0.0,0.0,0.0,0.0,0.0,0.0,0.0,0.0,0.0,0.0,0.0,0.0,0.0,0.0,0.0,0.0,0.0,0.0,0.0,0.0,0.0,0.0,0.0,0.0,-0.4057,-0.4546,-0.5056,-0.5745,-0.5195,-0.4807,-0.4807,-0.4244,-0.3848,-0.371,-0.3375,0.0,0.0,0.0,0.0,0.0,0.0,0.0,0.0,0.0,0.0,0.0,0.0,0.0,0.0,0.0,0.0,0.0,0.0,0.0,0.0,0.0,0.0,0.0,0.0,0.0,0.0,0.0,0.0,0.0,0.0,0.0,0.0,0.0,0.0,0.0,0.0,0.0,0.0,0.0,0.0,0.0,0.0,0.0,0.0,0.0,0.0,0.0,0.0,0.0,0.0,0.0,0.0,0.0,-0.971,-0.9528,-0.9835,-0.9388,-0.9272,-0.9411,-0.8678,-0.8045,-0.7493,-0.6724,0.0,0.0,0.0,0.0,0.0,0.0,0.0,0.0,0.0,0.0,0.0,0.0,0.0,0.0,0.0,0.0,0.0,0.0,0.0,0.0,0.0,0.0,-0.516,-0.5723,-0.5753,-0.5447,-0.4766,0.0,0.0,0.0,0.0,0.0,0.0,0.0,0.0,0.0,0.0,0.0,-0.4289,-0.47,-0.5122,-0.5745,-0.5246,-0.4865,-0.4814,-0.4289,-0.3949,-0.3911,-0.3541,-0.3304,0.0,0.0,0.0,0.0,0.0,0.0,0.0,0.0,0.0,0.0,0.0,0.0,0.0,0.0,0.0,0.0,0.0,0.0,0.0,0.0,0.0,0.0,0.0,0.0,0.0,0.0,0.0,0.0,0.0,0.0,0.0,0.0,-0.6102,-0.6105,0.0,0.0,0.0,0.0,0.0,0.0,0.0,0.0,0.0,0.0,0.0,0.0,0.0,-0.9151,-0.9791,-1.0663,-1.1453,-1.2205,-1.2799,-1.2862,-1.2408,-1.235,-1.2033,-1.1566,-1.1473,0.0,-0.8051,-0.7486,0.0,0.0,0.0,0.0,0.0,0.0,0.0,0.0,0.0,0.0,0.0,0.0,0.0,0.0,0.0,0.0,0.0,0.0,0.0,0.0,0.0,0.0,-0.7128,-0.7224,-0.6699,-0.6222,-0.6258,-0.5258,-0.4208,-0.3735,-0.3386,-0.3001,0.0,0.0,0.0,0.0,0.0,0.0,-0.4405,-0.4919,-0.537,-0.5774,-0.5451,-0.5114,-0.4829,-0.447,-0.4141,-0.3905,-0.3846,-0.3708,-0.3467,-0.3271,0.0,0.0,0.0,0.0,0.0,0.0,0.0,0.0,0.0,0.0,0.0,0.0,0.0,0.0,0.0,0.0,0.0,0.0,0.0,0.0,0.0,0.0,0.0,0.0,0.0,0.0,0.0,0.0,0.0,-0.6625,-0.7206,-0.7227,-0.7028,-0.6791,0.0,0.0,0.0,0.0,0.0,0.0,0.0,0.0,0.0,-0.9581,-1.061,-1.1329,-1.1652,-1.2405,-1.2956,-1.3228,-1.3432,-1.3394,-1.3115,-1.2926,-1.2622,-1.2226,-1.2226,-1.1504,-1.0264,-0.9272,-0.8234,-0.7195,0.0,0.0,0.0,0.0,-0.6583,-0.6683,-0.6927,-0.6979,-0.6893,-0.6655,0.0,0.0,0.0,0.0,0.0,0.0,0.0,-0.5927,-0.661,-0.7018,-0.7343,-0.7557,-0.7348,-0.7024,-0.6752,-0.6214,-0.5497,-0.4582,-0.4395,-0.4122,-0.3317,-0.3421,0.0,0.0,0.0,-0.4354,-0.4883,-0.5146,-0.5422,-0.5774,-0.5487,-0.5158,-0.4836,-0.4483,-0.4185,-0.3912,-0.3911,-0.3848,-0.3731,-0.3495,-0.3227,0.0,0.0,0.0,0.0,0.0,0.0,0.0,0.0,0.0,0.0,0.0,0.0,0.0,0.0,0.0,0.0,0.0,0.0,0.0,0.0,0.0,0.0,0.0,0.0,0.0,0.0,0.0,0.0,-0.7388,-0.8224,-0.8054,-0.8184,-0.8034,0.0,0.0,0.0,0.0,0.0,0.0,-0.9488,-1.0506,-1.1161,-1.1351,-1.2408,-1.3097,-1.331,-1.381,-1.4139,-1.4318,-1.405,-1.3874,-1.3792,-1.3446,-1.3147,-1.2885,-1.2796,-1.2568,-1.2138,-1.0843,-0.9741,-0.8838,-0.8484,-0.8309,-0.8239,-0.8239,-0.8192,-0.8161,-0.832,-0.8257,-0.8128,-0.7987,-0.779,-0.748,-0.6872,0.0,0.0,0.0,0.0,-0.6816,-0.7526,-0.7729,-0.7751,-0.7862,-0.7822,-0.7585,-0.6945,-0.6717,-0.6323,-0.53,-0.5275,-0.5123,-0.4213,-0.4395,0.0,-0.408,0.0,-0.4856,-0.5261,-0.537,-0.5509,-0.5789,-0.5591,-0.5283,-0.4961,-0.4631,-0.4309,-0.4009,-0.3934,-0.3911,-0.3911,-0.371,-0.3482,-0.3212,0.0,0.0,0.0,0.0,0.0,0.0,0.0,0.0,0.0,0.0,0.0,0.0,0.0,0.0,0.0,0.0,0.0,0.0,0.0,0.0,0.0,0.0,0.0,0.0,0.0,0.0,0.0,0.0,0.0,-0.8001,-0.9025,0.0,0.0,0.0,0.0,-1.0545,-1.0619,-1.1204,-1.2523,-1.2596,-1.29,-1.3605,-1.371,-1.4049,-1.4677,-1.4722,-1.5052,-1.5709,-1.5665,-1.5506,-1.5197,-1.485,-1.4523,-1.4173,-1.3861,-1.3402,-1.2755,-1.1605,-1.096,-1.0615,-1.0096,-0.9703,-0.9444,-0.9612,-0.9537,-0.9348,-0.9555,-0.9281,-0.8911,-0.9272,-0.8787,-0.8011,-0.779,-0.7371,0.0,0.0,-0.8386,-0.8517,-0.9195,-0.9373,-0.9205,-0.8525,-0.8112,-0.7693,-0.6946,-0.649,-0.6128,-0.5737,-0.5675,-0.553,-0.5114,0.0,-0.5006,-0.4855,-0.5145,-0.534,-0.5297,-0.5568,-0.5797,-0.5811,-0.5797,-0.5649,-0.5297,-0.4968,-0.4646,-0.4293,-0.4038,-0.3911,-0.3911,-0.389,-0.3654,-0.3205,-0.3007,0.0,0.0,0.0,0.0,0.0,0.0,0.0,0.0,0.0,0.0,0.0,0.0,0.0,0.0,0.0,0.0,0.0,0.0,0.0,0.0,0.0,0.0,0.0,0.0,0.0,0.0,0.0,0.0,-0.9829,-1.0602,0.0,-1.0753,-1.0982,-1.1386,-1.2044,-1.2082,-1.2493,-1.3391,-1.384,-1.4158,-1.4438,-1.4857,-1.5214,-1.5439,-1.5439,-1.5559,-1.5799,-1.558,-1.5418,-1.5285,-1.4949,-1.4746,-1.462,-1.4268,-1.4017,-1.3744,-1.3142,-1.2355,-1.1554,-1.1304,-1.1143,-1.1058,-1.1099,-1.1011,-1.0816,-1.0459,-1.0193,-0.9956,-0.9613,-0.9282,-0.8983,-0.8929,-0.8776,-0.8683,-0.904,-0.9142,-0.9205,-0.9435,-0.9509,-0.9435,-0.9162,-0.9023,-0.8721,-0.7999,-0.7717,-0.738,-0.657,-0.6129,-0.5776,-0.5423,-0.5546,-0.5594,-0.5317,-0.5574,-0.5786,-0.5755,-0.5861,-0.5905,-0.5881,-0.585,-0.5717,-0.5319,-0.4997,-0.4668,-0.4315,-0.4046,-0.3911,-0.3911,-0.3911,-0.3828,-0.3661,-0.3414,-0.3059,0.0,0.0,0.0,0.0,0.0,0.0,0.0,0.0,0.0,0.0,0.0,0.0,0.0,0.0,0.0,0.0,0.0,0.0,0.0,0.0,0.0,0.0,0.0,0.0,0.0,-0.9822,-1.0845,-1.1287,-1.2011,-1.2388,-1.2149,-1.2343,-1.2747,-1.343,-1.3475,-1.3765,-1.4438,-1.4887,-1.5154,-1.5154,-1.5755,-1.6099,-1.6099,-1.6323,-1.6323,-1.6099,-1.5876,-1.5668,-1.5448,-1.5118,-1.498,-1.4949,-1.4479,-1.43,-1.4268,-1.3941,-1.333,-1.2594,-1.2563,-1.2502,-1.2471,-1.244,-1.2272,-1.202,-1.1319,-1.1022,-1.0799,-1.0061,-0.9781,-0.9747,-0.9747,-0.9747,-0.9777,-0.9932,-0.9973,-0.9973,-0.9973,-0.9973,-0.9897,-0.963,-0.9555,-0.9377,-0.8611,-0.848,-0.8259,-0.7535,-0.6787,-0.6152,-0.5835,-0.5967,-0.6006,-0.5724,-0.5884,-0.6036,-0.5967,-0.599,-0.5967,-0.592,-0.5888,-0.5792,-0.551,-0.5056,-0.4712,-0.4475,-0.4105,-0.3911,-0.3911,-0.3807,-0.3723,-0.3661,-0.3297,-0.2977,-0.277,0.0,0.0,0.0,0.0,0.0,0.0,0.0,0.0,0.0,0.0,0.0,0.0,0.0,0.0,0.0,0.0,0.0,0.0,0.0,0.0,0.0,0.0,0.0,-0.9622,-1.0915,-1.1964,-1.2252,-1.3205,-1.3585,-1.2951,-1.3481,-1.4139,-1.4767,-1.4812,-1.5124,-1.5769,-1.5829,-1.5829,-1.5829,-1.6413,-1.6741,-1.6741,-1.7369,-1.7369,-1.6741,-1.6726,-1.6383,-1.5829,-1.5463,-1.5329,-1.5285,-1.4624,-1.4332,-1.4287,-1.3941,-1.3821,-1.3821,-1.3788,-1.3708,-1.3615,-1.3615,-1.3319,-1.2812,-1.209,-1.1726,-1.1465,-1.068,-1.0339,-1.0221,-1.0221,-1.0221,-1.0314,-1.0757,-1.0891,-1.0891,-1.0891,-1.0891,-1.0692,-0.993,-0.9748,-0.9521,-0.8809,-0.8655,-0.8655,-0.8602,-0.7637,-0.6746,-0.6386,-0.6315,-0.6245,-0.6029,-0.6137,0.0,-0.5951,-0.5974,-0.5998,-0.592,-0.5888,-0.5888,-0.5811,-0.5187,-0.4807,-0.4807,-0.4222,-0.3911,-0.3911,-0.3647,-0.3421,-0.3208,-0.2631,-0.2387,-0.2503,0.0,0.0,0.0,0.0,0.0,0.0,0.0,0.0,0.0,0.0,0.0,0.0,0.0,0.0,0.0,0.0,0.0,0.0,0.0,0.0,0.0,-1.0996,-1.1956,-1.1725,-1.247,-1.3326,-1.413,-1.4393,-1.4633,-1.4944,-1.5139,-1.5334,-1.5514,-1.5529,-1.5604,-1.5784,-1.6219,-1.6443,-1.6443,-1.7085,-1.7428,-1.7428,-1.7608,-1.7608,-1.7413,-1.6936,-1.6622,-1.6428,-1.5921,-1.5668,-1.5639,-1.5209,-1.5027,-1.4996,-1.4415,-1.417,-1.4138,-1.3888,-1.3788,-1.3741,-1.3741,-1.3446,-1.301,-1.2719,-1.2223,-1.1715,-1.1483,-1.1194,-1.092,-1.0856,-1.0856,-1.0849,-1.0888,-1.0891,-1.0891,-1.0891,-1.0891,-1.085,-1.0603,-1.0572,-1.0419,-0.9951,-0.9819,-0.9573,-0.871,-0.806,-0.7535,-0.7153,-0.6655,-0.6284,-0.6214,-0.6253,-0.6253,-0.6191,-0.6222,-0.6153,-0.5998,-0.5967,-0.5943,-0.5888,-0.5251,-0.4866,-0.4866,-0.4252,-0.3911,-0.3911,-0.3828,-0.3668,-0.3421,-0.326,-0.295,0.0,0.0,0.0,0.0,0.0,0.0,0.0,0.0,0.0,0.0,0.0,0.0,0.0,0.0,0.0,0.0,0.0,0.0,0.0,0.0,0.0,0.0,-1.2737,-1.3867,-1.4034,-1.4177,-1.4576,-1.5392,-1.5339,-1.5379,-1.5769,-1.5799,-1.5903,-1.6159,-1.6189,-1.6308,-1.6578,-1.6921,-1.713,-1.713,-1.7757,-1.81,-1.81,-1.8403,-1.8403,-1.81,-1.7712,-1.7384,-1.71,-1.6473,-1.6189,-1.6129,-1.5565,-1.5299,-1.5269,-1.4574,-1.43,-1.4268,0.0,0.0,0.0,0.0,-1.3641,-1.3344,-1.3113,-1.2684,-1.2223,-1.192,-1.1564,-1.1287,-1.1082,-1.1006,-1.1006,-1.093,-1.0891,-1.0891,-1.0891,-1.0891,-1.0891,-1.0891,-1.0891,-1.0843,-1.0603,-1.0564,-1.033,-0.9649,-0.883,0.0,-0.7948,-0.7011,-0.6284,-0.6261,-0.6284,-0.6284,-0.6261,-0.6284,-0.6253,-0.6098,-0.6098,-0.6036,-0.5943,-0.5455,0.0,0.0,0.0,-0.4045,-0.3786,-0.3779,0.0,0.0,0.0,0.0,0.0,0.0,0.0,0.0,-0.2386,-0.2337,0.0,0.0,0.0,0.0,0.0,0.0,0.0,0.0,0.0,0.0,0.0,0.0,0.0,0.0,0.0,0.0,-1.4496,-1.5528,-1.6236,-1.5838,-1.5671,-1.6154,-1.5983,-1.5829,-1.5903,-1.5903,-1.6144,-1.6771,-1.6816,-1.707,-1.7652,-1.7757,0.0,0.0,0.0,-1.8807,-1.8807,-1.939,-1.939,-1.8807,-1.8747,-1.8403,-1.7772,-1.7115,-1.6816,-1.6755,-1.583,-1.5461,-1.5401,-1.4665,-1.43,-1.4203,-1.3921,-1.3788,-1.3788,-1.3788,-1.3788,-1.3741,-1.3399,0.0,0.0,-1.2126,-1.1737,-1.1479,-1.1061,-1.093,-1.093,-1.0891,-1.0891,-1.0891,-1.0891,-1.0891,-1.0891,-1.0891,-1.0891,-1.0891,-1.0891,-1.0891,-1.0891,-1.0843,-0.9662,-0.8618,-0.8549,-0.7293,-0.6284,-0.6207,-0.6261,-0.6284,-0.6207,-0.6261,-0.6292,-0.6207,0.0,0.0,-0.6029,-0.5716,-0.5388,-0.509,-0.4747,-0.4335,-0.3787,-0.3758,-0.3861,-0.4107,-0.3912,-0.4036,-0.4487,-0.427,-0.4151,-0.4117,-0.3064,-0.2817,0.0,0.0,0.0,0.0,0.0,0.0,0.0,0.0,0.0,0.0,0.0,0.0,0.0,0.0,0.0,-1.4967,-1.5839,-1.6541,-1.7007,-1.6742,-1.6465,-1.6367,-1.6083,-1.6038,-1.6473,-1.6532,-1.6801,-1.7458,-1.7503,-1.7548,-1.7682,-1.8223,-1.8523,-1.8523,-1.9151,-1.9495,-1.9495,-1.963,-1.9615,-1.9495,-1.8957,0.0,-1.8493,-1.7802,-1.7503,-1.7473,-1.6739,-1.6426,-1.6351,-1.5179,-1.4397,-1.3888,-1.3821,-1.3788,-1.3788,-1.3788,-1.3788,-1.3788,-1.3708,-1.3446,-1.3079,-1.2591,-1.2162,-1.1737,-1.1287,-1.112,0.0,-1.093,-1.0891,-1.0891,-1.0891,-1.0891,-1.0891,-1.0891,-1.0891,-1.0891,-1.0891,-1.0891,-1.0805,-1.0487,-0.9652,-0.8814,-0.8236,-0.7098,-0.6284,-0.6284,-0.6284,-0.6284,-0.6284,-0.6284,-0.6292,-0.6207,-0.6207,-0.6176,-0.6176,-0.5812,-0.5587,-0.5561,-0.5192,-0.4942,-0.4806,-0.4706,-0.4661,-0.4719,-0.4643,-0.4568,-0.4487,-0.4461,-0.4394,-0.433,-0.3947,-0.3763,0.0,0.0,0.0,0.0,0.0,0.0,0.0,0.0,0.0,0.0,0.0,-1.2707,-1.3325,0.0,-1.5238,-1.6018,-1.6677,-1.7132,-1.7318,-1.7076,-1.6763,-1.6382,-1.6039,-1.6053,-1.6652,-1.6742,-1.7193,-1.8134,-1.8257,-1.844,-1.8687,-1.9016,-1.9196,-1.9196,-1.951,-1.969,-1.969,-1.969,-1.969,-1.969,-1.9346,-1.9196,-1.9166,-1.8508,-1.8208,-1.8179,-1.7488,-1.7204,-1.7081,-1.5834,-1.4689,-1.3788,-1.3788,-1.3788,-1.3788,-1.3788,-1.3788,-1.3788,-1.3788,-1.3628,-1.3297,-1.2743,-1.2354,-1.2041,-1.1335,-1.112,-1.1082,-1.093,-1.0891,-1.0891,-1.0891,-1.0891,-1.0891,-1.0891,-1.0891,-1.0891,-1.0891,-1.0891,-1.0843,-1.0641,-0.9806,-0.8984,-0.8608,-0.7446,-0.6482,-0.6337,-0.6315,-0.6315,-0.6315,-0.6315,-0.6284,-0.6261,-0.6261,-0.6261,-0.6261,-0.59,-0.5703,-0.5731,-0.5365,-0.5142,-0.5099,-0.5021,-0.5053,-0.5184,-0.5138,-0.5136,-0.5211,-0.5175,-0.5138,-0.5104,-0.5007,-0.4638,0.0,0.0,0.0,0.0,0.0,0.0,0.0,0.0,-1.3464,-1.3445,-1.3938,-1.4499,-1.4932,-1.5571,-1.6272,-1.702,-1.7451,-1.7695,-1.7695,-1.7387,-1.7011,-1.649,-1.6136,-1.6215,-1.6893,-1.7029,-1.7586,-1.8826,-1.9015,-1.9241,-1.9696,-1.969,-1.969,-1.969,-1.969,-1.969,-1.969,-1.969,-1.969,-1.969,-1.969,-1.969,-1.9675,-1.9136,-1.8897,-1.8867,-1.8208,-1.7769,-1.7507,-1.6502,-1.5294,-1.4079,-1.4079,-1.398,-1.3788,-1.3788,-1.3788,-1.3788,-1.3788,-1.3741,-1.3514,-1.2849,-1.2544,-1.2258,-1.1474,-1.1195,-1.1082,-1.1006,-1.0968,-1.093,-1.093,-1.093,-1.0891,-1.0891,-1.0891,-1.0891,-1.0891,-1.0891,-1.0891,-1.0891,-1.0021,-0.9263,-0.914,-0.795,-0.6863,-0.6468,-0.6337,-0.6315,-0.6315,-0.6315,-0.6315,-0.6315,-0.6315,-0.6315,-0.6315,-0.6051,-0.5883,-0.5883,-0.5604,-0.5391,-0.5327,-0.5327,-0.5405,-0.5646,-0.5574,-0.5643,-0.5912,-0.5874,-0.5842,-0.5842,-0.5842,-0.5295,-1.0465,-1.1123,-1.1595,-1.1538,-1.2169,-1.3183,0.0,0.0,-1.4972,-1.5606,-1.6055,-1.6384,-1.6448,-1.7071,-1.7811,-1.8521,-1.8701,-1.8728,-1.8728,-1.8226,-1.7636,-1.6914,-1.6591,-1.6797,-1.7774,-1.7755,-1.8233,-1.9587,-1.9656,-1.9651,-1.969,-1.969,-1.969,-1.969,-1.969,-1.969,-1.969,-1.969,-1.969,-1.969,-1.969,-1.969,-1.969,-1.9615,-1.957,-1.954,-1.8882,-1.8085,-1.7257,-1.7117,-1.6293,-1.5121,-1.5121,-1.4594,-1.3788,-1.3788,-1.3788,-1.3788,-1.3788,-1.3788,-1.3708,-1.3263,-1.2836,-1.2389,-1.1957,-1.1538,-1.1185,-1.1185,-1.112,-1.1092,-1.1092,-1.1006,-1.0891,-1.0891,-1.0891,-1.0891,-1.0891,-1.0891,-1.0891,-1.0891,-1.0432,-0.9878,-0.9223,-0.8356,-0.7553,-0.6859,-0.649,-0.6315,-0.6315,-0.6315,-0.6315,-0.6315,-0.6315,-0.6315,-0.6315,-0.6275,-0.6251,-0.6251,-0.6211,-0.6157,-0.6165,-0.6112,-0.6075,-0.6114,-0.6006,-0.596,-0.5998,-0.599,-0.599,-0.599,-0.599,-0.5515,-1.1921,-1.2436,-1.2742,0.0,-1.4252,-1.5248,-1.5451,-1.6033,-1.657,-1.6765,-1.7166,-1.7475,-1.7359,-1.7591,-1.8048,0.0,-1.8894,-1.8846,-1.8684,-1.846,-1.7899,-1.6843,-1.6591,-1.684,-1.7803,-1.7908,-1.8434,-1.9656,-1.9762,-1.9726,-1.969,-1.9726,-1.9762,-1.9762,-1.9848,-1.9848,-1.9762,-1.9762,-1.9726,-1.969,-1.969,-1.969,-1.969,-1.969,-1.969,-1.9675,-1.939,-1.8708,-1.7777,-1.7777,-1.7,-1.5728,-1.5421,-1.4883,-1.4219,-1.3905,-1.3788,-1.3788,-1.3788,-1.3788,-1.3741,-1.3331,-1.3079,-1.2766,-1.209,-1.1774,-1.1564,-1.1287,-1.1185,-1.1158,-1.1158,-1.112,-1.1071,-1.1044,-1.1006,-1.1006,-1.093,-1.0891,-1.0891,-1.0891,-1.051,-1.0103,-0.9803,-0.9116,-0.8488,-0.8177,-0.7101,-0.6315,-0.6315,-0.6315,-0.6315,-0.6315,-0.6315,-0.6315,-0.6315,-0.6315,-0.6315,-0.6315,-0.6315,-0.6315,-0.6315,-0.6292,-0.6261,-0.6261,-0.6168,-0.6106,-0.6106,-0.6029,-0.599,-0.599,-0.599,-0.5829,-1.2578,-1.3161,-1.3648,-1.4433,-1.5845,-1.6859,-1.6225,-1.7001,-1.779,-1.7568,-1.7807,-1.7958,-1.7833,-1.7811,-1.8115,-1.9063,-1.9198,-1.9217,-1.9244,-1.8941,-1.8271,-1.7157,-1.6718,-1.6924,-1.793,-1.8018,-1.8483,-1.9728,-1.9833,-1.9848,-1.9797,-1.9848,-1.9848,-1.9848,-1.9955,-1.9919,-1.9797,-1.9797,-1.9762,-1.969,-1.969,-1.969,-1.969,-1.969,-1.969,-1.969,-1.969,-1.9298,-1.8626,-1.8626,-1.7784,-1.6487,-1.6082,-1.5478,-1.4768,-1.4219,-1.3918,-1.3788,-1.3788,-1.3788,-1.3741,-1.3446,-1.3297,-1.3079,-1.2437,-1.2126,-1.1884,-1.1538,-1.1373,-1.1271,-1.1271,-1.1233,-1.1185,-1.1158,-1.113,-1.1082,-1.0968,-1.093,-1.0891,-1.0891,-1.0623,-1.0345,-1.0221,-0.9702,-0.9224,-0.9106,-0.7743,-0.6701,-0.6607,-0.6432,-0.6315,-0.6315,-0.6315,-0.6315,-0.6315,-0.6315,-0.6315,-0.6315,-0.6315,-0.6315,-0.6315,-0.6315,-0.6315,-0.6315,-0.6261,-0.623,-0.623,-0.6122,-0.6091,-0.6091,-0.6091,-0.6133,-1.2014,-1.3168,-1.455,-1.5284,-1.6678,-1.7824,-1.7591,-1.8019,-1.841,-1.8135,-1.7936,-1.7811,-1.7811,-1.7811,-1.8285,-1.9731,-1.9968,-2.0221,-2.1008,-2.0009,-1.8887,-1.8129,-1.7189,-1.7105,-1.8462,-1.8238,-1.8581,-1.9974,-2.0025,-2.0005,-2.0005,-2.0005,-2.0005,-2.0005,-2.0005,-1.9919,-1.9797,-1.9797,-1.9762,-1.969,-1.969,-1.969,-1.969,-1.969,-1.969,-1.969,-1.969,-1.9675,-1.9645,-1.9645,-1.8826,-1.7557,-1.7543,-1.6688,-1.5395,-1.4794,-1.4232,-1.3788,-1.3788,-1.3788,-1.3788,-1.3788,-1.3527,-1.3182,-1.3182,-1.2661,-1.2077,-1.2077,-1.1734,-1.1384,-1.1384,-1.1309,-1.1185,-1.1185,-1.1158,-1.1092,-1.1082,-1.1006,-1.0891,-1.0891,-1.0871,-1.0726,-1.0273,-0.9908,-0.956,-0.9155,-0.8375,-0.7748,-0.7408,-0.6727,-0.6315,-0.6315,-0.6315,-0.6315,-0.6315,-0.6315,-0.6315,-0.6315,-0.6315,-0.6315,-0.6315,-0.6315,-0.6315,-0.6315,-0.6315,-0.6315,-0.6315,-0.6284,-0.6284,-0.6284,-0.6284,-0.6474,-1.395,0.0,-1.6109,-1.6911,-1.7796,-1.8484,-1.8414,-1.8313,-1.8211,-1.8111,-1.7544,-1.7067,-1.7067,-1.7067,-1.754,-1.9029,-1.9664,-2.0272,-2.1102,-2.0461,-1.9544,-1.8489,-1.8129,-1.8197,-1.8876,-1.8558,-1.8904,-2.0252,-2.015,-2.0005,-2.0005,-2.0025,-2.008,-2.008,-2.008,-2.001,-1.9919,-1.9848,-1.9762,-1.969,-1.969,-1.969,-1.969,-1.969,-1.969,-1.969,-1.969,-1.969,-1.969,-1.969,-1.9104,-1.8162,-1.7754,-1.6989,-1.597,-1.4964,-1.448,-1.4271,-1.3905,-1.3788,-1.3788,-1.3788,-1.3708,-1.356,-1.3297,-1.2836,-1.2389,-1.2138,-1.1796,-1.1459,-1.1459,-1.141,-1.1373,-1.1346,-1.1309,-1.1271,-1.1195,-1.1109,-1.1082,-1.1044,-1.1044,-1.0954,-1.0723,-1.0569,-1.0342,-0.9884,-0.8742,-0.7666,-0.7085,-0.6793,-0.6543,-0.6315,-0.6315,-0.6315,-0.6315,-0.6315,-0.6315,-0.6315,-0.6315,-0.6315,-0.6315,-0.6315,-0.6315,-0.6315,-0.6315,-0.6315,-0.6315,-0.6315,-0.6315,-0.6315,-0.6522,-0.6808,-1.546,-1.6359,-1.7022,-1.8282,-1.8914,-1.916,-1.8988,-1.8711,-1.8327,-1.7731,-1.7126,-1.6631,-1.636,-1.6309,-1.6885,-1.8606,-1.9299,-2.0078,-2.1397,-2.0943,-2.0188,-1.9406,-1.9104,-1.9106,-1.9495,-1.9367,-1.9653,-2.0536,-2.0289,-2.0111,-2.0111,-2.0166,-2.0185,-2.0185,-2.0115,-2.008,-2.0005,-1.9884,-1.9762,-1.969,-1.969,-1.969,-1.969,-1.969,-1.969,-1.969,-1.969,-1.969,-1.969,-1.969,-1.931,-1.8664,-1.8304,-1.7619,-1.6771,-1.5565,-1.5056,-1.4807,-1.4049,-1.3788,-1.3788,-1.3788,-1.3788,-1.3741,-1.348,-1.3022,-1.2567,-1.2354,-1.1906,-1.1485,-1.1485,-1.1485,-1.1485,-1.1459,-1.1421,-1.1384,-1.1309,-1.1223,-1.1185,-1.1158,-1.1158,-1.112,-1.1033,-1.1006,-1.075,-1.0046,-0.9104,-0.8194,-0.7451,-0.7127,-0.6867,-0.6634,-0.6634,-0.6573,-0.649,-0.6482,-0.6429,-0.6315,-0.6315,-0.6315,-0.6315,-0.6315,-0.6315,-0.6315,-0.6315,-0.6315,-0.6315,-0.6315,-0.6315,-0.6323,-0.6649,-0.6991,-1.6442,-1.6867,-1.7372,-1.9414,-1.9925,-1.9825,-1.9334,-1.9166,-1.8653,-1.6995,-1.658,-1.6309,-1.5561,-1.5494,-1.6255,-1.842,-1.8877,-1.9739,-2.1989,-2.1446,-2.0838,0.0,0.0,0.0,-2.031,-2.0582,-2.079,-2.0845,-2.0527,-2.0339,-2.0339,-2.0339,-2.0304,-2.0304,-2.0185,-2.008,-2.0005,-1.9884,-1.9762,-1.9726,-1.9726,-1.9726,-1.9726,-1.9726,-1.969,-1.969,-1.969,-1.969,-1.969,-1.969,-1.9472,-1.9101,-1.9101,-1.8592,-1.7652,-1.6563,-1.5898,-1.5369,-1.4232,-1.3814,-1.3788,-1.3788,-1.3788,-1.3788,-1.3788,-1.3242,-1.2603,-1.2603,-1.2077,-1.1485,-1.1485,-1.1485,-1.1485,-1.1485,-1.1459,-1.1421,-1.1421,-1.1309,-1.1223,-1.1223,-1.1185,-1.1185,-1.1185,-1.1158,-1.0751,-0.9716,-0.9561,-0.9256,-0.8464,-0.7708,-0.7225,-0.7196,-0.7196,-0.7107,-0.6837,-0.6807,-0.6665,-0.6315,-0.6315,-0.6315,-0.6315,-0.6315,-0.6315,-0.6315,-0.6315,-0.6315,-0.6315,-0.6315,-0.6315,-0.6323,-0.6657,-0.6999,-1.7354,-1.8485,-1.9504,-2.0065,-2.0392,-2.0393,-1.965,-1.8814,-1.7725,-1.6208,-1.5022,-1.4023,-1.3278,-1.4039,-1.5325,-1.7004,-1.864,0.0,-2.2073,-2.1852,0.0,-2.112,0.0,-2.1188,-2.0977,-2.1287,0.0,-2.1524,-2.1245,-2.0942,-2.0695,-2.0662,-2.0561,-2.0304,-2.0185,-2.008,-2.008,-1.999,-1.9919,-1.9919,-1.9919,-1.9884,-1.9762,-1.9762,-1.9762,-1.969,-1.969,-1.969,-1.969,-1.969,-1.9472,-1.9101,-1.9101,-1.8592,-1.7706,-1.7038,-1.6514,-1.5996,-1.4807,-1.4128,-1.3788,-1.3788,-1.3788,-1.3788,-1.3788,-1.3242,-1.2603,-1.2603,-1.2077,-1.1485,-1.1485,-1.1485,-1.1485,-1.1485,-1.1485,-1.1459,-1.1459,-1.1448,-1.1421,-1.1346,-1.1271,-1.1185,-1.112,-1.113,-1.0971,-1.0609,-1.0242,-0.9501,-0.8049,-0.7695,-0.7481,-0.7225,-0.7196,-0.7107,-0.6837,-0.6807,-0.6665,-0.6315,-0.6315,-0.6315,-0.6315,-0.6315,-0.6315,-0.6315,-0.6315,-0.6315,-0.6315,-0.6315,-0.6315,-0.6323,-0.6895,-0.7221,-1.8163,-1.9218,-2.017,-2.0314,-2.049,-2.0309,-1.9091,-1.8027,-1.6712,-1.458,-1.3481,-1.2669,-1.1908,-1.2737,-1.4124,0.0,0.0,0.0,-2.1549,-2.1933,-2.1927,0.0,-2.1883,0.0,-2.1491,-2.1682,-2.1797,-2.1797,-2.1493,-2.115,-2.0827,-2.0794,-2.0628,-2.0304,-2.0185,-2.008,-2.0061,-2.0025,-2.0005,-2.0005,-1.9919,-1.9884,-1.9797,-1.9762,-1.9726,-1.969,-1.969,-1.969,-1.969,-1.969,-1.9581,-1.9347,-1.9347,-1.8846,-1.8039,-1.747,-1.6896,-1.6258,-1.5317,-1.4611,-1.4101,-1.3866,-1.3788,-1.3788,-1.3788,-1.3344,-1.2836,-1.2638,-1.2186,-1.1723,-1.156,-1.1485,-1.1485,-1.1485,-1.1485,-1.1485,-1.1485,-1.1485,-1.1485,-1.1459,-1.1384,-1.1298,-1.1233,-1.1158,-1.1046,-1.0735,-1.0402,-0.977,-0.8631,-0.8479,-0.8348,-0.7978,-0.7958,-0.773,-0.7235,-0.7187,-0.7008,-0.6543,-0.6513,-0.646,-0.6315,-0.6315,-0.6315,-0.6315,-0.6315,-0.6315,-0.6315,-0.6315,-0.6363,-0.653,-0.7054,-0.7388,-1.8698,-1.9432,-2.0088,-2.0385,-2.0504,-2.0072,-1.828,-1.7173,-1.5716,-1.2754,0.0,-1.1756,-1.0944,-1.1536,-1.2872,-1.5088,0.0,-1.8441,-2.0803,-2.1653,-2.2079,-2.2237,-2.2237,-2.2152,-2.1886,-2.1857,-2.1857,-2.1857,-2.1601,-2.1276,-2.0942,-2.0893,-2.0695,-2.0304,-2.0185,-2.008,-2.0041,-2.0041,-2.0041,-2.0041,-1.9904,-1.9848,-1.9797,-1.9762,-1.9726,-1.969,-1.969,-1.969,-1.969,-1.969,-1.969,-1.969,-1.969,-1.9221,-1.8444,-1.7909,-1.7197,-1.6402,-1.5722,-1.5147,-1.4624,-1.4075,-1.3853,-1.3788,-1.3788,-1.3527,-1.3113,-1.2766,-1.2389,-1.2004,-1.166,-1.1522,-1.1485,-1.1485,-1.1485,-1.1485,-1.1485,-1.1485,-1.1485,-1.1485,-1.1485,-1.1485,-1.1421,-1.1309,-1.1058,-1.0583,-1.0401,-1.0184,-0.9747,-0.9582,-0.9365,-0.9004,-0.8973,-0.8644,-0.7871,-0.7803,-0.7509,-0.6897,-0.6837,-0.6656,-0.6368,-0.6315,-0.6315,-0.6315,-0.6315,-0.6315,-0.6315,-0.6331,-0.6514,-0.6816,-0.7197,-0.7539,-1.857,-1.957,-2.0653,-2.0727,-2.1051,-2.0822,-1.8625,-1.6912,0.0,0.0,-1.0825,-1.0183,-0.9416,-1.0399,-1.2043,-1.4327,-1.5737,-1.7538,-2.0379,-2.0722,-2.096,0.0,-2.1886,-2.1991,-2.218,-2.2209,0.0,0.0,-2.2152,-2.1991,-2.1631,-2.137,-2.0926,-2.0304,-2.027,-2.027,-2.0235,-2.0235,-2.0235,-2.0235,-2.0115,-2.001,-1.9955,-1.9848,-1.9762,-1.969,-1.969,0.0,-1.969,-1.969,-1.969,-1.969,-1.969,-1.9221,-1.85,-1.8387,-1.7798,-1.6911,-1.5853,-1.5421,-1.5238,-1.465,-1.4154,-1.3788,-1.3788,-1.3527,-1.3182,-1.3113,-1.2638,-1.2077,-1.2004,-1.176,-1.1485,-1.1485,-1.1485,-1.1485,-1.1485,-1.1485,-1.1485,-1.1485,-1.1485,-1.1485,-1.1421,-1.1384,-1.1287,-1.1014,-1.0966,-1.086,-1.0702,-0.9984,-0.9478,-0.9406,-0.9396,-0.9103,-0.8355,-0.8285,-0.7944,-0.7184,-0.6927,-0.6777,-0.6717,-0.646,-0.6315,-0.6315,-0.6315,-0.6315,-0.6315,-0.6578,-0.6752,-0.6824,-0.7415,-0.7731,-1.8413,-1.9171,-1.9978,-1.986,-1.9728,-1.9036,-1.6798,0.0,0.0,0.0,-0.9687,-0.932,-0.8959,-0.9727,0.0,-1.3042,-1.4431,-1.6143,-1.8625,-1.9509,-2.0221,-2.1164,-2.1595,-2.1915,-2.2282,-2.2152,-2.2106,-2.2282,-2.2152,-2.1886,-2.157,-2.1055,-2.0646,-2.0304,-2.0304,-2.0304,-2.0304,-2.0304,-2.0304,-2.0304,-2.0131,-2.0025,-2.0005,-1.9848,-1.9726,-1.969,-1.969,-1.969,-1.969,-1.969,-1.969,-1.969,-1.969,-1.9347,-1.8784,-1.8592,-1.8068,-1.7356,-1.6323,-1.5748,-1.5395,-1.4794,-1.4232,-1.3788,-1.3788,-1.3674,-1.348,-1.3263,-1.2801,-1.2318,-1.215,-1.1796,-1.1485,-1.1485,-1.1485,-1.1485,-1.1485,-1.1485,-1.1485,-1.1485,-1.1485,-1.1485,-1.1459,-1.1421,-1.1357,-1.1282,-1.1168,-1.1092,-1.1006,-1.0536,-1.0138,-0.9891,-0.987,-0.9606,-0.9016,-0.8975,-0.8656,-0.7873,-0.7929,-0.7725,-0.7078,-0.7138,-0.7082,-0.6808,-0.6816,-0.6816,-0.6816,-0.6983,-0.7158,-0.7312,-0.7644,-0.7928,-1.8197,-1.8676,-1.9161,-1.8948,-1.8352,-1.7236,-1.5001,-1.3362,0.0,-0.9365,-0.8891,-0.8891,-0.8858,-0.9246,-1.0128,0.0,-1.3022,-1.4496,-1.6896,-1.8261,-1.9388,0.0,-2.1246,0.0,-2.2152,-2.202,0.0,-2.2282,-2.1915,-2.1601,-2.1291,-2.0795,-2.046,-2.0304,-2.0304,-2.0304,-2.0304,-2.0304,-2.0304,-2.0304,-2.0096,-2.0025,-2.0025,-1.9797,-1.9726,-1.9726,-1.9726,-1.969,-1.969,-1.969,-1.969,-1.969,-1.969,-1.9472,-1.9064,-1.8745,-1.8266,-1.7652,-1.6665,-1.5969,-1.5369,-1.465,-1.4128,-1.3788,-1.3788,-1.3788,-1.3741,-1.3412,-1.3057,-1.2673,-1.2389,-1.1968,-1.1623,-1.1522,-1.1485,-1.1485,-1.1485,-1.1485,-1.1485,-1.1485,-1.1485,-1.1485,-1.1485,-1.1459,-1.1421,-1.1394,-1.1282,-1.1168,-1.1092,-1.1006,-1.0785,-1.0386,-1.0345,-1.0159,-0.9695,-0.9664,-0.9315,-0.856,-0.8865,-0.8627,-0.7582,-0.7826,-0.7842,-0.7443,-0.7336,-0.7301,-0.7301,-0.738,-0.7555,-0.7794,-0.7873,-0.8103,-1.7757,-1.8427,-1.8941,-1.8917,-1.8352,-1.7236,-1.5001,0.0,-1.1654,-0.9365,-0.8891,-0.8858,-0.8738,-0.8769,-0.9448,-1.1434,0.0,-1.2767,-1.6184,-1.7093,-1.8032,-1.9686,0.0,0.0,-2.1811,-2.2077,-2.2282,-2.231,-2.1721,-2.1323,-2.1308,-2.1245,-2.0926,-2.0304,-2.0304,-2.0304,-2.0304,-2.0304,-2.0304,-2.0304,-2.015,-2.008,-2.008,-1.9869,-1.9797,-1.9797,-1.9726,-1.969,0.0,-1.969,-1.969,-1.969,-1.969,-1.9472,-1.9101,-1.9064,-1.85,-1.7625,-1.6501,-1.5861,-1.5317,-1.4219,-1.3827,-1.3788,-1.3788,-1.3788,-1.3788,-1.3754,-1.3446,-1.3148,-1.3113,-1.2555,-1.1932,-1.1597,-1.1485,-1.1485,-1.1485,-1.1485,-1.1485,-1.1485,-1.1485,-1.1485,-1.1485,-1.1485,-1.1459,-1.1421,-1.1384,-1.1319,-1.112,-1.1092,-1.1033,-1.0867,-1.0829,-1.0634,-1.018,-1.0138,-0.9757,-0.8911,-0.8999,-0.8873,-0.8321,-0.8105,-0.7982,-0.7947,-0.7515,-0.7301,-0.7301,-0.7626,-0.7763,-0.7802,-0.8174,-0.8382,-1.7037,-1.7742,-1.828,-1.8251,-1.7354,-1.6018,-1.4242,0.0,-1.1062,-0.9264,-0.8891,-0.8858,-0.8715,-0.8632,-0.8984,-1.023,0.0,0.0,-1.3178,-1.4343,-1.5706,-1.769,-1.8996,0.0,0.0,0.0,-2.1991,-2.1991,-2.1751,-2.1432,-2.1039,-2.0811,-2.0595,-2.0304,-2.0304,-2.0304,-2.0304,-2.0304,-2.0304,-2.0304,-2.015,-2.01,-2.01,-1.9904,-1.9797,-1.9797,-1.9726,-1.969,0.0,-1.969,-1.969,-1.969,-1.969,-1.9379,-1.8844,-1.8593,-1.8006,-1.7211,-1.5935,-1.5402,-1.5105,-1.4104,-1.3788,-1.3788,-1.3788,-1.3788,-1.3788,-1.3788,-1.3514,-1.3182,-1.3182,-1.2661,-1.2077,-1.1906,-1.1697,-1.1485,-1.1485,-1.1485,-1.1485,-1.1485,-1.1485,-1.1485,-1.1485,-1.1485,-1.1485,-1.1459,-1.1421,-1.1357,-1.1271,-1.1195,-1.112,-1.1044,-1.0968,-1.0809,-1.0634,-1.0613,-1.0334,-0.9732,-0.9774,-0.9502,-0.8803,-0.8659,-0.8485,-0.8262,-0.8061,-0.7944,-0.7952,-0.8087,-0.8159,-0.8159,-0.8309,-0.8414,-1.6438,-1.711,-1.7589,-1.776,-1.6695,-1.5206,0.0,-1.2211,-1.0673,-0.9196,-0.8891,-0.8846,-0.8667,-0.8559,-0.8715,-0.9342,0.0,-0.9844,-1.1411,-1.2838,-1.4413,-1.6334,0.0,-1.9404,-2.1187,-2.1635,-2.1797,-2.1797,-2.1601,-2.1293,-2.0827,-2.0475,-2.0304,-2.0304,-2.0304,-2.0304,-2.0304,-2.0304,-2.0304,-2.0304,-2.0185,-2.015,-2.015,-1.9975,-1.9904,-1.9869,-1.9762,-1.9726,0.0,-1.9726,-1.969,-1.969,-1.969,-1.9286,-1.8668,-1.839,-1.7792,-1.692,-1.5722,-1.521,-1.4978,-1.4092,-1.3788,-1.3788,-1.3788,-1.3788,-1.3788,-1.3788,-1.3594,-1.3331,-1.3216,-1.2801,-1.2354,-1.215,-1.187,-1.1623,-1.1522,-1.1485,-1.1485,-1.1485,-1.1485,-1.1485,-1.1485,-1.1485,-1.1485,-1.1485,-1.1459,-1.1421,-1.1394,-1.1271,-1.1158,-1.113,-1.0968,-1.0891,-1.0891,-1.0891,-1.0709,-1.027,-1.0394,-1.0146,-0.9413,-0.9382,-0.9257,-0.8975,-0.8692,-0.8578,-0.8578,-0.8455,-0.8414,-0.8414,-0.8414,-0.8414,-1.6106,-1.6716,-1.6902,-1.7625,-1.6695,-1.5206,-1.3735,-1.2211,-1.0673,-0.9196,-0.8891,-0.8824,-0.8547,-0.8497,-0.8621,-0.9049,-0.9111,0.0,-1.1902,-1.3344,-1.4698,0.0,0.0,-1.914,-2.0221,-2.122,-2.1797,-2.1797,-2.1198,0.0,-2.0794,-2.0475,-2.0304,-2.0304,-2.0304,-2.0304,-2.0304,-2.0304,-2.0304,-2.0304,-2.0304,-2.0304,-2.0304,-2.015,-2.01,-2.008,-1.9869,-1.9797,0.0,-1.9726,-1.969,-1.969,-1.969,-1.9286,-1.8702,-1.8702,-1.8032,-1.6954,-1.6099,-1.5494,-1.4978,-1.4092,-1.3788,-1.3788,-1.3788,-1.3788,-1.3788,-1.3788,-1.3788,-1.3708,-1.3297,-1.3182,-1.301,-1.2282,-1.2113,-1.1968,-1.1597,-1.1485,-1.1485,-1.1485,-1.1485,-1.1485,-1.1485,-1.1485,-1.1485,-1.1485,-1.1485,-1.1459,-1.1421,-1.1271,-1.1158,-1.113,-1.0968,-1.0891,-1.0891,-1.0891,-1.0728,-1.0312,-1.0679,-1.0718,-1.0312,-1.0283,-1.0283,-1.0283,-0.9417,-0.8975,-0.8975,-0.8578,-0.8414,-0.8414,-0.8414,-0.8414,-1.3498,-1.4428,-1.5138,-1.4851,-1.4003,-1.2941,-1.192,-1.086,-0.9801,-0.8829,-0.862,-0.8571,-0.8396,-0.8358,-0.8689,-0.9637,-0.9789,-1.0343,0.0,0.0,0.0,-1.6025,-1.8529,-2.0273,0.0,0.0,-2.137,-2.1135,-2.0925,-2.0695,-2.046,-2.0373,-2.0304,-2.0304,-2.0304,-2.0304,-2.0304,-2.0304,-2.0304,-2.0304,-2.0304,-2.0304,-2.0304,-2.015,-2.01,-2.01,-1.9904,-1.9797,-1.9797,-1.9726,-1.969,-1.963,-1.9196,-1.8612,-1.7951,-1.7488,-1.6858,-1.6127,-1.5632,-1.5344,-1.5145,-1.4661,-1.4332,-1.4138,-1.4138,-1.3974,-1.3788,-1.3788,-1.3788,-1.3788,-1.3628,-1.3412,-1.3079,-1.2567,-1.2258,-1.2004,-1.1597,-1.1485,-1.1485,-1.1485,-1.1485,-1.1485,-1.1485,-1.1485,-1.1485,-1.1485,-1.1485,-1.1485,-1.1459,-1.141,-1.1384,-1.1319,-1.1271,-1.1158,-1.093,-1.0891,-1.0853,-1.0728,-1.0564,-1.0438,-1.0322,-0.9991,-0.9825,-0.9825,-0.9549,-0.939,-0.939,-0.927,-0.9079,-0.8814,-0.8814,-0.8659,-1.2145,-1.2973,-1.3633,-1.3447,-1.2772,-1.1953,-1.1091,-1.0258,-0.9454,-0.8656,-0.8497,-0.846,-0.8319,-0.8293,-0.8523,-0.9235,-0.9558,-1.0204,0.0,0.0,0.0,-1.6732,0.0,0.0,0.0,-2.0847,-2.1071,-2.1007,-2.0745,-2.0561,-2.0494,-2.0373,-2.0304,-2.0304,-2.0304,-2.0304,-2.0304,-2.0304,-2.0304,-2.0304,-2.0304,-2.0304,-2.0304,-2.022,-2.0185,-2.015,-1.9955,-1.9884,0.0,-1.9762,-1.969,-1.9615,-1.8957,-1.8298,-1.7637,-1.7234,-1.6548,-1.5771,-1.5711,-1.5503,-1.5239,-1.4763,-1.4397,-1.4138,-1.4105,-1.3974,-1.3788,-1.3788,-1.3788,-1.3788,-1.3788,-1.3594,-1.3331,-1.2918,-1.2673,-1.2389,-1.2004,-1.1906,-1.187,-1.176,-1.1734,-1.1697,-1.1522,-1.1485,-1.1485,-1.1485,-1.1485,-1.1485,-1.1485,-1.1485,-1.1459,-1.1394,-1.1346,-1.1233,-1.1033,-1.1006,-1.0968,-1.0891,-1.0641,-1.0525,-1.0525,-1.0235,-1.0108,-1.0108,-0.9952,-0.9864,-0.9864,-0.9697,-0.939,-0.9016,-0.9016,-0.8781,0.0,-1.2094,-1.228,-1.2922,-1.2551,-1.1797,-1.0924,-1.0186,0.0,-0.8643,-0.8472,-0.845,-0.8369,-0.8327,-0.8319,-0.8384,-0.8926,-0.9804,0.0,-1.319,0.0,0.0,-1.9217,0.0,-1.983,-2.0383,-2.0877,-2.1214,-2.0646,-2.0441,-2.0761,-2.046,-2.0304,-2.0304,-2.0304,-2.0304,-2.0304,-2.0304,-2.0304,-2.0304,-2.0304,-2.0304,-2.0304,-2.0304,-2.0304,0.0,-2.0096,-2.0005,-1.999,-1.9797,-1.9726,-1.9651,-1.8912,-1.8268,-1.7682,-1.7593,-1.6817,-1.5859,-1.6167,-1.5854,-1.5239,-1.456,-1.417,-1.3921,-1.3854,-1.3821,-1.3821,-1.3788,-1.3788,-1.3788,-1.3788,-1.3788,-1.3708,-1.3297,-1.3182,-1.3079,-1.2708,-1.2603,-1.2496,-1.2186,-1.2113,-1.1968,-1.156,-1.1485,-1.1485,-1.1485,-1.1485,-1.1485,-1.1485,-1.1459,-1.1421,-1.1421,-1.1309,-1.1223,-1.1223,-1.1158,-1.1054,-1.093,-1.093,-1.0891,-1.0891,-1.0891,-1.0891,-1.0891,-1.0525,-1.0322,-1.0322,-0.9913,-0.9469,-0.9096,-0.9056,-0.8814,-0.9603,0.0,-1.0453,-1.006,-0.9668,-0.9347,0.0,-0.8765,-0.8431,-0.8234,-0.8203,-0.8345,-0.8817,-0.8491,-0.8832,-1.09,-1.1378,-1.2113,-1.399,0.0,0.0,-1.9592,-2.0033,-2.0159,-2.0159,-2.0348,-2.046,-2.0527,-2.0407,-2.0339,-2.0407,-2.0339,-2.0304,-2.0304,-2.0304,-2.0304,-2.0304,-2.0304,-2.0304,-2.0304,-2.0304,-2.0304,-2.0304,-2.0304,-2.0304,-2.0304,-2.015,-2.008,-2.008,-1.9955,-1.9884,-1.9641,-1.8519,-1.793,-1.7563,-1.6608,-1.6068,-1.5829,-1.5891,-1.5802,-1.558,-1.4951,-1.4529,-1.4222,-1.4013,-1.3927,-1.3888,-1.3821,-1.3788,-1.3788,-1.3788,-1.3788,-1.3708,-1.3297,-1.3182,-1.3079,-1.2708,-1.2603,-1.2496,-1.2186,-1.2113,-1.1968,-1.156,-1.1485,-1.1485,-1.1485,-1.1485,-1.1485,-1.1485,-1.1485,-1.1485,-1.1485,-1.1448,-1.1421,-1.1346,-1.1195,-1.1092,-1.1044,-1.0968,-1.0891,-1.0891,-1.0891,-1.0891,-1.0891,-1.0805,-1.0766,-1.0766,-1.0641,-1.04,-0.9971,-0.9637,-0.9239,-0.8891,-0.9438,-0.9899,-0.9506,-0.9292,-0.9155,-0.9039,-0.8637,-0.8256,-0.8121,-0.8094,-0.8217,-0.8572,-0.8603,-0.9158,-1.0927,-1.1794,0.0,0.0,0.0,-1.8714,-2.0135,-2.0304,-2.0304,0.0,-2.0304,-2.0304,-2.0304,-2.0304,-2.0304,-2.0304,-2.0304,-2.0304,-2.0304,-2.0304,-2.0304,-2.0304,-2.0304,-2.0304,-2.0304,-2.0304,-2.0304,-2.0304,-2.0304,-2.0304,-2.0304,-2.015,-2.01,-2.01,-2.0025,-1.9955,-1.9748,-1.8419,-1.7874,-1.7674,-1.6593,-1.6024,-1.5844,-1.6114,-1.5862,-1.5359,-1.5043,-1.4655,-1.4254,-1.4065,-1.4013,-1.4007,-1.3888,-1.3821,-1.3788,-1.3788,-1.3788,-1.3754,-1.3527,-1.3493,-1.3412,-1.3207,-1.3138,-1.3,-1.2425,-1.2318,-1.215,-1.1597,-1.1485,-1.1485,-1.1485,-1.1485,-1.1485,-1.1485,-1.1485,-1.1485,-1.1485,-1.1485,-1.1485,-1.1459,-1.1309,-1.1195,-1.1158,-1.1082,-1.1033,-1.1006,-1.1006,-1.0968,-1.0891,-1.0891,-1.0891,-1.0891,-1.0891,-1.0679,-1.0283,-1.003,-0.9677,-0.9027,-0.9607,-1.0102,-0.9883,-0.9891,-0.9865,-0.9506,-0.8909,-0.8371,0.0,0.0,-0.8171,-0.8386,-0.888,0.0,-1.0435,0.0,0.0,-1.6916,-1.7946,-1.8854,-2.0165,-2.0304,0.0,-2.0304,-2.0304,-2.0304,-2.0304,-2.0304,-2.0304,-2.0304,-2.0304,-2.0304,-2.0304,-2.0304,-2.0304,-2.0304,-2.0304,-2.0304,-2.0304,-2.0304,-2.0304,-2.0304,-2.0304,-2.0304,-2.0304,-2.0185,0.0,-2.0115,-2.0061,-1.9965,-1.9717,-1.8455,-1.7878,-1.7648,-1.6878,-1.6248,-1.5873,-1.6398,-1.5873,-1.4982,-1.5013,-1.4672,-1.4222,-1.4098,-1.4124,-1.417,-1.3974,-1.3874,-1.3808,-1.3821,-1.3821,-1.3821,-1.3788,-1.3788,-1.3788,-1.3788,-1.3788,-1.3573,-1.2849,-1.2696,-1.2461,-1.1734,-1.1586,-1.156,-1.1522,-1.1485,-1.1485,-1.1485,-1.1485,-1.1485,-1.1485,-1.1485,-1.1485,-1.1485,-1.1459,-1.1384,-1.126,-1.1223,-1.1158,-1.1082,-1.1092,-1.1044,-1.0891,-1.0891,-1.0891,-1.0891,-1.0891,-1.0728,-1.04,-1.0322,-1.0079,-0.9658,-1.0369,-1.0622,-0.9382,-0.9363,-0.949,-0.8818,-0.8398,-0.8149,0.0,0.0,0.0,0.0,-0.9914,-1.0576,0.0,0.0,-1.6148,0.0,0.0,-1.9425,-2.0212,0.0,-2.0304,-2.0304,-2.0304,-2.0304,-2.0304,-2.0304,-2.0304,-2.0304,-2.0304,-2.0304,-2.0304,-2.0304,-2.0304,-2.0304,-2.0304,-2.0304,-2.0304,-2.0304,-2.0304,-2.0304,-2.0304,-2.0304,-2.0304,0.0,-2.027,-2.027,-2.027,-1.9863,-1.915,-1.8371,-1.7638,-1.6955,-1.6291,-1.5917,-1.5814,-1.5976,-1.5757,-1.5359,-1.5165,-1.4859,-1.4515,-1.4319,-1.4222,-1.4203,-1.417,-1.4046,-1.3947,-1.3908,-1.3888,-1.3888,-1.3821,-1.3788,-1.3788,-1.3788,-1.3788,-1.3674,-1.3195,-1.3113,-1.2871,-1.2138,-1.2004,-1.1906,-1.156,-1.1485,-1.1485,-1.1485,-1.1485,-1.1485,-1.1485,-1.1485,-1.1485,-1.1485,-1.1485,-1.1485,-1.1448,-1.1233,-1.1044,-1.093,-1.1044,-1.1044,-1.0891,-1.0891,-1.0891,-1.0891,-1.0891,-1.0891,-1.0805,-1.0448,-1.0244,-0.9315,-0.9946,-1.0352,-0.9658,-1.0276,-1.0914,-1.0405,-0.9969,-0.9577,0.0,0.0,0.0,0.0,0.0,-1.2041,-1.4461,0.0,-1.7208,-1.8592,-1.9102,-1.9549,0.0,0.0,-2.0304,-2.0304,-2.0339,-2.02,-1.9795,-1.9798,-1.9628,-1.9192,-1.9177,-1.9346,-1.9749,-1.9765,-1.9934,-2.0304,-2.0304,-2.0304,-2.0304,-2.0304,-2.0304,-2.0304,-2.0304,-2.0304,-2.0304,0.0,-2.0304,-2.0304,-2.0304,-1.987,-1.9111,-1.8405,-1.767,-1.6909,-1.6212,-1.5926,-1.5926,-1.5983,-1.5812,-1.5551,-1.5448,-1.5104,-1.4686,-1.4606,-1.4429,-1.4268,-1.4268,-1.4144,-1.4,-1.3947,-1.3941,-1.3888,-1.3854,-1.3821,-1.3788,-1.3788,-1.3788,-1.3674,-1.3297,-1.3182,-1.2975,-1.2222,-1.2113,-1.1968,-1.156,-1.1485,-1.1485,-1.1485,-1.1485,-1.1485,-1.1485,-1.1485,-1.1485,-1.1485,-1.1485,-1.1485,-1.1485,-1.1346,-1.1233,-1.1158,-1.1158,-1.112,-1.1071,-1.1071,-1.1044,-1.1006,-1.1006,-1.0968,-1.0891,-1.0718,-1.0603,-0.9111,-0.9574,-1.0035,-1.0203,-1.0984,-1.1734,-1.1844,-1.135,-1.0844,-1.0758,0.0,0.0,0.0,-1.202,0.0,-1.5825,-1.6763,-1.7562,-1.867,-1.8947,-1.924,-1.9731,-1.9842,-1.9826,-1.9793,-1.9909,-1.9692,-1.9134,-1.9135,-1.8903,-1.8269,-1.8253,-1.8484,-1.904,-1.9055,-1.9302,-1.9793,-1.9793,-1.9962,-2.0304,-2.0304,-2.0304,-2.0304,-2.015,-2.015,-2.0289,-2.0135,-2.0073,-2.0073,-2.0073,-1.958,-1.8731,-1.8145,-1.7456,-1.6799,-1.6222,-1.5996,-1.6039,-1.6067,-1.594,-1.5725,-1.5623,-1.5285,-1.4887,-1.4732,-1.4493,-1.43,-1.43,-1.4176,-1.4065,-1.4032,-1.4026,-1.3974,-1.3941,-1.3874,-1.3841,-1.3841,-1.3841,-1.3762,-1.3467,-1.3353,-1.316,-1.2496,-1.2354,-1.221,-1.1833,-1.1771,-1.1734,-1.166,-1.1623,-1.1586,-1.1522,-1.1485,-1.1485,-1.1485,-1.1485,-1.1485,-1.1485,-1.1459,-1.1384,-1.1346,-1.1271,-1.1223,-1.1185,-1.1185,-1.1158,-1.112,-1.112,-1.1082,-1.0957,-1.0968,-1.0968,-0.9743,-0.995,-1.0153,-1.0842,-1.0494,-1.0344,-1.1769,-1.1237,-1.0863,-1.2318,0.0,0.0,0.0,-1.421,-1.532,-1.6083,-1.6763,-1.7239,-1.7331,0.0,-1.8299,-1.8345,-1.847,-1.8501,-1.8361,-1.8532,-1.8594,-1.847,-1.8532,-1.8516,-1.8393,-1.8393,-1.8346,-1.8284,-1.8284,-1.8299,-1.8361,-1.8361,-1.9023,-2.0304,-2.0304,-2.0304,-2.0289,-1.9657,-1.9703,-2.0273,-1.9641,-1.9364,-1.9364,-1.9364,-1.8561,-1.7347,-1.73,-1.6826,-1.6157,-1.6055,-1.6039,-1.6095,-1.6095,-1.6123,-1.6067,-1.5492,-1.5299,-1.5149,-1.4511,-1.4332,-1.43,-1.43,-1.43,-1.4254,-1.4189,-1.417,-1.417,-1.4032,-1.4,-1.4,-1.4,-1.4,-1.3967,-1.3967,-1.3881,-1.3695,-1.3285,-1.3148,-1.2975,-1.2603,-1.2532,-1.2425,-1.2113,-1.2041,-1.1906,-1.1522,-1.1485,-1.1485,-1.1485,-1.1485,-1.1485,-1.1485,-1.1485,-1.141,-1.1223,-1.1309,-1.1346,-1.1185,-1.1185,-1.1185,-1.1185,-1.1185,-1.1185,-1.1185,-1.112,-1.1092,-0.9247,-0.9682,-1.0225,-1.0941,-1.0782,0.0,0.0,-1.2592,-1.2848,-1.3579,-1.3785,0.0,0.0,0.0,-1.5692,-1.6709,-1.7053,-1.7376,-1.7883,-1.8084,-1.8207,-1.8207,-1.8316,-1.8393,-1.8316,-1.8469,-1.8358,-1.7817,-1.7889,-1.7702,-1.7179,-1.7148,-1.7321,-1.7695,-1.7681,-1.7928,-1.8377,-1.8393,-1.8641,-1.92,-1.904,-1.8975,-1.9008,-1.8746,-1.8761,-1.8992,-1.8731,-1.8623,-1.8623,-1.8623,-1.8069,-1.7162,-1.6732,-1.6409,-1.6166,-1.6123,-1.6123,-1.6166,-1.6166,-1.6194,-1.6166,-1.5926,-1.5711,-1.5507,-1.524,-1.5043,-1.4873,-1.4669,-1.462,-1.4556,-1.4332,-1.4235,-1.4203,-1.4157,-1.4078,-1.4,-1.4,-1.4,-1.4,-1.396,-1.3908,-1.3775,-1.3319,-1.3216,-1.3045,-1.2673,-1.2425,-1.2246,-1.2113,-1.187,-1.166,-1.1522,-1.1485,-1.1485,-1.1485,-1.1485,-1.1485,-1.1485,-1.1485,-1.1485,-1.1373,-1.1459,-1.1459,-1.1373,-1.1373,-1.1384,-1.1309,-1.1309,-1.1271,-1.1185,-1.1158,-1.1158,-0.8546,-0.9134,-0.9927,-1.0615,0.0,0.0,-1.2799,-1.3508,-1.4126,-1.4987,-1.5225,-1.5367,-1.5588,0.0,0.0,0.0,-1.6941,-1.7097,-1.7664,-1.7651,-1.7592,-1.7577,-1.7667,-1.7726,-1.7726,-1.7874,-1.7713,-1.7171,-1.7211,-1.7035,-1.6468,-1.6436,-1.6628,-1.7068,-1.7083,-1.7332,-1.7831,-1.7831,-1.7831,-1.7831,-1.7697,-1.7853,-1.8285,-1.8038,-1.8038,-1.8238,-1.7976,-1.7884,-1.7884,-1.7884,-1.7485,-1.684,-1.6379,-1.6194,-1.6194,-1.6194,-1.6194,-1.6194,-1.6194,-1.6194,-1.6194,-1.6067,-1.5896,-1.5681,-1.5609,-1.5374,-1.5088,-1.4856,-1.4714,-1.4588,-1.4365,-1.4268,-1.4235,-1.4235,-1.4144,-1.4098,-1.4098,-1.4098,-1.4078,-1.404,-1.4007,-1.3894,-1.3568,-1.3467,-1.3331,-1.3057,-1.2779,-1.2603,-1.2449,-1.2222,-1.1943,-1.1697,-1.1597,-1.1485,-1.1485,-1.1485,-1.1485,-1.1485,-1.1485,-1.1485,-1.1485,-1.1485,-1.1485,-1.1485,-1.1485,-1.1485,-1.1421,-1.1421,-1.1384,-1.1298,-1.126,-1.1271,-0.7812,-0.8398,-0.9197,-0.9927,0.0,0.0,-1.3433,-1.3758,-1.4265,-1.6532,-1.6686,-1.6382,-1.6313,-1.6262,0.0,-1.6301,-1.6301,-1.6301,-1.6301,-1.6301,-1.6274,-1.6222,-1.6262,-1.6301,-1.6301,-1.6421,-1.6501,-1.6501,-1.6554,-1.6554,-1.6501,-1.6501,-1.6474,-1.6382,-1.6398,-1.6398,-1.6398,-1.6398,-1.6398,-1.6398,-1.6398,-1.7114,-1.8454,-1.7663,-1.7695,-1.8331,-1.7545,-1.7193,-1.7193,-1.7193,-1.6793,-1.6194,-1.6194,-1.6194,-1.6194,-1.6194,-1.6194,-1.6194,-1.6194,-1.6194,-1.6166,-1.5811,-1.571,-1.5667,-1.5374,-1.5088,-1.4808,-1.4808,-1.4588,-1.43,-1.43,-1.43,-1.43,-1.43,-1.43,-1.43,-1.43,-1.43,-1.43,-1.43,-1.4268,-1.4203,-1.4203,-1.404,-1.3921,-1.3921,-1.3854,-1.3641,-1.3263,-1.3182,-1.2906,-1.2174,-1.1734,-1.1522,-1.1522,-1.1485,-1.1485,-1.1485,-1.1485,-1.1485,-1.1485,-1.1485,-1.1485,-1.1485,-1.1485,-1.1485,-1.1485,-1.1485,-1.1485,-1.1485,-1.1421,-1.1394,-0.7953,-0.8755,0.0,-1.0689,0.0,0.0,0.0,-1.4605,0.0,0.0,-1.6581,-1.6448,-1.6448,-1.6421,0.0,-1.6448,-1.6409,-1.6382,-1.6421,-1.6409,-1.6355,-1.6344,-1.6409,-1.6448,-1.6448,-1.6528,-1.6554,-1.6554,-1.6596,-1.6596,-1.6554,-1.6554,-1.657,-1.6543,-1.6543,-1.6543,-1.6543,-1.6543,-1.6543,-1.6543,-1.6543,-1.6709,-1.7005,-1.6732,-1.6719,-1.6905,-1.6635,-1.6502,-1.6502,-1.6502,-1.6379,-1.6194,-1.6194,-1.6194,-1.6194,-1.6194,-1.6194,-1.6194,-1.6194,-1.6194,-1.6194,-1.6067,-1.6067,-1.6039,-1.5955,-1.587,-1.574,-1.5492,-1.5359,-1.524,-1.5043,-1.4996,-1.4873,-1.4415,-1.43,-1.43,-1.43,-1.43,-1.43,-1.4235,-1.4203,-1.4157,-1.4078,-1.396,-1.3921,-1.3921,-1.3594,-1.3229,-1.2836,-1.2766,-1.2696,-1.2496,-1.215,-1.1906,-1.1906,-1.166,-1.1485,-1.1485,-1.1485,-1.1485,-1.1485,-1.1485,-1.1485,-1.1485,-1.1485,-1.1485,-1.1485,-1.1485,-1.1485,-1.1485,-1.1485,-1.1459,-0.7897,-0.8968,0.0,-1.1069,-1.1919,-1.2929,-1.4271,0.0,0.0,0.0,-1.6554,-1.6501,-1.6501,-1.6474,0.0,-1.6501,-1.649,-1.6448,-1.6501,-1.649,-1.6436,-1.6382,-1.6436,-1.6474,-1.6501,-1.6528,-1.6554,-1.6596,-1.6596,-1.6596,-1.6596,-1.6596,-1.6596,-1.6596,-1.6596,-1.6596,-1.6596,-1.6596,-1.6596,-1.6596,-1.6596,-1.657,-1.6463,-1.6409,-1.6367,-1.6328,-1.6234,-1.6194,-1.6194,-1.6194,-1.6194,-1.6194,-1.6194,-1.6194,-1.6194,-1.6194,-1.6194,-1.6194,-1.6194,-1.6194,-1.6194,-1.6194,-1.6194,-1.6194,-1.6194,-1.6095,-1.5968,-1.5754,-1.5623,-1.5492,-1.5344,-1.5299,-1.5195,-1.478,-1.4606,-1.4493,-1.4493,-1.4397,-1.43,-1.4268,-1.4235,-1.4222,-1.4144,-1.4059,-1.4007,-1.4007,-1.3728,-1.3365,-1.3104,-1.2814,-1.2603,-1.2603,-1.215,-1.187,-1.187,-1.1623,-1.1485,-1.1485,-1.1485,-1.1485,-1.1485,-1.1485,-1.1485,-1.1485,-1.1485,-1.1485,-1.1485,-1.1485,-1.1485,-1.1485,-1.1485,-1.1485,-0.7629,-0.896,-1.038,-1.1126,-1.1853,0.0,-1.3694,-1.52,-1.6439,-1.6486,0.0,-1.6501,-1.6501,-1.6463,-1.6436,-1.6501,-1.6501,-1.6496,-1.6433,-1.6454,-1.6459,-1.6331,-1.6378,-1.6436,-1.6501,-1.6501,-1.6528,-1.6596,-1.6596,-1.6596,-1.6596,-1.6596,-1.6596,-1.6596,-1.6596,-1.6596,-1.6596,-1.6596,-1.6596,-1.6596,-1.6596,-1.6596,-1.6596,-1.6528,-1.6448,-1.6398,-1.6262,-1.6222,-1.6222,-1.6194,-1.6194,-1.6194,-1.6194,-1.6194,-1.6194,-1.6194,-1.6194,-1.6194,-1.6194,-1.6194,-1.6194,-1.6194,-1.6194,-1.6194,-1.6194,-1.5996,-1.5754,-1.5754,-1.558,-1.5389,-1.5389,-1.5389,-1.5389,-1.5389,-1.5088,-1.4808,-1.4808,-1.4556,-1.43,-1.43,-1.43,-1.43,-1.43,-1.4235,-1.4189,-1.417,-1.4007,-1.3888,-1.3821,-1.3173,-1.2708,-1.2638,-1.2016,-1.1597,-1.1597,-1.1522,-1.1485,-1.1485,-1.1485,-1.1485,-1.1485,-1.1485,-1.1485,-1.1485,-1.1485,-1.1485,-1.1485,-1.1485,-1.1485,-1.1485,-1.1485,-1.1485,-0.7089,-0.8548,0.0,-1.1118,-1.252,-1.3894,-1.4648,-1.4931,-1.5185,-1.5706,-1.6218,-1.6596,-1.6596,-1.657,-1.657,-1.657,-1.6596,-1.6391,-1.588,-1.6249,-1.6391,-1.5855,-1.6239,-1.657,-1.6596,-1.6596,-1.6596,-1.6596,-1.6596,-1.6596,-1.6596,-1.6596,-1.6596,-1.6596,-1.6596,-1.6596,-1.6596,-1.6596,-1.6596,-1.6596,-1.6596,-1.6596,-1.6596,-1.6528,-1.6448,-1.6398,-1.6301,-1.6274,-1.6274,-1.6207,-1.6194,-1.6194,-1.6194,-1.6194,-1.6194,-1.6194,-1.6194,-1.6194,-1.6194,-1.6194,-1.6194,-1.6194,-1.6194,-1.6194,-1.6194,-1.6166,-1.6095,-1.6095,-1.6039,-1.6011,-1.6011,-1.6011,-1.6011,-1.6011,-1.5389,-1.4808,-1.4808,-1.4556,-1.43,-1.43,-1.43,-1.43,-1.43,-1.4235,-1.417,-1.398,-1.3934,-1.3881,-1.3821,-1.3641,-1.3391,-1.2953,-1.2437,-1.2197,-1.2365,-1.1833,-1.1485,-1.1485,-1.1485,-1.1485,-1.1485,-1.1485,-1.1485,-1.1485,-1.1485,-1.1485,-1.1485,-1.1485,-1.1485,-1.1485,-1.1485,-1.1485,-0.7295,0.0,0.0,-1.1352,0.0,-1.3672,-1.3816,-1.3978,-1.4174,-1.4505,-1.5153,-1.5643,-1.5643,-1.5643,-1.5643,-1.5643,-1.5643,-1.5517,-1.5153,-1.5422,-1.5517,-1.5153,-1.5422,-1.5643,-1.5643,-1.5643,-1.5643,-1.5643,-1.5943,-1.6117,-1.6117,-1.6433,-1.6596,-1.6596,-1.6596,-1.6596,-1.6596,-1.6596,-1.6596,-1.6596,-1.6596,-1.6596,-1.6596,-1.6528,-1.6474,-1.6436,-1.6382,-1.6355,-1.6355,-1.6316,-1.6305,-1.6316,-1.6436,-1.6425,-1.6316,-1.6436,-1.6398,-1.6262,-1.6262,-1.625,-1.6194,-1.6194,-1.6194,-1.6194,-1.6194,-1.6194,-1.6194,-1.6194,-1.6194,-1.6194,-1.6194,-1.6194,-1.6194,-1.6194,-1.5711,-1.5209,-1.5058,-1.4794,-1.4493,-1.4332,-1.43,-1.43,-1.43,-1.4268,-1.4189,-1.4013,-1.4046,-1.4026,-1.3821,-1.3874,-1.3782,-1.3501,-1.2849,-1.2401,-1.2294,-1.1918,-1.1734,-1.1796,-1.1686,-1.1649,-1.1649,-1.1549,-1.1485,-1.1485,-1.1485,-1.1485,-1.1485,-1.1485,-1.1485,-1.1485,-1.1485,-1.1485,-0.7355,0.0,-1.0338,-1.1672,-1.2473,0.0,-1.2684,-1.3011,-1.3383,-1.3383,-1.4022,-1.46,-1.46,-1.46,-1.46,-1.46,-1.46,-1.4553,-1.4426,-1.4521,-1.4553,-1.4426,-1.4521,-1.46,-1.46,-1.46,-1.46,-1.46,-1.5106,-1.5446,-1.5446,-1.607,-1.6433,-1.6433,-1.6533,-1.6596,-1.6596,-1.6596,-1.6596,-1.6596,-1.6649,-1.6675,-1.6675,-1.6659,-1.6591,-1.6501,-1.6463,-1.6436,-1.649,-1.6463,-1.6463,-1.649,-1.6712,-1.6649,-1.6425,-1.6649,-1.657,-1.6328,-1.6328,-1.6289,-1.625,-1.625,-1.625,-1.625,-1.625,-1.625,-1.625,-1.625,-1.6222,-1.6222,-1.6222,-1.6222,-1.6194,-1.6194,-1.5996,-1.5725,-1.5433,-1.5058,-1.4714,-1.4461,-1.4332,-1.43,-1.43,-1.43,-1.4268,-1.4138,-1.4235,-1.4203,-1.3921,-1.398,-1.4032,-1.4032,-1.3353,-1.2708,-1.2294,-1.2089,-1.2016,-1.2113,-1.1968,-1.1847,-1.1811,-1.1649,-1.156,-1.1485,-1.1485,-1.1485,-1.1485,-1.1485,-1.1485,-1.1485,-1.1485,-1.1485,-0.595,0.0,-0.9761,0.0,-1.2375,-1.247,0.0,0.0,-1.2883,0.0,-1.3797,-1.46,-1.46,-1.46,-1.46,-1.46,-1.46,-1.4379,-1.3731,-1.4189,-1.4363,-1.3715,-1.4205,-1.46,-1.46,-1.46,-1.46,-1.46,-1.4679,-1.4727,-1.4727,-1.5359,-1.5722,-1.5722,-1.6307,-1.6596,-1.6596,-1.6596,-1.6596,-1.6596,-1.6841,-1.6942,-1.6942,-1.7191,-1.7043,-1.6596,-1.6528,-1.6617,-1.6825,-1.6763,-1.6738,-1.6738,-1.6789,-1.6649,-1.6382,-1.6436,-1.6425,-1.6398,-1.6398,-1.6371,-1.6371,-1.6371,-1.6371,-1.6371,-1.6371,-1.6371,-1.6371,-1.6371,-1.6328,-1.6274,-1.6274,-1.6234,-1.6194,-1.6194,-1.6166,-1.6039,-1.5725,-1.5195,-1.4808,-1.4746,-1.4493,-1.43,-1.43,-1.43,-1.43,-1.4268,-1.43,-1.4268,-1.4235,-1.4254,-1.4254,-1.4254,-1.4157,-1.398,-1.3722,-1.2814,-1.2233,-1.2269,-1.215,-1.1957,-1.1811,-1.1785,-1.1686,-1.1485,-1.1485,-1.1485,-1.1485,-1.1485,-1.1485,-1.1485,-1.1485,-1.1485,-0.6683,-0.7994,-0.9525,0.0,-1.1955,-1.2336,-1.2904,-1.2906,-1.2773,-1.2675,-1.3135,-1.3562,-1.3436,-1.3431,-1.3431,-1.3431,-1.3431,-1.332,-1.2988,-1.3314,-1.3435,-1.2993,-1.333,-1.3562,-1.3415,-1.3431,-1.3431,-1.3431,-1.3763,-1.3984,-1.3984,-1.5019,-1.5605,-1.5605,-1.6259,-1.6596,-1.6596,-1.6596,-1.6675,-1.6815,-1.7093,-1.7216,-1.724,-1.7337,-1.7264,-1.7043,-1.7018,-1.6977,-1.6952,-1.6917,-1.6815,-1.6686,-1.6841,-1.6738,-1.6543,-1.6841,-1.6738,-1.649,-1.6633,-1.657,-1.6398,-1.6398,-1.6398,-1.6398,-1.6398,-1.6398,-1.6398,-1.6398,-1.6355,-1.6301,-1.6301,-1.6262,-1.6194,-1.6194,-1.6194,-1.6166,-1.5996,-1.5609,-1.5195,-1.4856,-1.4525,-1.43,-1.43,-1.43,-1.43,-1.43,-1.43,-1.43,-1.43,-1.43,-1.43,-1.43,-1.43,-1.4254,-1.4176,-1.3173,-1.2532,-1.2532,-1.2377,-1.2222,-1.215,-1.192,-1.1748,-1.1686,-1.1549,-1.1485,-1.1485,-1.1485,-1.1485,-1.1485,-1.1485,-1.1485,0.0,0.0,-0.8843,-1.025,-1.1141,-1.1863,0.0,0.0,-1.2639,0.0,-1.2697,-1.2735,-1.2538,-1.2538,-1.2577,-1.2577,-1.2518,-1.2514,-1.2514,-1.2659,-1.2754,-1.2597,-1.2754,-1.2811,-1.2675,-1.2655,-1.2655,-1.2655,-1.3119,-1.3407,-1.3407,-1.4508,-1.5177,-1.5208,-1.5837,-1.6282,-1.6534,-1.6709,-1.6917,-1.7117,-1.7361,-1.7519,-1.7502,-1.7365,-1.7405,-1.7589,-1.7455,-1.7337,-1.7191,-1.7191,-1.7093,-1.6917,-1.7142,-1.7043,-1.6841,-1.7264,-1.7117,-1.6747,-1.6952,-1.6841,-1.6543,-1.6543,-1.6517,-1.6436,-1.6436,-1.6436,-1.6436,-1.6436,-1.6409,-1.634,-1.634,-1.6301,-1.6234,-1.6234,-1.625,-1.6207,-1.6095,-1.5868,-1.5551,-1.5027,-1.4655,-1.4415,-1.4332,-1.43,-1.43,-1.43,-1.43,-1.43,-1.43,-1.43,-1.43,-1.43,-1.43,-1.43,-1.43,-1.3547,-1.3047,-1.2908,-1.2768,-1.2627,-1.252,-1.2222,-1.1993,-1.1884,-1.1686,-1.1549,-1.1485,-1.1485,-1.1485,-1.1485,-1.1485,-1.1485,0.0,-0.6354,0.0,-0.8812,-0.9761,-1.0642,0.0,0.0,-1.2339,-1.272,-1.2776,-1.2735,-1.2538,-1.2675,-1.2776,-1.2776,-1.262,-1.2514,-1.2514,-1.2659,-1.2811,-1.2792,-1.2959,-1.3084,-1.3066,-1.3066,-1.3066,-1.3066,-1.3099,-1.3115,-1.3115,-1.3612,-1.3982,-1.4166,-1.4718,-1.5434,-1.6308,-1.7007,-1.7361,-1.7384,-1.7658,-1.7789,-1.7755,-1.7236,-1.7425,-1.813,-1.7612,-1.7542,-1.7766,-1.7766,-1.7766,-1.7743,-1.7766,-1.7589,-1.7361,-1.7384,-1.7384,-1.7361,-1.7361,-1.7191,-1.6968,-1.6968,-1.6789,-1.6596,-1.6596,-1.6596,-1.6596,-1.6596,-1.6528,-1.6501,-1.6501,-1.6436,-1.6398,-1.6398,-1.6328,-1.6176,-1.5811,-1.571,-1.5638,-1.5315,-1.5043,-1.4735,-1.4351,-1.43,-1.43,-1.43,-1.43,-1.43,-1.43,-1.43,-1.43,-1.43,-1.43,-1.43,-1.43,-1.4254,-1.3993,-1.348,-1.3446,-1.3242,-1.2803,-1.2768,-1.2556,-1.2102,-1.1895,-1.1686,-1.1485,-1.1485,-1.1485,-1.1485,-1.1485,-1.1485,-0.5479,0.0,0.0,-0.8608,-0.9289,-0.9847,-1.118,-1.149,-1.1634,-1.2123,-1.2339,-1.2539,-1.2935,-1.2906,-1.2811,-1.2811,-1.2848,-1.2883,-1.2883,-1.3033,-1.3087,-1.2995,-1.3122,-1.3192,-1.3102,-1.3102,-1.3102,-1.3102,-1.3102,-1.3102,-1.3102,-1.367,-1.4028,-1.4106,-1.4697,-1.5452,-1.6303,-1.622,-1.644,-1.6948,-1.671,-1.6573,-1.6573,-1.6377,-1.645,-1.6708,-1.6513,-1.6974,-1.7755,-1.7282,-1.7261,-1.7542,-1.7542,-1.7479,-1.7408,-1.7589,-1.7542,-1.7384,-1.7384,-1.7216,-1.6968,-1.6789,-1.6686,-1.6596,-1.6596,-1.6596,-1.6649,-1.6815,-1.6686,-1.6538,-1.6722,-1.6581,-1.6398,-1.6398,-1.6425,-1.6371,-1.6191,-1.5924,-1.5652,-1.558,-1.5344,-1.5104,-1.4966,-1.5255,-1.5225,-1.4415,-1.43,-1.43,-1.43,-1.43,-1.43,-1.43,-1.43,-1.43,-1.43,-1.43,-1.4026,-1.3365,-1.3446,-1.3288,-1.2745,-1.2768,-1.2627,-1.2294,-1.2113,-1.1895,-1.1686,-1.1549,-1.1485,-1.1485,-1.1485,-1.1485,-0.5145,-0.5497,0.0,0.0,-0.8322,-0.8757,-1.0416,0.0,-1.066,-1.1459,-1.1736,-1.1964,-1.2371,-1.2323,-1.2402,-1.2896,-1.2995,-1.303,-1.3084,-1.3226,-1.3278,-1.3191,-1.3312,-1.3379,-1.3278,-1.3278,-1.3278,-1.3278,-1.3278,0.0,-1.3278,-1.3625,-1.382,-1.382,-1.4594,-1.5268,-1.5791,-1.5677,-1.5891,-1.6421,-1.6064,-1.5899,-1.5899,-1.5641,-1.5676,-1.5864,-1.5347,-1.591,-1.7118,-1.6625,-1.6627,-1.6914,-1.7188,-1.7289,-1.7306,-1.7771,-1.7811,-1.7658,-1.7658,-1.7479,-1.724,-1.7068,-1.6942,-1.6866,-1.6866,-1.6866,-1.6892,-1.6968,-1.6825,-1.6696,-1.6773,-1.6633,-1.6463,-1.6436,-1.6463,-1.6479,-1.6409,-1.6163,-1.5909,-1.5909,-1.5782,-1.5653,-1.5624,-1.5911,-1.5926,-1.5074,-1.4935,-1.478,-1.4365,-1.43,-1.43,-1.43,-1.43,-1.43,-1.43,-1.43,-1.4092,-1.3602,-1.3682,-1.3527,-1.2978,-1.3012,-1.2873,-1.252,-1.2294,-1.215,-1.2004,-1.1796,-1.166,-1.1586,-1.1586,-1.1549,0.0,0.0,0.0,0.0,0.0,0.0,-0.9617,0.0,-0.9452,-1.0791,-1.1068,-1.1028,-1.0855,-1.0958,-1.1574,-1.3024,-1.2968,-1.282,-1.3051,-1.3176,-1.3278,-1.3312,-1.3476,-1.3605,-1.3605,-1.3605,-1.3605,-1.3605,-1.3605,-1.3605,-1.3605,-1.3411,-1.3312,-1.3312,-1.4264,-1.4779,-1.4813,-1.5486,-1.5847,-1.5864,-1.5847,-1.583,-1.5813,-1.509,-1.5159,-1.5744,-1.4244,-1.4451,-1.583,-1.5864,-1.5881,-1.5968,-1.6691,-1.6967,-1.707,-1.7828,-1.8159,-1.8155,-1.8155,-1.7988,-1.7811,-1.7789,-1.7612,-1.7384,-1.7368,-1.7368,-1.7337,-1.706,-1.696,-1.691,-1.6644,-1.6581,-1.6596,-1.6528,-1.6501,-1.6474,-1.6409,-1.6425,-1.6382,-1.6398,-1.6386,-1.6347,-1.6222,-1.6222,-1.6222,-1.6194,-1.6194,-1.574,-1.4447,-1.43,-1.43,-1.43,-1.43,-1.43,-1.43,-1.43,-1.43,-1.43,-1.43,-1.4059,-1.3514,-1.3514,-1.3254,-1.2709,-1.252,-1.2413,-1.2413,-1.2186,-1.2004,-1.1811,-1.1811,-1.1712,-0.4656,0.0,0.0,0.0,0.0,0.0,0.0,0.0,-0.8647,-1.0144,-1.0458,-1.0617,-1.1141,-1.1161,-1.1279,-1.1846,-1.1858,-1.2001,-1.2574,-1.2706,-1.2925,-1.3457,-1.3573,-1.3605,-1.3605,-1.3605,-1.3605,0.0,-1.3605,-1.3605,-1.3605,-1.3557,-1.3526,-1.3526,-1.378,-1.4209,-1.4796,-1.4434,-1.452,-1.5107,-1.4503,-1.4227,-1.4227,-1.4036,-1.4036,-1.421,-1.3795,-1.3847,-1.4279,-1.4865,-1.5417,-1.5916,-1.6123,-1.6209,-1.6226,-1.645,-1.6863,-1.7308,-1.716,-1.7415,-1.7766,-1.7566,-1.7455,-1.7302,-1.6772,-1.683,-1.7003,-1.6617,-1.6257,-1.5964,-1.5889,-1.6244,-1.6596,-1.6596,-1.6554,-1.657,-1.6543,-1.6543,-1.6517,-1.6425,-1.6398,-1.6386,-1.6344,-1.6425,-1.6409,-1.6222,-1.6194,-1.574,-1.4447,-1.43,-1.43,-1.43,-1.43,-1.43,-1.43,-1.43,-1.4235,-1.4007,-1.4203,-1.4059,-1.3514,-1.3695,-1.3539,-1.299,-1.292,-1.2745,-1.2413,-1.2186,-1.2077,-1.2004,-1.1884,-1.1785,-0.5587,-0.5801,-0.6233,0.0,0.0,0.0,-0.7994,-0.7907,-0.789,0.0,-0.9737,-0.9876,-1.0354,-1.0343,-1.0288,-1.0416,-1.044,-1.082,-1.1892,-1.2048,-1.2189,-1.2621,-1.2949,-1.3139,-1.3139,-1.3415,-1.3605,-1.3605,-1.3605,-1.3605,-1.3605,-1.3605,-1.3605,-1.3605,-1.3605,-1.3829,-1.4278,-1.3829,-1.3847,-1.4278,-1.3829,-1.3605,-1.3605,-1.3605,-1.3605,-1.3605,-1.3605,-1.3605,-1.3639,-1.4106,-1.4554,-1.4969,-1.5314,-1.5434,-1.5486,-1.5778,-1.6174,-1.6517,-1.6416,-1.6646,-1.6965,-1.6838,-1.6778,-1.6694,-1.6252,-1.6335,-1.6459,-1.6065,-1.5944,-1.5895,-1.5895,-1.641,-1.6917,-1.6857,-1.6857,-1.6805,-1.6649,-1.6596,-1.657,-1.649,-1.649,-1.649,-1.649,-1.6543,-1.6517,-1.625,-1.6194,-1.574,-1.4447,-1.43,-1.43,-1.43,-1.43,-1.43,-1.43,-1.43,-1.4235,-1.4072,-1.4203,-1.4092,-1.3695,-1.3695,-1.3539,-1.3107,-1.299,-1.2815,-1.252,-1.2413,-1.2294,-1.2222,-1.2113,-1.2004,-0.682,-0.6854,-0.7061,-0.764,0.0,0.0,-0.8383,-0.7787,-0.7182,0.0,-0.884,-0.8857,-0.8943,-0.8971,-0.9005,-0.9092,-0.9109,-0.961,-1.1062,-1.127,-1.1304,-1.1391,-1.1978,-1.2379,-1.2379,-1.3035,-1.3484,-1.3484,-1.3553,-1.3605,-1.3605,-1.3605,-1.3605,-1.3605,-1.3605,-1.3605,-1.3605,-1.3605,-1.3605,-1.3605,-1.3605,-1.3605,-1.3605,-1.3605,-1.3605,-1.3605,-1.3605,-1.3605,-1.3605,-1.3605,-1.3605,-1.3674,-1.4382,-1.4675,-1.4744,-1.54,-1.5692,-1.5778,-1.5778,-1.583,-1.5899,-1.5899,-1.5899,-1.5881,-1.5795,-1.5811,-1.5788,-1.5542,-1.5854,-1.6303,-1.6303,-1.6832,-1.7353,-1.7224,-1.7166,-1.705,-1.6675,-1.6596,-1.6596,-1.6596,-1.6596,-1.6596,-1.6596,-1.6596,-1.6517,-1.625,-1.6194,-1.5797,-1.4655,-1.4511,-1.4447,-1.4332,-1.43,-1.43,-1.43,-1.43,-1.43,-1.43,-1.43,-1.4203,-1.3941,-1.3728,-1.3459,-1.3129,-1.285,-1.2709,-1.2709,-1.2709,-1.2603,-1.2449,-1.2413,-1.2294,-0.699,-0.7226,-0.7571,0.0,0.0,0.0,-0.7148,-0.701,-0.6889,0.0,-0.7251,-0.7424,-0.8019,-0.8166,-0.84,-0.9005,-0.9109,-0.9438,-1.0371,-1.0475,-1.067,-1.1322,-1.1529,-1.1615,-1.1615,-1.2275,-1.2707,-1.2707,-1.326,-1.3605,-1.3605,-1.3605,-1.3605,-1.3605,-1.3605,-1.3605,-1.3605,-1.3605,-1.3605,-1.3605,-1.3605,-1.3605,-1.3605,-1.3605,-1.3605,-1.3605,-1.3605,-1.3605,-1.3605,-1.3605,-1.3605,-1.3622,-1.3777,-1.3829,-1.3847,-1.4002,-1.4468,-1.5003,-1.5003,-1.54,-1.5899,-1.5899,-1.5899,-1.5778,-1.5193,-1.5273,-1.5522,-1.5325,-1.5752,-1.6303,-1.637,-1.6825,-1.7224,-1.7216,-1.6933,-1.6701,-1.6623,-1.6596,-1.6596,-1.6596,-1.6596,-1.6596,-1.6596,-1.6596,-1.6517,-1.625,-1.6194,-1.6095,-1.5854,-1.5826,-1.5433,-1.4415,-1.43,-1.43,-1.43,-1.43,-1.43,-1.43,-1.43,-1.4268,-1.4235,-1.417,-1.3927,-1.3425,-1.2955,-1.2709,-1.2709,-1.2709,-1.2674,-1.2639,-1.2484,-1.2365,-0.8128,-0.8238,0.0,-0.8045,0.0,0.0,0.0,-0.7631,-0.7458,-0.7856,-0.7631,-0.7588,-0.8356,-0.822,-0.8256,-0.9036,-0.9191,-0.9344,-0.9746,-0.9706,-0.9789,-1.0198,-1.0578,-1.0791,-1.0791,-1.1534,-1.2209,-1.2661,-1.3029,-1.3432,-1.3833,-1.3851,-1.3851,-1.3851,-1.3851,-1.3851,-1.3851,-1.3851,-1.3851,-1.3851,-1.3851,-1.3851,-1.3851,-1.3851,-1.3789,-1.3713,-1.3821,-1.3789,-1.3713,-1.3821,-1.3851,-1.3836,-1.3667,-1.3605,-1.3605,-1.3605,-1.3864,-1.4192,-1.4192,-1.4451,-1.4762,-1.4762,-1.4762,-1.4676,-1.4313,-1.4367,-1.4535,-1.4428,-1.5218,-1.6045,-1.5795,-1.6715,-1.7715,-1.7715,-1.7542,-1.7384,-1.7384,-1.7384,-1.7384,-1.7384,-1.7384,-1.724,-1.6686,-1.6596,-1.6517,-1.625,-1.6194,-1.6194,-1.6194,-1.6194,-1.5711,-1.4447,-1.43,-1.43,-1.43,-1.43,-1.43,-1.43,-1.43,-1.43,-1.43,-1.417,-1.3894,-1.3514,-1.3254,-1.3116,-1.3116,-1.2955,-1.2815,-1.2709,-1.2603,-1.2556,0.0,0.0,0.0,0.0,0.0,-0.8362,0.0,0.0,0.0,-0.8573,-0.8158,0.0,0.0,0.0,0.0,0.0,0.0,0.0,0.0,-0.9064,0.0,-0.9146,-0.9693,-1.0047,-1.0047,-1.0802,-1.1688,-1.2578,-1.2804,-1.3191,-1.3832,-1.4011,-1.41,-1.41,-1.41,-1.41,-1.41,-1.41,-1.41,-1.41,-1.41,-1.41,-1.41,-1.41,-1.4012,-1.3862,-1.4026,-1.4012,-1.3862,-1.404,-1.41,-1.4068,-1.3789,-1.3698,-1.3698,-1.3698,-1.3667,-1.3636,-1.3636,-1.362,-1.3605,-1.3636,-1.3636,-1.3636,-1.3605,-1.3605,-1.3639,-1.3795,-1.4727,-1.564,-1.5502,-1.6829,-1.8211,-1.8211,-1.8211,-1.8211,-1.8211,-1.8211,-1.8211,-1.8211,-1.8027,-1.7612,-1.6738,-1.6596,-1.6517,-1.6316,-1.6262,-1.6262,-1.6262,-1.6262,-1.5826,-1.4637,-1.4397,-1.4365,-1.4493,-1.4429,-1.4383,-1.4351,-1.4351,-1.4319,-1.43,-1.404,-1.3808,-1.3594,-1.3493,-1.3425,-1.3425,-1.3163,-1.292,-1.278,-1.2709,-1.2709,0.0,0.0,0.0,0.0,-0.9213,0.0,0.0,0.0,-0.7831,-0.7274,0.0,0.0,0.0,0.0,0.0,0.0,0.0,0.0,-0.9123,-0.8654,-0.8575,-0.9287,-0.9448,-0.9483,-0.9483,-1.0166,-1.0944,-1.1695,-1.2459,-1.2928,-1.3018,-1.3708,-1.41,-1.41,-1.41,-1.41,-1.41,-1.41,-1.41,-1.41,-1.41,-1.41,-1.41,-1.41,-1.41,-1.4068,-1.41,-1.41,-1.4068,-1.41,-1.41,-1.41,-1.4054,-1.404,-1.404,-1.404,-1.3923,-1.3789,-1.3789,-1.3698,-1.362,-1.3743,-1.3789,-1.3759,-1.3636,-1.3605,-1.3743,-1.4451,-1.4779,-1.521,-1.645,-1.7483,-1.8211,-1.8211,-1.8211,-1.8211,-1.8211,-1.8211,-1.8211,-1.8211,-1.7432,-1.6738,-1.6623,-1.6596,-1.6596,-1.657,-1.6543,-1.6543,-1.6543,-1.6543,-1.6203,-1.5268,-1.4651,-1.4556,-1.5147,-1.4902,-1.4669,-1.4483,-1.447,-1.442,-1.4287,-1.404,-1.3888,-1.3841,-1.3404,-1.3129,-1.3141,-1.2885,-1.285,-1.3037,-1.2815,-1.2709,0.0,0.0,0.0,0.0,0.0,0.0,-0.8859,0.0,-0.8654,0.0,0.0,0.0,0.0,0.0,0.0,0.0,-0.8921,0.0,0.0,0.0,-0.8069,0.0,0.0,0.0,-0.9455,-0.9762,-1.0257,-1.1125,-1.1525,-1.2162,-1.3079,-1.3442,-1.3841,-1.4313,-1.4331,-1.4331,-1.4331,-1.4331,-1.4331,-1.4331,-1.4325,-1.4325,-1.4331,-1.4381,-1.4325,-1.4219,-1.4338,-1.4356,-1.4293,-1.4368,-1.4393,-1.4393,-1.4393,-1.4275,-1.4101,-1.4132,-1.4105,-1.4019,-1.3987,-1.3945,-1.3902,-1.3966,-1.3966,-1.3938,-1.3774,-1.3728,-1.3767,-1.4034,-1.4434,-1.4831,-1.4986,-1.6607,-1.8211,-1.8211,-1.8211,-1.8211,-1.8211,-1.8211,-1.8022,-1.7384,-1.6917,-1.6596,-1.6596,-1.6596,-1.6596,-1.6596,-1.6596,-1.6596,-1.6596,-1.6596,-1.6448,-1.6093,-1.5796,-1.5767,-1.6024,-1.5711,-1.5315,-1.4876,-1.4627,-1.4452,-1.43,-1.4203,-1.4138,-1.4138,-1.3894,-1.3795,-1.3795,-1.3357,-1.322,-1.3323,-1.2908,-1.2709,-0.9699,0.0,0.0,0.0,0.0,0.0,0.0,0.0,0.0,0.0,0.0,0.0,0.0,0.0,0.0,-0.9176,0.0,-0.8694,0.0,-0.7855,0.0,0.0,0.0,0.0,0.0,-0.9591,-0.9844,-1.0526,-1.0783,-1.1407,-1.2582,-1.306,-1.3574,-1.415,-1.4389,-1.4488,-1.4488,-1.4488,-1.4488,-1.4488,-1.4492,-1.4492,-1.4499,-1.4567,-1.4526,-1.4386,-1.4537,-1.4545,-1.4458,-1.4567,-1.46,-1.46,-1.46,-1.4451,-1.4252,-1.4282,-1.4288,-1.425,-1.4206,-1.4175,-1.418,-1.415,-1.4123,-1.4096,-1.3923,-1.3818,-1.3759,-1.3652,-1.4051,-1.4415,-1.4051,-1.5435,-1.7159,-1.8004,-1.8211,-1.8211,-1.8211,-1.8211,-1.7961,-1.7191,-1.7043,-1.7043,-1.7043,-1.6789,-1.6596,-1.6596,-1.6596,-1.6596,-1.6596,-1.6596,-1.6596,-1.6596,-1.6596,-1.6596,-1.6596,-1.6328,-1.5868,-1.5209,-1.4797,-1.4529,-1.4461,-1.4461,-1.4461,-1.4461,-1.4351,-1.4319,-1.4319,-1.3848,-1.3648,-1.3615,-1.2978,-1.2709,0.0,0.0,0.0,-0.9717,0.0,0.0,0.0,0.0,-0.9489,0.0,0.0,0.0,0.0,0.0,-0.9376,-0.9394,-0.9489,0.0,0.0,0.0,0.0,0.0,0.0,0.0,0.0,-0.9692,-0.9703,0.0,-1.0461,-1.093,-1.0967,-1.2444,-1.3317,-1.3335,-1.4095,-1.4488,-1.4488,-1.4488,-1.4488,-1.4488,-1.4492,-1.4504,-1.4504,-1.4578,-1.46,-1.4589,-1.46,-1.46,-1.4589,-1.46,-1.46,-1.46,-1.4603,-1.4585,-1.4574,-1.4589,-1.4511,-1.4387,-1.4387,-1.4387,-1.4362,-1.4237,-1.4185,-1.4159,-1.404,-1.3865,-1.3713,-1.3698,-1.3715,-1.3906,-1.467,-1.431,-1.4503,-1.7504,-1.8211,-1.8211,-1.8211,-1.8211,-1.819,-1.8168,-1.8168,-1.8168,-1.8168,-1.7288,-1.6596,-1.6596,-1.6596,-1.6596,-1.6596,-1.6596,-1.6596,-1.6596,-1.6596,-1.6596,-1.6596,-1.6596,-1.6219,-1.5358,-1.4994,-1.4808,-1.4777,-1.4777,-1.4777,-1.4777,-1.4515,-1.4406,-1.4406,-1.4117,-1.4,-1.3967,-1.3104,-1.2709,0.0,0.0,-0.9991,-0.9875,0.0,0.0,0.0,0.0,0.0,0.0,0.0,0.0,0.0,0.0,-0.9575,-0.9481,-0.9165,-0.8695,0.0,0.0,0.0,0.0,0.0,0.0,0.0,0.0,0.0,-0.8941,-0.9658,0.0,-1.0875,-1.1425,-1.2206,-1.3262,-1.3555,-1.396,-1.4492,-1.4492,-1.4515,-1.4567,-1.4571,-1.4571,-1.4578,-1.464,-1.4632,-1.4603,-1.4651,-1.4661,-1.4661,-1.4661,-1.4661,-1.4661,-1.4672,-1.4672,-1.4672,-1.4661,-1.464,-1.4578,-1.4549,-1.4526,-1.4515,-1.4469,-1.4458,-1.4434,-1.4301,-1.4224,-1.4154,-1.406,-1.3966,-1.3965,-1.4229,-1.4385,-1.4846,-1.637,-1.7489,-1.8211,-1.8211,-1.8211,-1.8211,-1.8211,-1.8211,-1.8211,-1.8211,-1.7917,-1.7408,-1.6727,-1.6596,-1.6596,-1.6596,-1.6596,-1.6596,-1.6596,-1.6596,-1.6596,-1.6596,-1.649,-1.6246,-1.5841,-1.5418,-1.5149,-1.4996,-1.4856,-1.4808,-1.4808,-1.47,-1.4655,-1.4655,-1.4388,-1.4246,-1.4246,-1.3535,-1.322,-1.003,-1.0072,0.0,-0.996,-0.996,0.0,-0.9805,0.0,-0.9743,0.0,0.0,0.0,0.0,0.0,-0.9743,-0.9655,-0.9284,-0.86,0.0,-0.6833,0.0,0.0,0.0,0.0,0.0,-0.9171,-0.9208,-0.895,-0.9141,0.0,0.0,-1.0744,-1.1378,-1.2418,-1.3046,-1.362,-1.4138,-1.4476,-1.4648,-1.4658,-1.4688,-1.4717,-1.4707,-1.4747,-1.4756,-1.4709,-1.4738,-1.4766,-1.4766,-1.4746,-1.4736,-1.4726,-1.4703,-1.4701,-1.4701,-1.4701,-1.4701,-1.4683,-1.4643,-1.4632,-1.464,-1.464,-1.4589,-1.4545,-1.4464,-1.4387,-1.4356,-1.4268,-1.4177,-1.4109,-1.4109,-1.4385,-1.4931,-1.5972,-1.6867,-1.7661,-1.822,-1.8298,-1.8232,-1.8236,-1.8236,-1.8236,-1.8211,-1.8211,-1.7917,-1.7018,-1.6712,-1.6596,-1.6596,-1.6596,-1.6596,-1.6596,-1.6596,-1.6596,-1.6596,-1.6382,-1.6234,-1.6123,-1.5726,-1.5418,-1.5285,-1.5072,-1.4994,-1.4994,-1.4994,-1.4994,-1.4994,-1.4811,-1.4704,-1.4704,-1.4324,-1.4078]},{"header":{"parameterUnit":"m.s-1","parameterCategory":1,"la1":30.6,"la2":29.2853,"lo1":-89.7004,"lo2":-87.6739,"dy":0.0162,"dx":0.0183,"nx":112,"ny":82,"refTime":"2024-09-17T06:00:00:Z","depth":0,"parameterNumber":3,"parameterNumberName":"V-component_of_WINDS"},"data":[0.0,0.0,0.0,0.0,0.0,0.0,0.0,0.0,0.0,0.0,0.0,0.0,0.0,0.0,0.0,0.0,0.0,0.0,0.0,0.0,0.0,0.0,0.0,0.0,0.0,0.0,0.0,0.0,0.0,0.0,0.0,0.0,0.0,0.0,0.0,0.0,0.0,0.0,0.0,0.0,0.0,0.0,0.0,0.0,0.0,0.0,0.0,0.0,0.0,0.0,0.0,0.0,0.0,0.0,0.0,0.0,0.0,0.0,0.0,0.0,0.0,0.0,0.0,0.0,0.0,0.0,0.0,0.0,0.0,0.0,0.0,0.0,0.0,0.0,0.0,0.0,0.0,0.0,0.0,0.0,0.0,0.0,0.0,0.0,0.0,0.0,0.0,0.0,0.0,0.0,-1.0609,-1.3177,-1.4647,-1.546,-1.5574,-1.4725,-1.3575,-1.2079,0.0,0.0,0.0,0.0,0.0,0.0,0.0,0.0,0.0,0.0,0.0,0.0,0.0,0.0,0.0,0.0,0.0,0.0,0.0,0.0,0.0,0.0,0.0,0.0,0.0,0.0,0.0,0.0,0.0,0.0,0.0,0.0,0.0,0.0,0.0,0.0,0.0,0.0,0.0,0.0,0.0,0.0,0.0,0.0,0.0,0.0,0.0,0.0,0.0,0.0,0.0,0.0,0.0,0.0,0.0,0.0,0.0,0.0,0.0,0.0,0.0,0.0,0.0,0.0,0.0,0.0,0.0,0.0,0.0,0.0,0.0,0.0,0.0,0.0,0.0,0.0,0.0,0.0,0.0,0.0,0.0,0.0,0.0,0.0,0.0,0.0,0.0,0.0,0.0,0.0,0.0,0.0,0.0,0.0,0.0,0.0,0.0,0.0,0.0,0.0,0.0,0.0,0.0,0.0,-1.1755,-1.4813,-1.4803,-1.4852,-1.5465,-1.4143,-1.2934,-1.204,0.0,0.0,0.0,0.0,0.0,0.0,0.0,0.0,0.0,0.0,0.0,0.0,0.0,0.0,0.0,0.0,0.0,0.0,0.0,0.0,0.0,0.0,0.0,0.0,0.0,0.0,0.0,0.0,0.0,0.0,0.0,0.0,0.0,0.0,0.0,0.0,0.0,0.0,0.0,0.0,0.0,0.0,0.0,0.0,0.0,0.0,0.0,0.0,0.0,0.0,0.0,0.0,0.0,0.0,0.0,0.0,0.0,0.0,0.0,0.0,0.0,0.0,0.0,0.0,0.0,0.0,0.0,0.0,0.0,0.0,0.0,0.0,0.0,0.0,0.0,0.0,0.0,0.0,0.0,0.0,0.0,0.0,0.0,0.0,0.0,0.0,0.0,0.0,0.0,0.0,0.0,0.0,0.0,0.0,0.0,0.0,0.0,0.0,0.0,0.0,0.0,0.0,0.0,-1.1159,-1.3008,-1.5358,-1.5273,-1.5187,-1.5537,-1.4089,-1.2819,-1.2058,-1.0086,0.0,0.0,0.0,0.0,0.0,0.0,0.0,0.0,0.0,0.0,0.0,0.0,0.0,0.0,0.0,0.0,0.0,0.0,0.0,0.0,0.0,0.0,0.0,0.0,0.0,0.0,0.0,0.0,0.0,0.0,0.0,0.0,0.0,0.0,0.0,0.0,0.0,0.0,0.0,0.0,0.0,0.0,0.0,0.0,0.0,0.0,0.0,0.0,0.0,0.0,0.0,0.0,0.0,0.0,0.0,0.0,0.0,0.0,0.0,0.0,0.0,0.0,0.0,0.0,0.0,0.0,0.0,0.0,0.0,0.0,0.0,0.0,0.0,0.0,0.0,0.0,0.0,0.0,0.0,0.0,0.0,0.0,0.0,0.0,0.0,0.0,0.0,0.0,0.0,0.0,0.0,0.0,0.0,0.0,0.0,0.0,0.0,0.0,0.0,0.0,0.0,0.0,-1.2555,-1.3548,-1.5208,-1.5348,-1.5304,-1.5291,-1.4005,-1.2859,-1.2071,-0.9747,0.0,0.0,0.0,0.0,0.0,0.0,0.0,0.0,0.0,0.0,0.0,0.0,0.0,0.0,0.0,0.0,0.0,0.0,0.0,0.0,0.0,0.0,0.0,0.0,0.0,0.0,0.0,0.0,0.0,0.0,0.0,0.0,0.0,0.0,0.0,0.0,0.0,0.0,0.0,0.0,0.0,0.0,0.0,0.0,0.0,0.0,0.0,0.0,0.0,0.0,0.0,0.0,0.0,0.0,0.0,0.0,0.0,0.0,0.0,0.0,0.0,0.0,0.0,0.0,0.0,0.0,0.0,0.0,0.0,0.0,0.0,0.0,0.0,0.0,0.0,0.0,0.0,0.0,0.0,0.0,0.0,0.0,0.0,0.0,0.0,0.0,0.0,0.0,0.0,0.0,0.0,0.0,0.0,0.0,0.0,0.0,0.0,0.0,0.0,0.0,0.0,0.0,-1.2094,-1.2698,-1.432,-1.4484,-1.4453,-1.4409,-1.366,-1.2873,-1.2151,-0.9764,0.0,0.0,0.0,0.0,0.0,0.0,0.0,0.0,0.0,0.0,0.0,0.0,0.0,0.0,0.0,0.0,0.0,0.0,0.0,0.0,0.0,0.0,0.0,0.0,0.0,0.0,0.0,0.0,0.0,0.0,0.0,0.0,0.0,0.0,0.0,0.0,0.0,0.0,0.0,0.0,0.0,0.0,0.0,0.0,0.0,0.0,0.0,0.0,0.0,0.0,0.0,0.0,0.0,0.0,0.0,0.0,0.0,0.0,0.0,0.0,0.0,0.0,0.0,0.0,0.0,0.0,0.0,0.0,0.0,0.0,0.0,0.0,0.0,0.0,0.0,0.0,0.0,0.0,0.0,0.0,0.0,0.0,0.0,0.0,0.0,0.0,0.0,0.0,0.0,0.0,0.0,0.0,0.0,0.0,0.0,0.0,0.0,0.0,0.0,0.0,0.0,0.0,-1.2039,-1.2618,0.0,-1.4399,-1.4392,-1.4367,-1.3152,-1.2316,-1.2105,0.0,0.0,0.0,0.0,0.0,0.0,0.0,0.0,0.0,0.0,0.0,0.0,0.0,0.0,0.0,0.0,0.0,0.0,0.0,0.0,0.0,0.0,0.0,0.0,0.0,0.0,0.0,0.0,0.0,0.0,0.0,0.0,0.0,0.0,0.0,0.0,0.0,0.0,0.0,0.0,0.0,0.0,0.0,0.0,0.0,0.0,0.0,0.0,0.0,0.0,0.0,0.0,0.0,0.0,0.0,0.0,0.0,0.0,0.0,0.0,0.0,0.0,0.0,0.0,0.0,0.0,0.0,0.0,0.0,0.0,0.0,0.0,0.0,0.0,0.0,0.0,0.0,0.0,0.0,0.0,0.0,0.0,0.0,0.0,0.0,0.0,0.0,0.0,0.0,0.0,0.0,0.0,0.0,0.0,0.0,0.0,0.0,0.0,0.0,0.0,0.0,0.0,-1.1716,-1.2058,-1.2626,0.0,-1.4405,-1.4289,-1.4005,-1.2717,-1.1889,-1.1755,0.0,0.0,0.0,0.0,0.0,0.0,0.0,0.0,0.0,0.0,0.0,0.0,0.0,0.0,0.0,0.0,0.0,0.0,0.0,0.0,0.0,0.0,0.0,0.0,0.0,0.0,0.0,0.0,0.0,0.0,0.0,0.0,0.0,0.0,0.0,0.0,0.0,0.0,0.0,0.0,0.0,0.0,0.0,0.0,0.0,0.0,0.0,0.0,0.0,0.0,0.0,0.0,0.0,0.0,0.0,0.0,0.0,0.0,0.0,0.0,0.0,0.0,0.0,0.0,0.0,0.0,0.0,0.0,0.0,0.0,0.0,0.0,0.0,0.0,0.0,0.0,0.0,0.0,0.0,0.0,0.0,0.0,0.0,0.0,0.0,0.0,0.0,0.0,0.0,0.0,0.0,0.0,0.0,0.0,0.0,0.0,0.0,0.0,0.0,0.0,0.0,0.0,-1.178,-1.2077,-1.2611,-1.4235,-1.438,-1.4041,-1.3165,-1.2419,-1.17,0.0,0.0,0.0,0.0,0.0,0.0,0.0,0.0,0.0,0.0,0.0,0.0,0.0,0.0,0.0,0.0,0.0,0.0,0.0,0.0,0.0,0.0,0.0,0.0,0.0,0.0,0.0,0.0,0.0,0.0,0.0,0.0,0.0,0.0,0.0,0.0,0.0,0.0,0.0,0.0,0.0,0.0,0.0,0.0,0.0,0.0,0.0,0.0,0.0,0.0,0.0,0.0,0.0,0.0,0.0,0.0,0.0,0.0,0.0,0.0,0.0,0.0,0.0,0.0,0.0,0.0,0.0,0.0,0.0,0.0,0.0,0.0,0.0,0.0,0.0,0.0,0.0,0.0,0.0,0.0,0.0,0.0,0.0,0.0,0.0,0.0,0.0,0.0,0.0,0.0,0.0,0.0,0.0,0.0,0.0,0.0,0.0,0.0,0.0,0.0,0.0,0.0,0.0,-1.1777,-1.2039,-1.2542,-1.4174,-1.3829,-1.3376,-1.3129,-1.1854,-1.1059,-1.1007,0.0,0.0,0.0,0.0,0.0,0.0,0.0,0.0,0.0,0.0,0.0,0.0,0.0,0.0,0.0,0.0,0.0,0.0,0.0,0.0,0.0,0.0,0.0,0.0,0.0,0.0,0.0,0.0,0.0,0.0,0.0,0.0,0.0,0.0,0.0,0.0,0.0,0.0,0.0,0.0,0.0,0.0,0.0,0.0,0.0,0.0,0.0,0.0,0.0,0.0,0.0,0.0,0.0,0.0,0.0,0.0,0.0,0.0,0.0,0.0,0.0,0.0,0.0,0.0,0.0,0.0,0.0,0.0,0.0,0.0,0.0,0.0,0.0,0.0,0.0,0.0,0.0,0.0,0.0,0.0,0.0,0.0,0.0,0.0,0.0,0.0,0.0,0.0,0.0,0.0,0.0,0.0,0.0,0.0,0.0,0.0,0.0,0.0,0.0,0.0,0.0,0.0,-1.1778,-1.2029,-1.2513,-1.4131,-1.3582,-1.2966,-1.2658,-1.1427,-1.063,-1.0486,0.0,0.0,0.0,0.0,0.0,0.0,0.0,0.0,0.0,0.0,0.0,0.0,0.0,0.0,0.0,0.0,0.0,0.0,0.0,0.0,0.0,0.0,0.0,0.0,0.0,0.0,0.0,0.0,0.0,0.0,0.0,0.0,0.0,0.0,0.0,0.0,0.0,0.0,0.0,0.0,0.0,0.0,0.0,0.0,0.0,0.0,0.0,0.0,0.0,0.0,0.0,0.0,0.0,0.0,0.0,0.0,0.0,0.0,0.0,0.0,0.0,0.0,0.0,0.0,0.0,0.0,0.0,0.0,0.0,0.0,0.0,0.0,0.0,0.0,0.0,0.0,0.0,0.0,0.0,0.0,0.0,0.0,0.0,0.0,0.0,0.0,0.0,0.0,0.0,0.0,0.0,0.0,0.0,0.0,0.0,0.0,0.0,0.0,0.0,0.0,0.0,0.0,-1.1778,-1.2029,-1.2513,-1.4131,-1.3509,-1.2694,-1.1952,-1.1083,-1.0339,-0.9739,0.0,0.0,0.0,0.0,0.0,0.0,0.0,0.0,0.0,0.0,0.0,0.0,0.0,0.0,0.0,0.0,0.0,0.0,0.0,0.0,0.0,0.0,0.0,0.0,0.0,0.0,0.0,0.0,0.0,0.0,0.0,0.0,0.0,0.0,0.0,0.0,0.0,0.0,0.0,0.0,0.0,0.0,0.0,0.0,0.0,0.0,0.0,0.0,0.0,0.0,0.0,0.0,0.0,0.0,0.0,0.0,0.0,0.0,0.0,0.0,-0.6474,-0.6054,0.0,0.0,0.0,0.0,0.0,0.0,0.0,0.0,0.0,0.0,0.0,0.0,0.0,0.0,0.0,0.0,0.0,0.0,0.0,0.0,0.0,0.0,0.0,0.0,0.0,0.0,0.0,0.0,0.0,0.0,0.0,0.0,0.0,0.0,0.0,0.0,0.0,0.0,0.0,0.0,-1.1778,-1.2029,-1.2513,-1.4131,-1.302,-1.2079,-1.1916,-1.0584,-0.974,-0.9698,-0.8729,0.0,0.0,0.0,0.0,0.0,0.0,0.0,0.0,0.0,0.0,0.0,0.0,0.0,0.0,0.0,0.0,0.0,0.0,0.0,0.0,0.0,0.0,0.0,0.0,0.0,0.0,0.0,0.0,0.0,0.0,0.0,0.0,0.0,0.0,0.0,0.0,0.0,0.0,0.0,0.0,0.0,0.0,0.0,0.0,0.0,0.0,0.0,0.0,0.0,0.0,0.0,0.0,0.0,0.0,0.0,0.0,0.0,0.0,0.0,-0.7798,-0.7435,0.0,0.0,0.0,0.0,0.0,0.0,0.0,0.0,0.0,0.0,0.0,0.0,0.0,0.0,0.0,0.0,0.0,0.0,0.0,0.0,0.0,0.0,0.0,0.0,0.0,0.0,0.0,0.0,0.0,0.0,0.0,0.0,0.0,0.0,0.0,0.0,0.0,0.0,0.0,0.0,-1.1782,-1.2,-1.2513,-1.4131,-1.2857,-1.1898,-1.1898,-1.044,-0.9525,-0.9601,-0.8851,0.0,0.0,0.0,0.0,0.0,0.0,0.0,0.0,0.0,0.0,0.0,0.0,0.0,0.0,0.0,0.0,0.0,0.0,0.0,0.0,0.0,0.0,0.0,0.0,0.0,0.0,0.0,0.0,0.0,0.0,0.0,0.0,0.0,0.0,0.0,0.0,0.0,0.0,0.0,0.0,0.0,0.0,0.0,0.0,0.0,0.0,0.0,0.0,0.0,0.0,0.0,0.0,0.0,-0.8859,-0.8885,-0.9497,-0.8948,-0.9151,-0.9917,-0.9638,-0.9336,-0.901,-0.8453,0.0,0.0,0.0,0.0,0.0,0.0,0.0,0.0,0.0,0.0,0.0,0.0,0.0,0.0,0.0,0.0,0.0,0.0,0.0,0.0,0.0,0.0,-1.0019,-1.1354,-1.1601,-1.1229,-1.0104,0.0,0.0,0.0,0.0,0.0,0.0,0.0,0.0,0.0,0.0,0.0,-1.1783,-1.2087,-1.2676,-1.4131,-1.2984,-1.2042,-1.1916,-1.0548,-0.9653,-0.95,-0.8933,-0.8606,0.0,0.0,0.0,0.0,0.0,0.0,0.0,0.0,0.0,0.0,0.0,0.0,0.0,0.0,0.0,0.0,0.0,0.0,0.0,0.0,0.0,0.0,0.0,0.0,0.0,0.0,0.0,0.0,0.0,0.0,0.0,0.0,-0.4494,-0.4685,0.0,0.0,0.0,0.0,0.0,0.0,0.0,0.0,0.0,0.0,0.0,0.0,0.0,-0.8799,-0.9373,-0.9728,-1.0222,-1.0846,-1.1028,-1.143,-1.2034,-1.1926,-1.2245,-1.2845,-1.2798,0.0,-0.9638,-0.9041,0.0,0.0,0.0,0.0,0.0,0.0,0.0,0.0,0.0,0.0,0.0,0.0,0.0,0.0,0.0,0.0,0.0,0.0,0.0,0.0,0.0,0.0,-1.1689,-1.1905,-1.1603,-1.1401,-1.1958,-1.1276,-1.0286,-0.9361,-0.8763,-0.8136,0.0,0.0,0.0,0.0,0.0,0.0,-1.1782,-1.2568,-1.3292,-1.4203,-1.3491,-1.2658,-1.1952,-1.1065,-1.025,-0.9545,-0.94,-0.9413,-0.9525,-0.8807,0.0,0.0,0.0,0.0,0.0,0.0,0.0,0.0,0.0,0.0,0.0,0.0,0.0,0.0,0.0,0.0,0.0,0.0,0.0,0.0,0.0,0.0,0.0,0.0,0.0,0.0,0.0,0.0,0.0,-0.4969,-0.5655,-0.5596,-0.5845,-0.5852,0.0,0.0,0.0,0.0,0.0,0.0,0.0,0.0,0.0,-0.8741,-0.9553,-1.0068,-1.0263,-1.0736,-1.1115,-1.1398,-1.1728,-1.2007,-1.2283,-1.2482,-1.2789,-1.3168,-1.3168,-1.2665,-1.1755,-1.0857,-0.9944,-0.9126,0.0,0.0,0.0,0.0,-0.9315,-0.9769,-1.0616,-1.0954,-1.1031,-1.1131,0.0,0.0,0.0,0.0,0.0,0.0,0.0,-1.0917,-1.1565,-1.1915,-1.2221,-1.264,-1.2537,-1.2542,-1.311,-1.2811,-1.2133,-1.1061,-1.0947,-1.0531,-0.8873,-0.9334,0.0,0.0,0.0,-1.1342,-1.2477,-1.2898,-1.3419,-1.4203,-1.3582,-1.2767,-1.197,-1.1165,-1.0358,-0.9563,-0.95,-0.9525,-0.9593,-0.9286,-0.8927,0.0,0.0,0.0,0.0,0.0,0.0,0.0,0.0,0.0,0.0,0.0,0.0,0.0,0.0,0.0,0.0,0.0,0.0,0.0,0.0,0.0,0.0,0.0,0.0,0.0,0.0,0.0,0.0,-0.5772,-0.6571,-0.6378,-0.6837,-0.6923,0.0,0.0,0.0,0.0,0.0,0.0,-0.8581,-0.9377,-0.9875,-0.9955,-1.0644,-1.1039,-1.1119,-1.1588,-1.1864,-1.2015,-1.2268,-1.2438,-1.2528,-1.2871,-1.3204,-1.346,-1.3544,-1.3596,-1.354,-1.2364,-1.1355,-1.0533,-1.0571,-1.0635,-1.0689,-1.0689,-1.0921,-1.1284,-1.1937,-1.2241,-1.2397,-1.272,-1.2589,-1.2207,-1.1842,0.0,0.0,0.0,0.0,-1.2233,-1.284,-1.2992,-1.3093,-1.3481,-1.3616,-1.3683,-1.3778,-1.3848,-1.3559,-1.2412,-1.2656,-1.2444,-1.0494,-1.1158,0.0,-1.0358,0.0,-1.2487,-1.302,-1.3292,-1.3636,-1.4239,-1.3751,-1.3075,-1.2278,-1.1463,-1.0666,-0.9861,-0.9617,-0.95,-0.95,-0.9601,-0.9374,-0.8766,0.0,0.0,0.0,0.0,0.0,0.0,0.0,0.0,0.0,0.0,0.0,0.0,0.0,0.0,0.0,0.0,0.0,0.0,0.0,0.0,0.0,0.0,0.0,0.0,0.0,0.0,0.0,0.0,0.0,-0.6537,-0.7506,0.0,0.0,0.0,0.0,-0.9006,-0.9069,-0.9527,-1.0508,-1.0664,-1.0969,-1.1467,-1.1555,-1.1789,-1.2316,-1.2354,-1.263,-1.3123,-1.3144,-1.3302,-1.3624,-1.403,-1.4397,-1.4741,-1.5061,-1.4819,-1.4166,-1.2889,-1.2443,-1.2484,-1.1874,-1.177,-1.1979,-1.187,-1.2598,-1.3601,-1.3457,-1.3694,-1.4192,-1.4911,-1.42,-1.3073,-1.316,-1.2704,0.0,0.0,-1.4237,-1.4387,-1.5004,-1.5147,-1.5021,-1.4473,-1.4485,-1.4469,-1.3931,-1.3998,-1.3926,-1.3116,-1.2973,-1.2717,-1.1833,0.0,-1.1794,-1.1794,-1.2498,-1.3052,-1.3111,-1.3781,-1.4257,-1.4293,-1.4257,-1.3895,-1.3111,-1.2296,-1.1499,-1.0694,-0.9933,-0.95,-0.95,-0.9508,-0.9581,-0.972,-0.8921,0.0,0.0,0.0,0.0,0.0,0.0,0.0,0.0,0.0,0.0,0.0,0.0,0.0,0.0,0.0,0.0,0.0,0.0,0.0,0.0,0.0,0.0,0.0,0.0,0.0,0.0,0.0,0.0,-0.8066,-0.8817,0.0,-0.9063,-0.9215,-0.9554,-1.0106,-1.0183,-1.0483,-1.1236,-1.1613,-1.1933,-1.2115,-1.2467,-1.271,-1.2897,-1.2897,-1.2998,-1.3198,-1.3425,-1.3581,-1.3702,-1.4124,-1.4365,-1.4493,-1.4839,-1.4836,-1.461,-1.4342,-1.3843,-1.3117,-1.2947,-1.2932,-1.3004,-1.2995,-1.3299,-1.3782,-1.4006,-1.4225,-1.4487,-1.5089,-1.4927,-1.4516,-1.4571,-1.4391,-1.431,-1.4824,-1.4991,-1.5021,-1.5247,-1.5292,-1.5247,-1.5024,-1.5017,-1.5105,-1.5124,-1.5227,-1.5132,-1.4585,-1.4096,-1.3525,-1.2699,-1.2986,-1.3178,-1.268,-1.3293,-1.3797,-1.381,-1.4062,-1.4255,-1.4286,-1.4299,-1.3973,-1.3165,-1.2368,-1.1554,-1.0748,-0.9951,-0.95,-0.95,-0.95,-0.9534,-0.9599,-0.9379,-0.8883,0.0,0.0,0.0,0.0,0.0,0.0,0.0,0.0,0.0,0.0,0.0,0.0,0.0,0.0,0.0,0.0,0.0,0.0,0.0,0.0,0.0,0.0,0.0,0.0,0.0,-0.7605,-0.8704,-0.9059,-0.9901,-1.0395,-1.0194,-1.0357,-1.0696,-1.1219,-1.1257,-1.155,-1.2115,-1.2492,-1.2659,-1.2659,-1.322,-1.3509,-1.3509,-1.3697,-1.3697,-1.3509,-1.374,-1.3741,-1.3547,-1.3914,-1.4092,-1.4124,-1.4606,-1.4808,-1.4839,-1.5147,-1.4805,-1.4049,-1.4076,-1.4131,-1.4158,-1.4185,-1.4305,-1.4517,-1.5021,-1.5241,-1.5352,-1.5567,-1.5652,-1.5674,-1.5674,-1.5674,-1.5723,-1.5972,-1.6039,-1.6039,-1.6039,-1.6039,-1.5994,-1.5792,-1.5746,-1.5761,-1.586,-1.5864,-1.5782,-1.5535,-1.4979,-1.432,-1.35,-1.3805,-1.3979,-1.3484,-1.3861,-1.4221,-1.4229,-1.4198,-1.4229,-1.4291,-1.4304,-1.4069,-1.3552,-1.2513,-1.1662,-1.1147,-1.0096,-0.95,-0.95,-0.9542,-0.9575,-0.9599,-0.9441,-0.9095,-0.8526,0.0,0.0,0.0,0.0,0.0,0.0,0.0,0.0,0.0,0.0,0.0,0.0,0.0,0.0,0.0,0.0,0.0,0.0,0.0,0.0,0.0,0.0,0.0,-0.6551,-0.849,-0.9775,-0.9444,-1.0694,-1.1399,-1.0819,-1.1312,-1.1864,-1.2391,-1.2429,-1.2634,-1.3173,-1.3223,-1.3223,-1.3223,-1.3833,-1.411,-1.411,-1.4639,-1.4639,-1.411,-1.4097,-1.3808,-1.3223,-1.356,-1.3682,-1.3702,-1.4433,-1.4777,-1.4794,-1.5147,-1.5283,-1.5283,-1.5313,-1.5358,-1.5389,-1.5389,-1.5594,-1.5963,-1.6565,-1.6825,-1.6838,-1.6446,-1.6386,-1.6437,-1.6437,-1.6437,-1.6586,-1.7299,-1.7515,-1.7515,-1.7515,-1.7515,-1.7363,-1.6773,-1.6631,-1.6492,-1.5974,-1.5858,-1.5858,-1.5843,-1.5572,-1.5062,-1.426,-1.41,-1.4109,-1.4203,-1.4199,0.0,-1.4278,-1.4247,-1.4216,-1.4291,-1.4304,-1.4304,-1.4293,-1.2839,-1.1898,-1.1898,-1.0385,-0.95,-0.95,-0.9625,-0.9728,-0.9801,-0.91,-0.8682,-0.8588,0.0,0.0,0.0,0.0,0.0,0.0,0.0,0.0,0.0,0.0,0.0,0.0,0.0,0.0,0.0,0.0,0.0,0.0,0.0,0.0,0.0,-0.6838,-0.7839,-0.8248,-0.9186,-1.0225,-1.129,-1.1864,-1.2278,-1.2484,-1.2647,-1.281,-1.296,-1.2973,-1.3035,-1.3185,-1.3609,-1.3858,-1.3858,-1.44,-1.4689,-1.4689,-1.484,-1.484,-1.4676,-1.4274,-1.4009,-1.3846,-1.3478,-1.3323,-1.3357,-1.3815,-1.4013,-1.4046,-1.4669,-1.4932,-1.4963,-1.5222,-1.5313,-1.5328,-1.5328,-1.5536,-1.5853,-1.6062,-1.6443,-1.6809,-1.6708,-1.6832,-1.7058,-1.7122,-1.7122,-1.7195,-1.7425,-1.7515,-1.7515,-1.7515,-1.7515,-1.7448,-1.7303,-1.7253,-1.7255,-1.7236,-1.7267,-1.7181,-1.6912,-1.6343,-1.5621,-1.483,-1.4353,-1.4114,-1.4123,-1.4127,-1.4127,-1.4154,-1.4141,-1.415,-1.4216,-1.4229,-1.426,-1.4304,-1.2835,-1.1895,-1.1895,-1.0394,-0.95,-0.95,-0.9534,-0.9617,-0.9728,-0.9536,-0.9145,0.0,0.0,0.0,0.0,0.0,0.0,0.0,0.0,0.0,0.0,0.0,0.0,0.0,0.0,0.0,0.0,0.0,0.0,0.0,0.0,0.0,0.0,-0.7959,-0.9092,-0.9511,-1.0159,-1.1034,-1.2244,-1.2589,-1.2847,-1.3173,-1.3198,-1.3286,-1.3559,-1.3584,-1.3684,-1.391,-1.4261,-1.4437,-1.4437,-1.4966,-1.5255,-1.5255,-1.5442,-1.5442,-1.5255,-1.4928,-1.4651,-1.4412,-1.3822,-1.3584,-1.3594,-1.365,-1.3715,-1.3749,-1.4511,-1.4808,-1.4839,0.0,0.0,0.0,0.0,-1.5418,-1.5624,-1.5767,-1.609,-1.6443,-1.6712,-1.6984,-1.7216,-1.7395,-1.7443,-1.7443,-1.7491,-1.7515,-1.7515,-1.7515,-1.7515,-1.7515,-1.7515,-1.7515,-1.7522,-1.7646,-1.7669,-1.7625,-1.7407,-1.6607,0.0,-1.5349,-1.4616,-1.4114,-1.4145,-1.4114,-1.4114,-1.4145,-1.4114,-1.4127,-1.4195,-1.4195,-1.4221,-1.426,-1.3088,0.0,0.0,0.0,-0.9825,-0.955,-0.9532,0.0,0.0,0.0,0.0,0.0,0.0,0.0,0.0,-0.9308,-0.9643,0.0,0.0,0.0,0.0,0.0,0.0,0.0,0.0,0.0,0.0,0.0,0.0,0.0,0.0,0.0,0.0,-0.9014,-0.994,-1.0393,-1.1193,-1.1917,-1.2507,-1.2943,-1.3223,-1.3286,-1.3286,-1.3546,-1.4135,-1.4173,-1.4387,-1.4878,-1.4966,0.0,0.0,0.0,-1.5781,-1.5781,-1.6271,-1.6271,-1.5781,-1.5731,-1.5442,-1.4979,-1.4425,-1.4173,-1.4184,-1.3882,-1.3739,-1.3806,-1.4475,-1.4808,-1.4902,-1.5192,-1.5313,-1.5313,-1.5313,-1.5313,-1.5328,-1.5551,0.0,0.0,-1.6538,-1.6841,-1.7018,-1.7362,-1.7491,-1.7491,-1.7515,-1.7515,-1.7515,-1.7515,-1.7515,-1.7515,-1.7515,-1.7515,-1.7515,-1.7515,-1.7515,-1.7515,-1.7522,-1.6568,-1.579,-1.5827,-1.487,-1.4114,-1.419,-1.4145,-1.4114,-1.419,-1.4145,-1.4131,-1.419,0.0,0.0,-1.4203,-1.3466,-1.2693,-1.1992,-1.1183,-1.0466,-0.9865,-0.9855,-1.0191,-1.0913,-1.1047,-1.1396,-1.2001,-1.2059,-1.2142,-1.2216,-1.0865,-1.1093,0.0,0.0,0.0,0.0,0.0,0.0,0.0,0.0,0.0,0.0,0.0,0.0,0.0,0.0,0.0,-0.8685,-0.9284,-0.9939,-1.0782,-1.1399,-1.1962,-1.2389,-1.285,-1.3338,-1.3883,-1.3934,-1.416,-1.4714,-1.4752,-1.479,-1.4903,-1.5291,-1.5542,-1.5542,-1.607,-1.6358,-1.6358,-1.6471,-1.6459,-1.6358,-1.5906,0.0,-1.5517,-1.5004,-1.4752,-1.4727,-1.4234,-1.4029,-1.4027,-1.4279,-1.4714,-1.5222,-1.5283,-1.5313,-1.5313,-1.5313,-1.5313,-1.5313,-1.5358,-1.5536,-1.5796,-1.6188,-1.6512,-1.6841,-1.7216,-1.7371,0.0,-1.7491,-1.7515,-1.7515,-1.7515,-1.7515,-1.7515,-1.7515,-1.7515,-1.7515,-1.7515,-1.7515,-1.7545,-1.7715,-1.6551,-1.5658,-1.5992,-1.4965,-1.4114,-1.4114,-1.4114,-1.4114,-1.4114,-1.4114,-1.4131,-1.419,-1.419,-1.4204,-1.4204,-1.3446,-1.2926,-1.2789,-1.2012,-1.1503,-1.1391,-1.1432,-1.1535,-1.168,-1.1711,-1.1824,-1.2001,-1.2011,-1.2409,-1.3133,-1.2148,-1.2309,0.0,0.0,0.0,0.0,0.0,0.0,0.0,0.0,0.0,0.0,0.0,-0.6721,-0.7424,0.0,-0.8842,-0.9248,-0.9824,-1.0396,-1.0874,-1.1356,-1.1847,-1.2401,-1.2873,-1.3411,-1.4035,-1.4048,-1.4362,-1.5216,-1.5251,-1.5337,-1.568,-1.5957,-1.6107,-1.6107,-1.6371,-1.6522,-1.6522,-1.6522,-1.6522,-1.6522,-1.6233,-1.6107,-1.6082,-1.553,-1.5279,-1.5254,-1.4739,-1.45,-1.4525,-1.4637,-1.4948,-1.5313,-1.5313,-1.5313,-1.5313,-1.5313,-1.5313,-1.5313,-1.5313,-1.5403,-1.5638,-1.6093,-1.6394,-1.6649,-1.7207,-1.7371,-1.7395,-1.7491,-1.7515,-1.7515,-1.7515,-1.7515,-1.7515,-1.7515,-1.7515,-1.7515,-1.7515,-1.7515,-1.7522,-1.7622,-1.6483,-1.5561,-1.5772,-1.4772,-1.398,-1.4068,-1.41,-1.41,-1.41,-1.41,-1.4114,-1.4145,-1.4145,-1.4145,-1.4145,-1.3408,-1.2961,-1.2948,-1.2192,-1.1757,-1.1797,-1.183,-1.205,-1.2439,-1.248,-1.2713,-1.3145,-1.3138,-1.3384,-1.3835,-1.3391,-1.3565,0.0,0.0,0.0,0.0,0.0,0.0,0.0,0.0,-0.5819,-0.6198,-0.6798,-0.7467,-0.8192,-0.881,-0.9395,-0.9777,-1.0434,-1.0897,-1.0897,-1.1346,-1.1801,-1.2258,-1.272,-1.3307,-1.4112,-1.41,-1.4561,-1.5727,-1.5745,-1.5932,-1.6454,-1.6522,-1.6522,-1.6522,-1.6522,-1.6522,-1.6522,-1.6522,-1.6522,-1.6522,-1.6522,-1.6522,-1.6509,-1.6057,-1.5856,-1.5831,-1.5279,-1.5043,-1.5019,-1.5122,-1.5227,-1.5365,-1.5365,-1.5323,-1.5313,-1.5313,-1.5313,-1.5313,-1.5313,-1.5328,-1.5477,-1.6009,-1.6274,-1.649,-1.7092,-1.7322,-1.7395,-1.7443,-1.7467,-1.7491,-1.7491,-1.7491,-1.7515,-1.7515,-1.7515,-1.7515,-1.7515,-1.7515,-1.7515,-1.7515,-1.6514,-1.5647,-1.5516,-1.4641,-1.3994,-1.403,-1.4068,-1.41,-1.41,-1.41,-1.41,-1.41,-1.41,-1.41,-1.41,-1.3512,-1.3137,-1.3137,-1.2513,-1.218,-1.2251,-1.2251,-1.258,-1.322,-1.3293,-1.3624,-1.4273,-1.4268,-1.4281,-1.4281,-1.4281,-1.4451,-0.368,-0.4159,-0.4509,-0.4603,-0.4917,-0.5326,0.0,0.0,-0.7262,-0.7612,-0.8537,-0.9317,-0.9401,-0.9807,-1.0283,-1.0693,-1.0851,-1.0922,-1.0922,-1.1667,-1.2064,-1.1734,-1.2054,-1.2889,-1.4393,-1.4571,-1.5097,-1.6218,-1.6348,-1.6416,-1.6522,-1.6522,-1.6522,-1.6522,-1.6522,-1.6522,-1.6522,-1.6522,-1.6522,-1.6522,-1.6522,-1.6522,-1.6522,-1.6459,-1.6421,-1.6396,-1.5844,-1.5515,-1.5335,-1.5345,-1.5461,-1.559,-1.559,-1.5446,-1.5313,-1.5313,-1.5313,-1.5313,-1.5313,-1.5313,-1.5358,-1.5667,-1.5994,-1.6367,-1.6686,-1.7025,-1.7306,-1.7306,-1.7371,-1.7411,-1.7411,-1.7443,-1.7515,-1.7515,-1.7515,-1.7515,-1.7515,-1.7515,-1.7515,-1.7515,-1.6858,-1.612,-1.558,-1.4997,-1.4432,-1.3909,-1.3998,-1.41,-1.41,-1.41,-1.41,-1.41,-1.41,-1.41,-1.41,-1.4011,-1.3957,-1.3957,-1.3868,-1.3828,-1.3846,-1.3891,-1.3971,-1.406,-1.4064,-1.4126,-1.4216,-1.4198,-1.4198,-1.4198,-1.4198,-1.4368,-0.4309,-0.4774,-0.5116,0.0,-0.5758,-0.6161,-0.6282,-0.7013,-0.7815,-0.8177,-0.8984,-0.9687,-0.9972,-1.0156,-1.042,0.0,-1.0908,-1.0991,-1.1226,-1.1591,-1.1847,-1.1904,-1.2054,-1.2864,-1.4481,-1.4631,-1.5129,-1.6348,-1.6436,-1.6479,-1.6522,-1.6479,-1.6436,-1.6436,-1.6362,-1.6362,-1.6436,-1.6436,-1.6479,-1.6522,-1.6522,-1.6522,-1.6522,-1.6522,-1.6522,-1.6509,-1.6271,-1.6049,-1.5867,-1.5867,-1.5992,-1.6145,-1.5761,-1.5683,-1.5792,-1.5443,-1.5313,-1.5313,-1.5313,-1.5313,-1.5328,-1.5609,-1.5796,-1.605,-1.6565,-1.6815,-1.6984,-1.7216,-1.7306,-1.7346,-1.7346,-1.7371,-1.7378,-1.7419,-1.7443,-1.7443,-1.7491,-1.7515,-1.7515,-1.7515,-1.6901,-1.6326,-1.6075,-1.5553,-1.508,-1.4828,-1.4399,-1.41,-1.41,-1.41,-1.41,-1.41,-1.41,-1.41,-1.41,-1.41,-1.41,-1.41,-1.41,-1.41,-1.41,-1.4131,-1.4145,-1.4145,-1.4186,-1.4213,-1.4213,-1.4203,-1.4198,-1.4198,-1.4198,-1.4518,-0.4672,-0.5118,-0.548,-0.5831,-0.6402,-0.6812,-0.6762,-0.7481,-0.8296,-0.8711,-0.9319,-0.9903,-1.0244,-1.0283,-1.0459,-1.1006,-1.1084,-1.1207,-1.162,-1.1778,-1.1922,-1.2069,-1.2146,-1.2753,-1.4262,-1.4526,-1.5101,-1.6262,-1.6349,-1.6362,-1.6392,-1.6362,-1.6362,-1.6362,-1.6231,-1.6275,-1.6392,-1.6392,-1.6436,-1.6522,-1.6522,-1.6522,-1.6522,-1.6522,-1.6522,-1.6522,-1.6522,-1.641,-1.6263,-1.6263,-1.644,-1.6631,-1.6152,-1.6168,-1.6401,-1.5792,-1.5458,-1.5313,-1.5313,-1.5313,-1.5328,-1.5536,-1.5638,-1.5796,-1.6282,-1.6538,-1.6738,-1.7025,-1.7183,-1.7273,-1.7273,-1.7298,-1.7306,-1.7346,-1.7387,-1.7395,-1.7467,-1.7491,-1.7515,-1.7515,-1.7084,-1.6636,-1.6437,-1.6067,-1.5738,-1.5536,-1.4795,-1.4288,-1.4332,-1.4197,-1.41,-1.41,-1.41,-1.41,-1.41,-1.41,-1.41,-1.41,-1.41,-1.41,-1.41,-1.41,-1.41,-1.41,-1.4145,-1.4159,-1.4159,-1.4163,-1.4177,-1.4177,-1.4177,-1.4625,-0.4672,-0.5154,-0.5695,-0.6175,-0.6739,-0.7292,-0.774,-0.845,-0.9079,-0.9491,-0.9942,-1.0283,-1.0283,-1.0283,-1.0557,-1.1449,-1.1587,-1.1734,-1.2129,-1.2503,-1.262,-1.2171,-1.2092,-1.2542,-1.3599,-1.4249,-1.498,-1.5959,-1.6144,-1.62,-1.62,-1.62,-1.62,-1.62,-1.62,-1.6275,-1.6392,-1.6392,-1.6436,-1.6522,-1.6522,-1.6522,-1.6522,-1.6522,-1.6522,-1.6522,-1.6522,-1.6509,-1.6484,-1.6484,-1.6656,-1.688,-1.6867,-1.6981,-1.7098,-1.643,-1.5806,-1.5313,-1.5313,-1.5313,-1.5313,-1.5313,-1.5492,-1.571,-1.571,-1.6133,-1.6623,-1.6623,-1.6914,-1.7199,-1.7199,-1.7248,-1.7306,-1.7306,-1.7346,-1.7411,-1.7395,-1.7443,-1.7515,-1.7515,-1.7482,-1.7249,-1.652,-1.649,-1.6311,-1.562,-1.5031,-1.4727,-1.4857,-1.4427,-1.41,-1.41,-1.41,-1.41,-1.41,-1.41,-1.41,-1.41,-1.41,-1.41,-1.41,-1.41,-1.41,-1.41,-1.41,-1.41,-1.41,-1.4114,-1.4114,-1.4114,-1.4114,-1.4542,-0.546,0.0,-0.6427,-0.6789,-0.7462,-0.8037,-0.8198,-0.8833,-0.943,-0.9579,-0.9725,-0.9853,-0.9853,-0.9853,-1.0127,-1.0986,-1.141,-1.1763,-1.2122,-1.2848,-1.2936,-1.1836,-1.2518,-1.31,-1.3156,-1.3732,-1.4506,-1.554,-1.5957,-1.62,-1.62,-1.6144,-1.6044,-1.6044,-1.6044,-1.6132,-1.6275,-1.6362,-1.6436,-1.6522,-1.6522,-1.6522,-1.6522,-1.6522,-1.6522,-1.6522,-1.6522,-1.6522,-1.6522,-1.6522,-1.6902,-1.7463,-1.707,-1.7288,-1.7737,-1.6619,-1.6082,-1.585,-1.5443,-1.5313,-1.5313,-1.5313,-1.5358,-1.5463,-1.5638,-1.5994,-1.6367,-1.6554,-1.6847,-1.7149,-1.7149,-1.7158,-1.7183,-1.7224,-1.7248,-1.7273,-1.7322,-1.7354,-1.7395,-1.7419,-1.7419,-1.7361,-1.716,-1.7163,-1.6959,-1.6208,-1.5295,-1.4571,-1.4211,-1.4006,-1.3952,-1.41,-1.41,-1.41,-1.41,-1.41,-1.41,-1.41,-1.41,-1.41,-1.41,-1.41,-1.41,-1.41,-1.41,-1.41,-1.41,-1.41,-1.41,-1.41,-1.4649,-1.5291,-0.6051,-0.6485,-0.6878,-0.7666,-0.8224,-0.8681,-0.9006,-0.9482,-0.9796,-0.9627,-0.9591,-0.9554,-0.9398,-0.9369,-0.9699,-1.0742,-1.1143,-1.1592,-1.2353,-1.296,-1.2985,-1.2067,-1.2645,-1.3131,-1.315,-1.3373,-1.4019,-1.5196,-1.578,-1.6069,-1.6069,-1.5969,-1.5913,-1.5913,-1.6001,-1.6044,-1.62,-1.6318,-1.6436,-1.6522,-1.6522,-1.6522,-1.6522,-1.6522,-1.6522,-1.6522,-1.6522,-1.6522,-1.6522,-1.6522,-1.6934,-1.7558,-1.7143,-1.7543,-1.8143,-1.6838,-1.643,-1.6445,-1.5603,-1.5313,-1.5313,-1.5313,-1.5313,-1.5328,-1.5507,-1.5868,-1.6231,-1.6394,-1.6769,-1.7108,-1.7108,-1.7108,-1.7108,-1.7149,-1.7174,-1.7199,-1.7248,-1.7281,-1.7306,-1.7346,-1.7346,-1.7371,-1.7403,-1.7443,-1.712,-1.6155,-1.5378,-1.4707,-1.4088,-1.3839,-1.3774,-1.3909,-1.3909,-1.3938,-1.3998,-1.398,-1.4026,-1.41,-1.41,-1.41,-1.41,-1.41,-1.41,-1.41,-1.41,-1.41,-1.41,-1.41,-1.41,-1.4118,-1.4934,-1.5702,-0.6435,-0.6687,-0.7107,-0.8593,-0.9028,-0.9245,-1.0065,-1.0298,-1.018,-0.9664,-0.9524,-0.9369,-0.8984,-0.8945,-0.9385,-1.0635,-1.0898,-1.1396,-1.2695,-1.2886,-1.2832,0.0,0.0,0.0,-1.3443,-1.3239,-1.3566,-1.4937,-1.5468,-1.5748,-1.5748,-1.5748,-1.5792,-1.5792,-1.5913,-1.6044,-1.62,-1.6318,-1.6436,-1.6479,-1.6479,-1.6479,-1.6479,-1.6479,-1.6522,-1.6522,-1.6522,-1.6522,-1.6522,-1.6522,-1.6778,-1.7199,-1.7199,-1.772,-1.8359,-1.7076,-1.69,-1.7069,-1.5806,-1.5342,-1.5313,-1.5313,-1.5313,-1.5313,-1.5313,-1.5711,-1.6203,-1.6203,-1.6623,-1.7108,-1.7108,-1.7108,-1.7108,-1.7108,-1.7149,-1.7174,-1.7174,-1.7248,-1.7281,-1.7281,-1.7306,-1.7306,-1.7306,-1.7346,-1.6957,-1.5624,-1.5375,-1.5104,-1.4441,-1.3905,-1.3589,-1.3605,-1.3605,-1.3652,-1.3789,-1.3803,-1.3894,-1.41,-1.41,-1.41,-1.41,-1.41,-1.41,-1.41,-1.41,-1.41,-1.41,-1.41,-1.41,-1.4118,-1.4952,-1.5719,-0.6836,-0.7375,-0.793,-0.8311,-0.9133,-0.9781,-0.9744,-1.0004,-1.0079,-0.931,-0.8629,-0.8055,-0.7666,-0.8105,-0.8848,-0.9768,-1.0762,0.0,-1.2744,-1.3195,0.0,-1.2441,0.0,-1.3047,-1.2604,-1.3109,0.0,-1.3978,-1.4398,-1.4869,-1.5244,-1.5289,-1.5424,-1.5792,-1.5913,-1.6044,-1.6044,-1.6188,-1.6275,-1.6275,-1.6275,-1.6318,-1.6436,-1.6436,-1.6436,-1.6522,-1.6522,-1.6522,-1.6522,-1.6522,-1.6778,-1.7199,-1.7199,-1.772,-1.8416,-1.7567,-1.7555,-1.7766,-1.6445,-1.569,-1.5313,-1.5313,-1.5313,-1.5313,-1.5313,-1.5711,-1.6203,-1.6203,-1.6623,-1.7108,-1.7108,-1.7108,-1.7108,-1.7108,-1.7108,-1.7149,-1.7149,-1.7133,-1.7174,-1.7224,-1.7273,-1.7306,-1.7371,-1.7387,-1.7304,-1.6977,-1.647,-1.5504,-1.3801,-1.3464,-1.3428,-1.3589,-1.3605,-1.3652,-1.3789,-1.3803,-1.3894,-1.41,-1.41,-1.41,-1.41,-1.41,-1.41,-1.41,-1.41,-1.41,-1.41,-1.41,-1.41,-1.4118,-1.5487,-1.6219,-0.7338,-0.801,-0.8666,-0.9258,-0.9939,-1.0348,-0.9938,-0.9941,-0.9648,-0.8418,-0.7783,-0.7314,-0.6875,-0.7353,-0.8154,0.0,0.0,0.0,-1.2441,-1.2984,-1.311,0.0,-1.2954,0.0,-1.2849,-1.3287,-1.3621,-1.3621,-1.4025,-1.4536,-1.5062,-1.5108,-1.5334,-1.5792,-1.5913,-1.6044,-1.61,-1.6144,-1.62,-1.62,-1.6275,-1.6318,-1.6392,-1.6436,-1.6479,-1.6522,-1.6522,-1.6522,-1.6522,-1.6522,-1.665,-1.6892,-1.6892,-1.7421,-1.8118,-1.747,-1.765,-1.8056,-1.7011,-1.6227,-1.5661,-1.54,-1.5313,-1.5313,-1.5313,-1.5624,-1.5994,-1.6176,-1.6543,-1.6898,-1.7057,-1.7108,-1.7108,-1.7108,-1.7108,-1.7108,-1.7108,-1.7108,-1.7108,-1.7149,-1.7199,-1.7232,-1.7298,-1.7346,-1.7256,-1.7014,-1.6646,-1.5866,-1.4364,-1.4182,-1.4101,-1.3887,-1.3853,-1.3803,-1.3606,-1.3588,-1.368,-1.3952,-1.3966,-1.4012,-1.41,-1.41,-1.41,-1.41,-1.41,-1.41,-1.41,-1.41,-1.4292,-1.4667,-1.5844,-1.6594,-0.7937,-0.8601,-0.9421,-1.0499,-1.0902,-1.0841,-1.0289,-0.9865,-0.9028,-0.7363,0.0,-0.6787,-0.6318,-0.666,-0.7432,-0.8711,0.0,-1.0754,-1.2132,-1.2691,-1.3006,-1.2968,-1.2968,-1.3113,-1.3478,-1.3525,-1.3525,-1.3525,-1.3894,-1.4351,-1.4869,-1.4971,-1.5244,-1.5792,-1.5913,-1.6044,-1.6156,-1.6156,-1.6156,-1.6156,-1.6262,-1.6362,-1.6392,-1.6436,-1.6479,-1.6522,-1.6522,-1.6522,-1.6522,-1.6522,-1.6522,-1.6522,-1.6522,-1.7005,-1.7733,-1.7219,-1.7576,-1.8216,-1.7461,-1.6822,-1.6242,-1.5632,-1.5385,-1.5313,-1.5313,-1.5492,-1.5767,-1.605,-1.6367,-1.6675,-1.6965,-1.7083,-1.7108,-1.7108,-1.7108,-1.7108,-1.7108,-1.7108,-1.7108,-1.7108,-1.7108,-1.7108,-1.7174,-1.7248,-1.7109,-1.6532,-1.6485,-1.6298,-1.5674,-1.5408,-1.506,-1.441,-1.436,-1.4105,-1.3497,-1.3447,-1.3546,-1.3759,-1.3789,-1.3877,-1.4054,-1.41,-1.41,-1.41,-1.41,-1.41,-1.41,-1.4221,-1.4631,-1.5309,-1.6165,-1.6933,-0.861,-0.9282,-0.9962,-1.0165,-1.0784,-1.1013,-0.9903,-0.9374,0.0,0.0,-0.625,-0.5879,-0.5409,-0.5973,-0.6953,-0.8271,-0.9456,-1.0853,-1.2611,-1.3202,-1.3482,0.0,-1.3478,-1.3344,-1.3065,-1.3017,0.0,0.0,-1.3113,-1.3344,-1.3847,-1.4212,-1.4858,-1.5792,-1.5836,-1.5836,-1.5881,-1.5881,-1.5881,-1.5881,-1.6001,-1.6132,-1.6231,-1.6362,-1.6436,-1.6522,-1.6522,0.0,-1.6522,-1.6522,-1.6522,-1.6522,-1.6522,-1.7005,-1.7787,-1.7679,-1.819,-1.8782,-1.7606,-1.7127,-1.6924,-1.6271,-1.5719,-1.5313,-1.5313,-1.5492,-1.571,-1.5767,-1.6176,-1.6623,-1.6675,-1.6873,-1.7108,-1.7108,-1.7108,-1.7108,-1.7108,-1.7108,-1.7108,-1.7108,-1.7108,-1.7108,-1.7174,-1.7199,-1.7216,-1.7206,-1.7214,-1.7212,-1.7127,-1.6055,-1.5242,-1.5126,-1.511,-1.4855,-1.4255,-1.4206,-1.4041,-1.3655,-1.3743,-1.3818,-1.3848,-1.4012,-1.41,-1.41,-1.41,-1.41,-1.41,-1.4774,-1.5166,-1.5327,-1.6753,-1.7467,-0.903,-0.9611,-1.0179,-1.0449,-1.0656,-1.0497,-0.9216,0.0,0.0,0.0,-0.5565,-0.5381,-0.5146,-0.573,0.0,-0.7568,-0.8671,-0.999,-1.1695,-1.2489,-1.3007,-1.316,-1.3429,-1.343,-1.2929,-1.3113,-1.3152,-1.2929,-1.3113,-1.3478,-1.3941,-1.4674,-1.5277,-1.5792,-1.5792,-1.5792,-1.5792,-1.5792,-1.5792,-1.5792,-1.6013,-1.6144,-1.62,-1.6362,-1.6479,-1.6522,-1.6522,-1.6522,-1.6522,-1.6522,-1.6522,-1.6522,-1.6522,-1.6892,-1.7516,-1.772,-1.8226,-1.8693,-1.797,-1.749,-1.7098,-1.643,-1.5806,-1.5313,-1.5313,-1.5388,-1.5507,-1.5667,-1.6022,-1.6421,-1.657,-1.6847,-1.7108,-1.7108,-1.7108,-1.7108,-1.7108,-1.7108,-1.7108,-1.7108,-1.7108,-1.7108,-1.7149,-1.7174,-1.724,-1.7289,-1.7363,-1.7411,-1.7443,-1.6862,-1.6304,-1.5906,-1.5873,-1.56,-1.4931,-1.4864,-1.4622,-1.4059,-1.4452,-1.4606,-1.4432,-1.4881,-1.5188,-1.5291,-1.5309,-1.5309,-1.5309,-1.5684,-1.6076,-1.652,-1.7271,-1.7807,-0.9372,-0.993,-1.0349,-1.0775,-1.0596,-0.9951,-0.8705,-0.7715,0.0,-0.538,-0.5108,-0.5108,-0.5166,-0.5583,-0.6237,0.0,-0.8019,-0.9235,-1.092,-1.1972,-1.2711,0.0,-1.347,0.0,-1.3113,-1.3296,0.0,-1.2929,-1.343,-1.3894,-1.4294,-1.504,-1.5558,-1.5792,-1.5792,-1.5792,-1.5792,-1.5792,-1.5792,-1.5792,-1.6057,-1.6144,-1.6144,-1.6392,-1.6479,-1.6479,-1.6479,-1.6522,-1.6522,-1.6522,-1.6522,-1.6522,-1.6522,-1.6778,-1.724,-1.7557,-1.8028,-1.844,-1.8028,-1.758,-1.7069,-1.6271,-1.569,-1.5313,-1.5313,-1.5313,-1.5328,-1.5566,-1.5839,-1.6148,-1.6367,-1.6701,-1.6991,-1.7083,-1.7108,-1.7108,-1.7108,-1.7108,-1.7108,-1.7108,-1.7108,-1.7108,-1.7108,-1.7149,-1.7174,-1.7215,-1.7289,-1.7363,-1.7411,-1.7443,-1.7259,-1.6702,-1.6636,-1.6337,-1.5591,-1.5541,-1.5275,-1.4678,-1.5201,-1.5405,-1.5207,-1.5783,-1.6167,-1.6333,-1.6381,-1.6397,-1.6397,-1.6576,-1.6968,-1.761,-1.7788,-1.8199,-0.9944,-1.0426,-1.0826,-1.0867,-1.0596,-0.9951,-0.8705,0.0,-0.6729,-0.538,-0.5108,-0.5166,-0.5328,-0.5427,-0.5961,-0.7496,0.0,-0.9276,-1.1651,-1.2822,-1.3588,-1.4107,0.0,0.0,-1.3563,-1.32,-1.2929,-1.2881,-1.3705,-1.4247,-1.4305,-1.4398,-1.4858,-1.5792,-1.5792,-1.5792,-1.5792,-1.5792,-1.5792,-1.5792,-1.5957,-1.6044,-1.6044,-1.6306,-1.6392,-1.6392,-1.6479,-1.6522,0.0,-1.6522,-1.6522,-1.6522,-1.6522,-1.6778,-1.7199,-1.724,-1.7787,-1.8331,-1.7162,-1.6935,-1.7011,-1.5792,-1.5356,-1.5313,-1.5313,-1.5313,-1.5313,-1.5343,-1.5536,-1.5739,-1.5767,-1.6215,-1.6727,-1.7032,-1.7108,-1.7108,-1.7108,-1.7108,-1.7108,-1.7108,-1.7108,-1.7108,-1.7108,-1.7108,-1.7149,-1.7174,-1.7199,-1.7265,-1.7371,-1.7411,-1.7403,-1.7392,-1.7415,-1.71,-1.637,-1.6304,-1.608,-1.5513,-1.5508,-1.5603,-1.5816,-1.5993,-1.6098,-1.6116,-1.63,-1.6397,-1.6397,-1.7129,-1.7538,-1.7628,-1.836,-1.8717,-0.959,-1.0089,-1.0448,-1.0537,-1.002,-0.9248,-0.8223,0.0,-0.6387,-0.5322,-0.5108,-0.5166,-0.5366,-0.5499,-0.589,-0.6803,0.0,0.0,-0.9574,-1.0661,-1.1675,-1.2735,-1.3425,0.0,0.0,0.0,-1.3344,-1.3344,-1.3658,-1.4118,-1.4731,-1.5051,-1.5379,-1.5792,-1.5792,-1.5792,-1.5792,-1.5792,-1.5792,-1.5792,-1.5957,-1.5988,-1.5988,-1.6262,-1.6392,-1.6392,-1.6479,-1.6522,0.0,-1.6522,-1.6522,-1.6522,-1.6522,-1.6405,-1.6309,-1.6595,-1.6718,-1.662,-1.6215,-1.616,-1.6198,-1.5527,-1.5313,-1.5313,-1.5313,-1.5313,-1.5313,-1.5313,-1.5477,-1.571,-1.571,-1.6133,-1.6623,-1.6769,-1.694,-1.7108,-1.7108,-1.7108,-1.7108,-1.7108,-1.7108,-1.7108,-1.7108,-1.7108,-1.7108,-1.7149,-1.7174,-1.724,-1.7273,-1.7322,-1.7371,-1.7419,-1.7467,-1.7382,-1.71,-1.7067,-1.678,-1.6118,-1.6593,-1.6795,-1.6555,-1.7179,-1.7592,-1.7719,-1.779,-1.7843,-1.786,-1.8164,-1.8324,-1.8324,-1.8663,-1.8788,-0.93,-0.9779,-1.0002,-1.0254,-0.9639,-0.8779,0.0,-0.7014,-0.6162,-0.5283,-0.5108,-0.5185,-0.5442,-0.5611,-0.5906,-0.6511,0.0,-0.7251,-0.8483,-0.9543,-1.0665,-1.1976,0.0,-1.3524,-1.3563,-1.3585,-1.3621,-1.3621,-1.3894,-1.4362,-1.5062,-1.557,-1.5792,-1.5792,-1.5792,-1.5792,-1.5792,-1.5792,-1.5792,-1.5792,-1.5913,-1.5957,-1.5957,-1.6175,-1.6262,-1.6306,-1.6436,-1.6479,0.0,-1.6479,-1.6522,-1.6522,-1.6522,-1.6183,-1.5734,-1.6057,-1.588,-1.5504,-1.5517,-1.5613,-1.5646,-1.5379,-1.5313,-1.5313,-1.5313,-1.5313,-1.5313,-1.5313,-1.5433,-1.5609,-1.5681,-1.6022,-1.6394,-1.657,-1.6795,-1.6991,-1.7083,-1.7108,-1.7108,-1.7108,-1.7108,-1.7108,-1.7108,-1.7108,-1.7108,-1.7108,-1.7149,-1.7174,-1.7215,-1.7273,-1.7346,-1.7387,-1.7467,-1.7515,-1.7515,-1.7515,-1.7306,-1.6842,-1.7384,-1.7574,-1.7247,-1.7928,-1.8365,-1.8505,-1.8639,-1.8714,-1.8714,-1.8769,-1.8788,-1.8788,-1.8788,-1.8788,-0.9252,-0.9602,-0.9709,-1.0176,-0.9639,-0.8779,-0.789,-0.7014,-0.6162,-0.5283,-0.5108,-0.5224,-0.563,-0.5704,-0.6008,-0.6944,-0.7087,0.0,-0.9257,-1.0425,-1.1484,0.0,0.0,-1.3527,-1.3575,-1.3584,-1.3621,-1.3621,-1.4501,0.0,-1.5108,-1.557,-1.5792,-1.5792,-1.5792,-1.5792,-1.5792,-1.5792,-1.5792,-1.5792,-1.5792,-1.5792,-1.5792,-1.5957,-1.5988,-1.6044,-1.6306,-1.6392,0.0,-1.6479,-1.6522,-1.6522,-1.6522,-1.6183,-1.5693,-1.5693,-1.5606,-1.5467,-1.5211,-1.5359,-1.5646,-1.5379,-1.5313,-1.5313,-1.5313,-1.5313,-1.5313,-1.5313,-1.5313,-1.5358,-1.5638,-1.571,-1.5853,-1.6448,-1.6596,-1.6701,-1.7032,-1.7108,-1.7108,-1.7108,-1.7108,-1.7108,-1.7108,-1.7108,-1.7108,-1.7108,-1.7108,-1.7149,-1.7174,-1.7273,-1.7346,-1.7387,-1.7467,-1.7515,-1.7515,-1.7515,-1.7592,-1.7772,-1.7599,-1.7576,-1.7772,-1.7811,-1.7811,-1.7811,-1.8284,-1.8505,-1.8505,-1.8714,-1.8788,-1.8788,-1.8788,-1.8788,-0.7793,-0.833,-0.874,-0.8574,-0.8207,-0.7738,-0.7162,-0.6688,-0.6244,-0.5625,-0.5518,-0.5593,-0.5852,-0.5907,-0.6284,-0.7461,-0.7648,-0.8081,0.0,0.0,0.0,-1.2577,-1.3836,-1.4595,0.0,0.0,-1.4212,-1.4593,-1.4926,-1.5244,-1.5558,-1.5703,-1.5792,-1.5792,-1.5792,-1.5792,-1.5792,-1.5792,-1.5792,-1.5792,-1.5792,-1.5792,-1.5792,-1.5957,-1.5988,-1.5988,-1.6262,-1.6392,-1.6392,-1.6479,-1.6522,-1.6471,-1.6107,-1.5618,-1.513,-1.4739,-1.4335,-1.3957,-1.4075,-1.4246,-1.4372,-1.4534,-1.4777,-1.4963,-1.4963,-1.5117,-1.5313,-1.5313,-1.5313,-1.5313,-1.5403,-1.5566,-1.5796,-1.6231,-1.649,-1.6675,-1.7032,-1.7108,-1.7108,-1.7108,-1.7108,-1.7108,-1.7108,-1.7108,-1.7108,-1.7108,-1.7108,-1.7108,-1.7149,-1.7158,-1.7199,-1.7265,-1.7273,-1.7346,-1.7491,-1.7515,-1.7538,-1.7592,-1.7669,-1.7721,-1.7789,-1.7932,-1.8001,-1.8001,-1.8149,-1.8232,-1.8232,-1.8293,-1.841,-1.8582,-1.8582,-1.8676,-0.7012,-0.749,-0.7871,-0.7725,-0.7486,-0.7182,-0.6797,-0.6472,-0.6169,-0.5784,-0.5704,-0.576,-0.5961,-0.5998,-0.6278,-0.715,-0.7467,-0.7972,0.0,0.0,0.0,-1.3131,0.0,0.0,0.0,-1.4665,-1.4686,-1.4777,-1.5142,-1.5424,-1.5513,-1.5703,-1.5792,-1.5792,-1.5792,-1.5792,-1.5792,-1.5792,-1.5792,-1.5792,-1.5792,-1.5792,-1.5792,-1.5869,-1.5913,-1.5957,-1.6231,-1.6318,0.0,-1.6436,-1.6522,-1.6459,-1.5906,-1.5354,-1.4865,-1.4525,-1.3885,-1.3292,-1.3839,-1.3898,-1.3782,-1.4319,-1.4714,-1.4963,-1.4994,-1.5117,-1.5313,-1.5313,-1.5313,-1.5313,-1.5313,-1.5433,-1.5609,-1.5953,-1.6148,-1.6367,-1.6675,-1.6769,-1.6795,-1.6873,-1.6914,-1.694,-1.7083,-1.7108,-1.7108,-1.7108,-1.7108,-1.7108,-1.7108,-1.7108,-1.7149,-1.7215,-1.7224,-1.7298,-1.7403,-1.7443,-1.7467,-1.7515,-1.7622,-1.7692,-1.7692,-1.7816,-1.7866,-1.7866,-1.7954,-1.798,-1.798,-1.8048,-1.8232,-1.8485,-1.8485,-1.8619,0.0,-0.6982,-0.709,-0.7423,-0.7246,-0.6949,-0.6694,-0.6365,0.0,-0.5802,-0.5741,-0.5808,-0.6025,-0.605,-0.6128,-0.6463,-0.6943,-0.766,0.0,-1.0305,0.0,0.0,-1.4416,0.0,-1.4408,-1.4877,-1.496,-1.4444,-1.5277,-1.5614,-1.5153,-1.5558,-1.5792,-1.5792,-1.5792,-1.5792,-1.5792,-1.5792,-1.5792,-1.5792,-1.5792,-1.5792,-1.5792,-1.5792,-1.5792,0.0,-1.6057,-1.62,-1.6188,-1.6392,-1.6479,-1.6416,-1.5869,-1.5329,-1.4903,-1.4828,-1.4111,-1.3308,-1.4178,-1.415,-1.3782,-1.4497,-1.4932,-1.5192,-1.5253,-1.5283,-1.5283,-1.5313,-1.5313,-1.5313,-1.5313,-1.5313,-1.5358,-1.5638,-1.571,-1.5796,-1.612,-1.6203,-1.6285,-1.6543,-1.6596,-1.6701,-1.7057,-1.7108,-1.7108,-1.7108,-1.7108,-1.7108,-1.7108,-1.7149,-1.7174,-1.7174,-1.7248,-1.7281,-1.7281,-1.7346,-1.7436,-1.7491,-1.7491,-1.7515,-1.7515,-1.7515,-1.7515,-1.7515,-1.7692,-1.7789,-1.7789,-1.7975,-1.8191,-1.8445,-1.8465,-1.8582,-0.5516,0.0,-0.6035,-0.5779,-0.5867,-0.6012,0.0,-0.6109,-0.6239,-0.6177,-0.6153,-0.6288,-0.6765,-0.6516,-0.6777,-0.8478,-0.8849,-0.9463,-1.093,0.0,0.0,-1.5307,-1.5441,-1.5469,-1.5469,-1.5543,-1.5558,-1.5468,-1.5659,-1.5748,-1.5659,-1.5748,-1.5792,-1.5792,-1.5792,-1.5792,-1.5792,-1.5792,-1.5792,-1.5792,-1.5792,-1.5792,-1.5792,-1.5792,-1.5792,-1.5792,-1.5957,-1.6044,-1.6044,-1.6231,-1.6318,-1.6336,-1.5334,-1.4912,-1.4802,-1.3935,-1.3423,-1.3223,-1.3452,-1.3437,-1.3425,-1.4065,-1.4529,-1.4856,-1.5027,-1.5133,-1.5222,-1.5283,-1.5313,-1.5313,-1.5313,-1.5313,-1.5358,-1.5638,-1.571,-1.5796,-1.612,-1.6203,-1.6285,-1.6543,-1.6596,-1.6701,-1.7057,-1.7108,-1.7108,-1.7108,-1.7108,-1.7108,-1.7108,-1.7108,-1.7108,-1.7108,-1.7133,-1.7174,-1.7224,-1.7322,-1.7411,-1.7419,-1.7467,-1.7515,-1.7515,-1.7515,-1.7515,-1.7515,-1.7545,-1.7569,-1.7569,-1.7622,-1.7743,-1.7988,-1.8125,-1.833,-0.5108,-0.5449,-0.5744,-0.5488,-0.5583,-0.5804,-0.5983,-0.6019,-0.6081,-0.626,-0.6295,-0.6391,-0.6667,-0.6691,-0.7123,-0.8537,-0.9173,0.0,0.0,0.0,-1.4687,-1.566,-1.5792,-1.5792,0.0,-1.5792,-1.5792,-1.5792,-1.5792,-1.5792,-1.5792,-1.5792,-1.5792,-1.5792,-1.5792,-1.5792,-1.5792,-1.5792,-1.5792,-1.5792,-1.5792,-1.5792,-1.5792,-1.5792,-1.5792,-1.5792,-1.5957,-1.5988,-1.5988,-1.6144,-1.6231,-1.6207,-1.5116,-1.4734,-1.47,-1.3923,-1.3446,-1.3235,-1.3521,-1.3607,-1.3648,-1.3967,-1.4401,-1.4825,-1.4951,-1.5027,-1.5086,-1.5222,-1.5283,-1.5313,-1.5313,-1.5313,-1.5343,-1.5492,-1.5522,-1.5566,-1.574,-1.5797,-1.5911,-1.634,-1.6421,-1.657,-1.7032,-1.7108,-1.7108,-1.7108,-1.7108,-1.7108,-1.7108,-1.7108,-1.7108,-1.7108,-1.7108,-1.7108,-1.7149,-1.7248,-1.7322,-1.7346,-1.7395,-1.7403,-1.7443,-1.7443,-1.7467,-1.7515,-1.7515,-1.7515,-1.7515,-1.7515,-1.7599,-1.7811,-1.791,-1.8103,-0.5185,-0.5547,-0.5862,-0.5734,-0.5797,-0.5957,-0.6233,-0.6037,-0.5888,0.0,0.0,-0.6355,-0.6493,-0.6907,0.0,-0.8153,0.0,0.0,-1.3276,-1.4084,-1.473,-1.5684,-1.5792,0.0,-1.5792,-1.5792,-1.5792,-1.5792,-1.5792,-1.5792,-1.5792,-1.5792,-1.5792,-1.5792,-1.5792,-1.5792,-1.5792,-1.5792,-1.5792,-1.5792,-1.5792,-1.5792,-1.5792,-1.5792,-1.5792,-1.5792,-1.5913,0.0,-1.6001,-1.61,-1.6095,-1.5967,-1.5011,-1.4607,-1.4548,-1.4099,-1.3634,-1.3261,-1.376,-1.3981,-1.4032,-1.4,-1.4356,-1.4856,-1.4921,-1.4949,-1.4932,-1.5117,-1.5208,-1.5268,-1.5283,-1.5283,-1.5283,-1.5313,-1.5313,-1.5313,-1.5313,-1.5313,-1.5477,-1.6009,-1.6105,-1.6313,-1.6914,-1.7016,-1.7057,-1.7083,-1.7108,-1.7108,-1.7108,-1.7108,-1.7108,-1.7108,-1.7108,-1.7108,-1.7108,-1.7149,-1.7199,-1.7257,-1.7281,-1.7346,-1.7395,-1.7411,-1.7419,-1.7515,-1.7515,-1.7515,-1.7515,-1.7515,-1.7592,-1.7743,-1.7789,-1.7905,-0.5576,-0.5986,-0.6133,-0.539,-0.5766,-0.6222,-0.5892,-0.6018,-0.6224,0.0,0.0,0.0,0.0,-0.7677,-0.8226,0.0,0.0,-1.2673,0.0,0.0,-1.5109,-1.572,0.0,-1.5792,-1.5792,-1.5792,-1.5792,-1.5792,-1.5792,-1.5792,-1.5792,-1.5792,-1.5792,-1.5792,-1.5792,-1.5792,-1.5792,-1.5792,-1.5792,-1.5792,-1.5792,-1.5792,-1.5792,-1.5792,-1.5792,-1.5792,0.0,-1.5836,-1.5836,-1.5836,-1.5659,-1.5301,-1.4679,-1.4283,-1.3976,-1.343,-1.3238,-1.321,-1.3229,-1.3399,-1.3648,-1.3835,-1.4163,-1.4515,-1.4763,-1.4856,-1.4902,-1.4932,-1.4996,-1.5088,-1.5178,-1.5222,-1.5222,-1.5283,-1.5313,-1.5313,-1.5313,-1.5313,-1.5388,-1.5725,-1.5767,-1.5966,-1.6554,-1.6675,-1.6769,-1.7057,-1.7108,-1.7108,-1.7108,-1.7108,-1.7108,-1.7108,-1.7108,-1.7108,-1.7108,-1.7108,-1.7108,-1.7133,-1.7298,-1.7419,-1.7491,-1.7419,-1.7419,-1.7515,-1.7515,-1.7515,-1.7515,-1.7515,-1.7515,-1.7545,-1.7737,-1.7833,-0.5351,-0.5742,-0.5977,-0.5576,-0.6144,-0.6786,-0.6822,-0.663,-0.6582,0.0,0.0,0.0,0.0,0.0,-0.9365,-1.1248,0.0,-1.3505,-1.4526,-1.4857,-1.5205,0.0,0.0,-1.5792,-1.5792,-1.5748,-1.564,-1.5396,-1.5329,-1.5198,-1.4995,-1.4983,-1.5115,-1.536,-1.5372,-1.5504,-1.5792,-1.5792,-1.5792,-1.5792,-1.5792,-1.5792,-1.5792,-1.5792,-1.5792,-1.5792,0.0,-1.5792,-1.5792,-1.5792,-1.5524,-1.5066,-1.4574,-1.4118,-1.3693,-1.3187,-1.3012,-1.3012,-1.2943,-1.3151,-1.3399,-1.3488,-1.3901,-1.4369,-1.4479,-1.4683,-1.4839,-1.4839,-1.4904,-1.5013,-1.5088,-1.5147,-1.5222,-1.5253,-1.5283,-1.5313,-1.5313,-1.5313,-1.5388,-1.5638,-1.571,-1.5881,-1.6517,-1.6596,-1.6701,-1.7057,-1.7108,-1.7108,-1.7108,-1.7108,-1.7108,-1.7108,-1.7108,-1.7108,-1.7108,-1.7108,-1.7108,-1.7108,-1.7224,-1.7298,-1.7346,-1.7346,-1.7371,-1.7378,-1.7378,-1.7419,-1.7443,-1.7443,-1.7467,-1.7515,-1.7576,-1.7646,-0.5234,-0.5527,-0.5823,-0.5921,-0.6405,-0.7016,-0.7545,-0.723,-0.7042,-0.7888,0.0,0.0,0.0,-0.9265,0.0,-1.242,-1.3155,-1.3782,-1.4521,-1.4737,-1.4965,-1.5416,-1.5432,-1.542,-1.5464,-1.5346,-1.5179,-1.4815,-1.475,-1.4571,-1.4273,-1.4261,-1.4442,-1.4809,-1.4821,-1.5013,-1.5464,-1.5464,-1.5596,-1.5792,-1.5792,-1.5792,-1.5792,-1.5672,-1.5672,-1.578,-1.566,-1.5612,-1.5612,-1.5612,-1.5229,-1.4634,-1.4304,-1.3885,-1.3362,-1.302,-1.2896,-1.2873,-1.2838,-1.2965,-1.3195,-1.3285,-1.3702,-1.4189,-1.4351,-1.462,-1.4808,-1.4808,-1.4873,-1.4951,-1.4982,-1.5041,-1.5117,-1.5147,-1.5208,-1.5238,-1.5238,-1.5238,-1.5284,-1.5492,-1.5565,-1.5754,-1.6285,-1.6394,-1.6501,-1.6821,-1.6889,-1.6914,-1.6965,-1.6991,-1.7016,-1.7083,-1.7108,-1.7108,-1.7108,-1.7108,-1.7108,-1.7108,-1.7149,-1.7199,-1.7224,-1.7273,-1.7281,-1.7306,-1.7306,-1.7346,-1.7371,-1.7371,-1.7395,-1.7451,-1.7467,-1.7467,-0.5625,-0.5774,-0.5891,-0.626,-0.6274,-0.637,-0.7072,-0.7332,-0.7642,-0.8387,0.0,0.0,0.0,-1.0805,-1.1862,-1.2566,-1.3155,-1.3529,-1.3602,0.0,-1.4361,-1.4397,-1.4301,-1.4261,-1.441,-1.422,-1.4139,-1.4173,-1.4092,-1.408,-1.4113,-1.4113,-1.4205,-1.4349,-1.4349,-1.4361,-1.441,-1.441,-1.4862,-1.5792,-1.5792,-1.5792,-1.578,-1.5289,-1.5325,-1.5768,-1.5277,-1.5061,-1.5061,-1.5061,-1.4502,-1.3614,-1.3577,-1.3265,-1.2851,-1.2885,-1.2873,-1.2803,-1.2803,-1.2768,-1.2838,-1.3467,-1.3715,-1.3881,-1.4574,-1.4777,-1.4808,-1.4808,-1.4808,-1.4825,-1.4887,-1.4932,-1.4932,-1.4982,-1.5013,-1.5013,-1.5013,-1.5013,-1.5043,-1.5043,-1.5149,-1.5344,-1.5623,-1.5739,-1.5881,-1.6203,-1.6258,-1.634,-1.6596,-1.6649,-1.6769,-1.7083,-1.7108,-1.7108,-1.7108,-1.7108,-1.7108,-1.7108,-1.7108,-1.7158,-1.7281,-1.7248,-1.7224,-1.7306,-1.7306,-1.7306,-1.7306,-1.7306,-1.7306,-1.7306,-1.7371,-1.7411,-0.5312,-0.5534,-0.5844,-0.6285,-0.6478,0.0,0.0,-0.8295,-0.8789,-0.982,-0.9969,0.0,0.0,0.0,-1.1986,-1.2938,-1.3323,-1.3576,-1.3847,-1.4129,-1.4289,-1.4289,-1.4181,-1.4113,-1.4181,-1.3981,-1.3771,-1.3548,-1.342,-1.3279,-1.3063,-1.304,-1.3231,-1.3578,-1.3629,-1.3757,-1.4101,-1.4113,-1.4303,-1.4666,-1.4809,-1.4892,-1.485,-1.4646,-1.4658,-1.4838,-1.4634,-1.455,-1.455,-1.455,-1.4117,-1.3469,-1.3131,-1.2878,-1.2745,-1.2768,-1.2768,-1.2745,-1.2745,-1.2709,-1.2745,-1.3012,-1.3242,-1.3421,-1.3722,-1.3967,-1.4176,-1.4415,-1.4493,-1.4556,-1.4777,-1.4871,-1.4902,-1.4918,-1.4966,-1.5013,-1.5013,-1.5013,-1.5013,-1.5102,-1.5178,-1.5298,-1.5594,-1.5681,-1.5824,-1.6148,-1.634,-1.6474,-1.6596,-1.6795,-1.6965,-1.7083,-1.7108,-1.7108,-1.7108,-1.7108,-1.7108,-1.7108,-1.7108,-1.7108,-1.7183,-1.7149,-1.7149,-1.7183,-1.7183,-1.7199,-1.7248,-1.7248,-1.7273,-1.7306,-1.7346,-1.7346,-0.4885,-0.5194,-0.5617,-0.6067,0.0,0.0,-0.8512,-0.9068,-0.9618,-1.0839,-1.1011,-1.1114,-1.18,0.0,0.0,0.0,-1.3117,-1.3298,-1.3554,-1.3667,-1.3744,-1.3795,-1.3679,-1.3602,-1.3602,-1.3408,-1.3167,-1.288,-1.2794,-1.2605,-1.2353,-1.233,-1.253,-1.292,-1.2932,-1.312,-1.3497,-1.3497,-1.3497,-1.3497,-1.3641,-1.3886,-1.4221,-1.4029,-1.4093,-1.4249,-1.4108,-1.4036,-1.4036,-1.4036,-1.3722,-1.3216,-1.2854,-1.2709,-1.2709,-1.2709,-1.2709,-1.2709,-1.2709,-1.2709,-1.2709,-1.2838,-1.2988,-1.3216,-1.3331,-1.3602,-1.3947,-1.4222,-1.4397,-1.4525,-1.4746,-1.4839,-1.4871,-1.4871,-1.4904,-1.4921,-1.4921,-1.4921,-1.4966,-1.5056,-1.5086,-1.5163,-1.5404,-1.5492,-1.5609,-1.5839,-1.6065,-1.6203,-1.6297,-1.6517,-1.6743,-1.694,-1.7032,-1.7108,-1.7108,-1.7108,-1.7108,-1.7108,-1.7108,-1.7108,-1.7108,-1.7108,-1.7108,-1.7108,-1.7108,-1.7108,-1.7174,-1.7174,-1.7199,-1.7232,-1.7257,-1.7273,-0.4397,-0.4751,-0.5203,-0.5617,0.0,0.0,-0.8934,-0.95,-1.0035,-1.1256,-1.1957,-1.2401,-1.2461,-1.2591,0.0,-1.2508,-1.2508,-1.2508,-1.2508,-1.2508,-1.2544,-1.2674,-1.2591,-1.2508,-1.2508,-1.2318,-1.221,-1.221,-1.2138,-1.2138,-1.221,-1.221,-1.2246,-1.2401,-1.2413,-1.2413,-1.2413,-1.2413,-1.2413,-1.2413,-1.2413,-1.2955,-1.3969,-1.3492,-1.3578,-1.4066,-1.3646,-1.3493,-1.3493,-1.3493,-1.318,-1.2709,-1.2709,-1.2709,-1.2709,-1.2709,-1.2709,-1.2709,-1.2709,-1.2709,-1.2745,-1.3091,-1.3182,-1.3263,-1.3602,-1.3947,-1.43,-1.43,-1.4525,-1.4808,-1.4808,-1.4808,-1.4808,-1.4808,-1.4808,-1.4808,-1.4808,-1.4808,-1.4808,-1.4808,-1.4839,-1.4902,-1.4902,-1.5056,-1.5192,-1.5192,-1.5253,-1.5418,-1.5667,-1.571,-1.5938,-1.6528,-1.6914,-1.7083,-1.7083,-1.7108,-1.7108,-1.7108,-1.7108,-1.7108,-1.7108,-1.7108,-1.7108,-1.7108,-1.7108,-1.7108,-1.7108,-1.7108,-1.7108,-1.7108,-1.7174,-1.7215,-0.4545,-0.4953,0.0,-0.6017,0.0,0.0,0.0,-0.9851,0.0,0.0,-1.2102,-1.2282,-1.2282,-1.2318,0.0,-1.2282,-1.2365,-1.2401,-1.2318,-1.2365,-1.2437,-1.2484,-1.2365,-1.2282,-1.2282,-1.2174,-1.2138,-1.2138,-1.2113,-1.2113,-1.2138,-1.2138,-1.215,-1.2186,-1.2186,-1.2186,-1.2186,-1.2186,-1.2186,-1.2186,-1.2186,-1.2421,-1.2873,-1.2781,-1.2829,-1.2972,-1.2938,-1.295,-1.295,-1.295,-1.2854,-1.2709,-1.2709,-1.2709,-1.2709,-1.2709,-1.2709,-1.2709,-1.2709,-1.2709,-1.2709,-1.2838,-1.2838,-1.2873,-1.2978,-1.3082,-1.3207,-1.3467,-1.3589,-1.3722,-1.3967,-1.4046,-1.4176,-1.4669,-1.4808,-1.4808,-1.4808,-1.4808,-1.4808,-1.4871,-1.4902,-1.4918,-1.4966,-1.5102,-1.5192,-1.5192,-1.5433,-1.5696,-1.5994,-1.605,-1.6105,-1.6285,-1.657,-1.6769,-1.6769,-1.6965,-1.7108,-1.7108,-1.7108,-1.7108,-1.7108,-1.7108,-1.7108,-1.7108,-1.7108,-1.7108,-1.7108,-1.7108,-1.7108,-1.7108,-1.7108,-1.7149,-0.4445,-0.4971,0.0,-0.6136,-0.7126,-0.8277,-0.9401,0.0,0.0,0.0,-1.2138,-1.221,-1.221,-1.2246,0.0,-1.221,-1.2258,-1.2282,-1.221,-1.2258,-1.233,-1.2401,-1.233,-1.2246,-1.221,-1.2174,-1.2138,-1.2113,-1.2113,-1.2113,-1.2113,-1.2113,-1.2113,-1.2113,-1.2113,-1.2113,-1.2113,-1.2113,-1.2113,-1.2113,-1.2113,-1.215,-1.2294,-1.2365,-1.2389,-1.2473,-1.2627,-1.2709,-1.2709,-1.2709,-1.2709,-1.2709,-1.2709,-1.2709,-1.2709,-1.2709,-1.2709,-1.2709,-1.2709,-1.2709,-1.2709,-1.2709,-1.2709,-1.2709,-1.2709,-1.2803,-1.2931,-1.316,-1.3285,-1.3467,-1.3635,-1.3715,-1.3802,-1.4273,-1.4479,-1.462,-1.462,-1.4714,-1.4808,-1.4839,-1.4871,-1.4856,-1.4904,-1.5011,-1.5086,-1.5086,-1.5314,-1.558,-1.5826,-1.6037,-1.6203,-1.6203,-1.657,-1.6795,-1.6795,-1.6991,-1.7108,-1.7108,-1.7108,-1.7108,-1.7108,-1.7108,-1.7108,-1.7108,-1.7108,-1.7108,-1.7108,-1.7108,-1.7108,-1.7108,-1.7108,-1.7108,-0.4164,-0.4865,-0.5606,-0.6073,-0.6775,0.0,-0.9107,-1.0743,-1.1998,-1.2033,0.0,-1.221,-1.221,-1.2294,-1.233,-1.221,-1.221,-1.2151,-1.2105,-1.2175,-1.2234,-1.2307,-1.2342,-1.233,-1.221,-1.221,-1.2174,-1.2113,-1.2113,-1.2113,-1.2113,-1.2113,-1.2113,-1.2113,-1.2113,-1.2113,-1.2113,-1.2113,-1.2113,-1.2113,-1.2113,-1.2113,-1.2113,-1.2174,-1.2282,-1.2413,-1.2591,-1.2674,-1.2674,-1.2709,-1.2709,-1.2709,-1.2709,-1.2709,-1.2709,-1.2709,-1.2709,-1.2709,-1.2709,-1.2709,-1.2709,-1.2709,-1.2709,-1.2709,-1.2709,-1.2896,-1.316,-1.316,-1.3365,-1.3615,-1.3615,-1.3615,-1.3615,-1.3615,-1.3947,-1.43,-1.43,-1.4556,-1.4808,-1.4808,-1.4808,-1.4808,-1.4808,-1.4871,-1.4887,-1.4932,-1.5086,-1.5222,-1.5283,-1.5769,-1.612,-1.6176,-1.6691,-1.7032,-1.7032,-1.7083,-1.7108,-1.7108,-1.7108,-1.7108,-1.7108,-1.7108,-1.7108,-1.7108,-1.7108,-1.7108,-1.7108,-1.7108,-1.7108,-1.7108,-1.7108,-1.7108,-0.3889,-0.4641,0.0,-0.6005,-0.7338,-0.8724,-0.9467,-1.031,-1.1032,-1.1411,-1.1837,-1.2113,-1.2113,-1.215,-1.215,-1.215,-1.2113,-1.1964,-1.1538,-1.186,-1.1964,-1.1572,-1.1907,-1.215,-1.2113,-1.2113,-1.2113,-1.2113,-1.2113,-1.2113,-1.2113,-1.2113,-1.2113,-1.2113,-1.2113,-1.2113,-1.2113,-1.2113,-1.2113,-1.2113,-1.2113,-1.2113,-1.2113,-1.2174,-1.2282,-1.2413,-1.2508,-1.2544,-1.2544,-1.2662,-1.2709,-1.2709,-1.2709,-1.2709,-1.2709,-1.2709,-1.2709,-1.2709,-1.2709,-1.2709,-1.2709,-1.2709,-1.2709,-1.2709,-1.2709,-1.2745,-1.2803,-1.2803,-1.2873,-1.2908,-1.2908,-1.2908,-1.2908,-1.2908,-1.3615,-1.43,-1.43,-1.4556,-1.4808,-1.4808,-1.4808,-1.4808,-1.4808,-1.4871,-1.4932,-1.5058,-1.5074,-1.5149,-1.5283,-1.5418,-1.561,-1.5924,-1.6355,-1.6559,-1.6409,-1.6821,-1.7108,-1.7108,-1.7108,-1.7108,-1.7108,-1.7108,-1.7108,-1.7108,-1.7108,-1.7108,-1.7108,-1.7108,-1.7108,-1.7108,-1.7108,-1.7108,-0.3961,0.0,0.0,-0.6587,0.0,-0.871,-0.9275,-0.9833,-1.0298,-1.0539,-1.1009,-1.1365,-1.1365,-1.1365,-1.1365,-1.1365,-1.1365,-1.1274,-1.1009,-1.1205,-1.1274,-1.1009,-1.1205,-1.1365,-1.1365,-1.1365,-1.1365,-1.1365,-1.1583,-1.171,-1.171,-1.1939,-1.2113,-1.2113,-1.2113,-1.2113,-1.2113,-1.2113,-1.2113,-1.2113,-1.2113,-1.2113,-1.2113,-1.2174,-1.2246,-1.233,-1.2401,-1.2437,-1.2437,-1.252,-1.2567,-1.252,-1.233,-1.2377,-1.252,-1.233,-1.2413,-1.2591,-1.2591,-1.2639,-1.2709,-1.2709,-1.2709,-1.2709,-1.2709,-1.2709,-1.2709,-1.2709,-1.2709,-1.2709,-1.2709,-1.2709,-1.2709,-1.2709,-1.3242,-1.3815,-1.398,-1.4287,-1.462,-1.4777,-1.4808,-1.4808,-1.4808,-1.4839,-1.4887,-1.5027,-1.4996,-1.5041,-1.5283,-1.5208,-1.5239,-1.5463,-1.6009,-1.6382,-1.6463,-1.6785,-1.6914,-1.6847,-1.6924,-1.6949,-1.6949,-1.7041,-1.7108,-1.7108,-1.7108,-1.7108,-1.7108,-1.7108,-1.7108,-1.7108,-1.7108,-1.7108,-0.3931,0.0,-0.5642,-0.7082,-0.7718,0.0,-0.8717,-0.9238,-0.959,-0.959,-1.0141,-1.0608,-1.0608,-1.0608,-1.0608,-1.0608,-1.0608,-1.0573,-1.0481,-1.055,-1.0573,-1.0481,-1.055,-1.0608,-1.0608,-1.0608,-1.0608,-1.0608,-1.0975,-1.1171,-1.1171,-1.1675,-1.1939,-1.1939,-1.2067,-1.2113,-1.2113,-1.2113,-1.2113,-1.2113,-1.2041,-1.2004,-1.2004,-1.1993,-1.2054,-1.221,-1.2294,-1.233,-1.2258,-1.2294,-1.2294,-1.2258,-1.192,-1.2041,-1.2377,-1.2041,-1.215,-1.2473,-1.2473,-1.2556,-1.2639,-1.2639,-1.2639,-1.2639,-1.2639,-1.2639,-1.2639,-1.2639,-1.2674,-1.2674,-1.2674,-1.2674,-1.2709,-1.2709,-1.2896,-1.3195,-1.3535,-1.398,-1.4397,-1.4651,-1.4777,-1.4808,-1.4808,-1.4808,-1.4839,-1.4963,-1.4871,-1.4902,-1.5192,-1.5058,-1.4982,-1.4982,-1.5565,-1.612,-1.6463,-1.6639,-1.6691,-1.6596,-1.6701,-1.6763,-1.6789,-1.6949,-1.7057,-1.7108,-1.7108,-1.7108,-1.7108,-1.7108,-1.7108,-1.7108,-1.7108,-1.7108,-0.3163,0.0,-0.519,0.0,-0.7002,-0.7345,0.0,0.0,-0.8772,0.0,-0.9751,-1.0608,-1.0608,-1.0608,-1.0608,-1.0608,-1.0608,-1.0447,-0.9976,-1.0309,-1.0435,-0.9965,-1.0321,-1.0608,-1.0608,-1.0608,-1.0608,-1.0608,-1.0665,-1.07,-1.07,-1.1159,-1.1423,-1.1423,-1.1848,-1.2113,-1.2113,-1.2113,-1.2113,-1.2113,-1.1737,-1.159,-1.159,-1.1217,-1.1442,-1.2113,-1.2174,-1.2018,-1.1726,-1.1847,-1.1884,-1.1884,-1.1811,-1.2041,-1.2401,-1.233,-1.2377,-1.2413,-1.2413,-1.2449,-1.2449,-1.2449,-1.2449,-1.2449,-1.2449,-1.2449,-1.2449,-1.2449,-1.2473,-1.2544,-1.2544,-1.2627,-1.2709,-1.2709,-1.2745,-1.2873,-1.3195,-1.3802,-1.43,-1.4365,-1.462,-1.4808,-1.4808,-1.4808,-1.4808,-1.4839,-1.4808,-1.4839,-1.4871,-1.4825,-1.4825,-1.4825,-1.4918,-1.5058,-1.524,-1.6037,-1.6532,-1.6506,-1.657,-1.6686,-1.6789,-1.6831,-1.6924,-1.7108,-1.7108,-1.7108,-1.7108,-1.7108,-1.7108,-1.7108,-1.7108,-1.7108,-0.3572,-0.4228,-0.5091,0.0,-0.6833,-0.7303,-0.8024,-0.8421,-0.8656,-0.8834,-0.9197,-0.9541,-0.9717,-0.9758,-0.9758,-0.9758,-0.9758,-0.9678,-0.9437,-0.9453,-0.9451,-0.9397,-0.9464,-0.9541,-0.9747,-0.9758,-0.9758,-0.9758,-0.9999,-1.016,-1.016,-1.0862,-1.1285,-1.1285,-1.1813,-1.2113,-1.2113,-1.2113,-1.2004,-1.1774,-1.1367,-1.118,-1.1142,-1.0992,-1.1105,-1.1442,-1.1479,-1.1505,-1.1542,-1.1627,-1.1774,-1.1957,-1.1737,-1.1884,-1.2186,-1.1737,-1.1884,-1.2258,-1.2029,-1.215,-1.2413,-1.2413,-1.2413,-1.2413,-1.2413,-1.2413,-1.2413,-1.2413,-1.2437,-1.2508,-1.2508,-1.2591,-1.2709,-1.2709,-1.2709,-1.2745,-1.2896,-1.3331,-1.3802,-1.4222,-1.4588,-1.4808,-1.4808,-1.4808,-1.4808,-1.4808,-1.4808,-1.4808,-1.4808,-1.4808,-1.4808,-1.4808,-1.4808,-1.4825,-1.4873,-1.5769,-1.6332,-1.6332,-1.6425,-1.6517,-1.657,-1.6712,-1.6857,-1.6924,-1.7041,-1.7108,-1.7108,-1.7108,-1.7108,-1.7108,-1.7108,-1.7108,0.0,0.0,-0.4752,-0.5799,-0.6367,-0.6953,0.0,0.0,-0.8365,0.0,-0.8767,-0.8712,-0.9026,-0.9026,-0.8971,-0.8971,-0.9054,-0.9092,-0.9092,-0.8822,-0.8684,-0.8944,-0.8684,-0.86,-0.8834,-0.8861,-0.8861,-0.8861,-0.9186,-0.9388,-0.9388,-1.0301,-1.0776,-1.0698,-1.1296,-1.1614,-1.1631,-1.1754,-1.1627,-1.133,-1.0954,-1.0736,-1.0725,-1.0538,-1.051,-1.0621,-1.0802,-1.0992,-1.1217,-1.1217,-1.1367,-1.1627,-1.1292,-1.1442,-1.1737,-1.1105,-1.133,-1.1836,-1.1542,-1.1737,-1.2186,-1.2186,-1.2222,-1.233,-1.233,-1.233,-1.233,-1.233,-1.2365,-1.2425,-1.2425,-1.2508,-1.2627,-1.2627,-1.2639,-1.2662,-1.2803,-1.3022,-1.3399,-1.4013,-1.4401,-1.4669,-1.4777,-1.4808,-1.4808,-1.4808,-1.4808,-1.4808,-1.4808,-1.4808,-1.4808,-1.4808,-1.4808,-1.4808,-1.4808,-1.5448,-1.5898,-1.6011,-1.6123,-1.6234,-1.6316,-1.6517,-1.6659,-1.6738,-1.6924,-1.7041,-1.7108,-1.7108,-1.7108,-1.7108,-1.7108,-1.7108,0.0,-0.336,0.0,-0.4686,-0.519,-0.5778,0.0,0.0,-0.7451,-0.8419,-0.8617,-0.8712,-0.9026,-0.8834,-0.8617,-0.8617,-0.8878,-0.9092,-0.9092,-0.8822,-0.86,-0.8628,-0.8375,-0.8215,-0.8244,-0.8244,-0.8244,-0.8244,-0.8265,-0.8275,-0.8275,-0.9053,-0.9343,-0.9025,-0.9788,-1.0264,-1.0389,-1.0782,-1.0954,-1.0916,-1.0505,-1.0322,-1.0302,-0.9554,-0.9412,-0.9793,-1.0582,-1.0697,-1.0361,-1.0361,-1.0361,-1.04,-1.0361,-1.0621,-1.0954,-1.0916,-1.0916,-1.0954,-1.0954,-1.1217,-1.1553,-1.1553,-1.1811,-1.2113,-1.2113,-1.2113,-1.2113,-1.2113,-1.2174,-1.221,-1.221,-1.233,-1.2413,-1.2413,-1.2473,-1.2638,-1.3091,-1.3182,-1.3297,-1.3669,-1.3967,-1.4292,-1.4732,-1.4808,-1.4808,-1.4808,-1.4808,-1.4808,-1.4808,-1.4808,-1.4808,-1.4808,-1.4808,-1.4808,-1.4808,-1.4825,-1.5072,-1.5507,-1.5536,-1.5711,-1.6095,-1.6123,-1.6289,-1.6581,-1.6753,-1.6924,-1.7108,-1.7108,-1.7108,-1.7108,-1.7108,-1.7108,-0.2883,0.0,0.0,-0.4529,-0.4913,-0.5319,-0.6455,-0.6701,-0.6956,-0.7798,-0.7785,-0.776,-0.8122,-0.8421,-0.86,-0.86,-0.8544,-0.8527,-0.8527,-0.8223,-0.8099,-0.8319,-0.808,-0.7966,-0.8187,-0.8187,-0.8187,-0.8187,-0.8187,-0.8187,-0.8187,-0.875,-0.9023,-0.8901,-0.9499,-0.9987,-1.0287,-0.994,-0.9878,-1.0133,-0.9454,-0.9139,-0.9139,-0.8846,-0.8793,-0.8931,-0.9248,-0.9701,-1.0302,-1.0028,-1.0218,-1.0697,-1.0697,-1.0764,-1.0878,-1.0621,-1.0697,-1.0916,-1.0916,-1.118,-1.1553,-1.1811,-1.1957,-1.2113,-1.2113,-1.2113,-1.2041,-1.1774,-1.1957,-1.2126,-1.1872,-1.2102,-1.2413,-1.2413,-1.2377,-1.2449,-1.265,-1.2953,-1.3251,-1.3365,-1.3635,-1.3901,-1.4078,-1.3735,-1.3769,-1.4669,-1.4808,-1.4808,-1.4808,-1.4808,-1.4808,-1.4808,-1.4808,-1.4808,-1.4808,-1.4808,-1.5041,-1.558,-1.5536,-1.5697,-1.6166,-1.6123,-1.6234,-1.6463,-1.6596,-1.6753,-1.6924,-1.7041,-1.7108,-1.7108,-1.7108,-1.7108,-0.2721,-0.2892,0.0,0.0,-0.4401,-0.4705,-0.5863,0.0,-0.6185,-0.7056,-0.7052,-0.7012,-0.7397,-0.77,-0.7977,-0.8256,-0.8319,-0.8301,-0.8215,-0.7908,-0.7782,-0.8004,-0.7724,-0.7608,-0.786,-0.786,-0.786,-0.786,-0.786,0.0,-0.786,-0.8268,-0.8511,-0.8511,-0.8856,-0.9174,-0.9441,-0.9097,-0.9037,-0.9291,-0.8767,-0.8498,-0.8498,-0.8317,-0.8335,-0.848,-0.8203,-0.8683,-0.9685,-0.9406,-0.96,-1.0113,-1.0226,-1.0286,-1.0296,-1.0157,-1.0283,-1.0505,-1.0505,-1.0764,-1.1142,-1.1404,-1.159,-1.17,-1.17,-1.17,-1.1664,-1.1553,-1.1726,-1.1909,-1.1799,-1.2029,-1.2294,-1.233,-1.2294,-1.2305,-1.2365,-1.2685,-1.2941,-1.2941,-1.3126,-1.331,-1.3344,-1.3,-1.3012,-1.3934,-1.4111,-1.4273,-1.4746,-1.4808,-1.4808,-1.4808,-1.4808,-1.4808,-1.4808,-1.4808,-1.498,-1.5374,-1.5329,-1.5492,-1.5955,-1.5926,-1.6039,-1.6316,-1.6463,-1.657,-1.6675,-1.6847,-1.6965,-1.7016,-1.7016,-1.7041,0.0,0.0,0.0,0.0,0.0,0.0,-0.5086,0.0,-0.5105,-0.623,-0.6455,-0.6561,-0.6916,-0.6715,-0.675,-0.752,-0.8143,-0.8445,-0.8195,-0.7878,-0.7666,-0.7686,-0.7393,-0.7196,-0.7196,-0.7196,-0.7196,-0.7196,-0.7196,-0.7196,-0.7196,-0.7511,-0.7686,-0.7686,-0.7744,-0.7775,-0.7794,-0.8234,-0.847,-0.848,-0.847,-0.8461,-0.8452,-0.7981,-0.8018,-0.8415,-0.7574,-0.7684,-0.8461,-0.848,-0.8489,-0.8535,-0.8922,-0.9069,-0.9124,-0.9529,-0.9655,-0.9704,-0.9704,-0.9971,-1.0283,-1.0322,-1.0582,-1.0916,-1.0905,-1.0905,-1.0992,-1.1345,-1.1494,-1.1568,-1.1982,-1.2102,-1.2113,-1.2174,-1.221,-1.2246,-1.2365,-1.2377,-1.2401,-1.2413,-1.2461,-1.2544,-1.2674,-1.2674,-1.2674,-1.2709,-1.2709,-1.3207,-1.4637,-1.4808,-1.4808,-1.4808,-1.4808,-1.4808,-1.4808,-1.4808,-1.4808,-1.4808,-1.4808,-1.5011,-1.5477,-1.5477,-1.5726,-1.6194,-1.6316,-1.6398,-1.6398,-1.6543,-1.6675,-1.6789,-1.6789,-1.6882,-0.2476,0.0,0.0,0.0,0.0,0.0,0.0,0.0,-0.4622,-0.5508,-0.5708,-0.5824,-0.6208,-0.6411,-0.6479,-0.6466,-0.6607,-0.679,-0.7006,-0.6971,-0.7018,-0.7306,-0.7255,-0.7196,-0.7196,-0.7196,-0.7196,0.0,-0.7196,-0.7196,-0.7196,-0.7285,-0.7344,-0.7344,-0.7366,-0.7515,-0.7784,-0.7634,-0.7721,-0.799,-0.7711,-0.7565,-0.7565,-0.7424,-0.7424,-0.7556,-0.7296,-0.7324,-0.7592,-0.7862,-0.8197,-0.8507,-0.8618,-0.8664,-0.8673,-0.8793,-0.9014,-0.93,-0.961,-0.9953,-1.0361,-1.0659,-1.0802,-1.0864,-1.0531,-1.0877,-1.1254,-1.074,-1.0965,-1.1387,-1.1491,-1.1802,-1.2113,-1.2113,-1.2138,-1.215,-1.2186,-1.2186,-1.2222,-1.2377,-1.2413,-1.2461,-1.2484,-1.2377,-1.2365,-1.2674,-1.2709,-1.3207,-1.4637,-1.4808,-1.4808,-1.4808,-1.4808,-1.4808,-1.4808,-1.4808,-1.4871,-1.5086,-1.4902,-1.5011,-1.5477,-1.5344,-1.5507,-1.597,-1.6026,-1.6166,-1.6398,-1.6543,-1.6623,-1.6675,-1.6738,-1.6831,-0.2971,-0.3068,-0.3297,0.0,0.0,0.0,-0.4228,-0.4182,-0.4173,0.0,-0.515,-0.5223,-0.5447,-0.5674,-0.5732,-0.5538,-0.5493,-0.5693,-0.6257,-0.6339,-0.6447,-0.6675,-0.6849,-0.6949,-0.6949,-0.7095,-0.7196,-0.7196,-0.7196,-0.7196,-0.7196,-0.7196,-0.7196,-0.7196,-0.7196,-0.7314,-0.7552,-0.7314,-0.7324,-0.7552,-0.7314,-0.7196,-0.7196,-0.7196,-0.7196,-0.7196,-0.7196,-0.7196,-0.7214,-0.7461,-0.7698,-0.7959,-0.8142,-0.8207,-0.8234,-0.8434,-0.8645,-0.8875,-0.91,-0.937,-0.9598,-0.982,-0.9883,-0.9834,-0.9621,-0.9864,-1.0185,-0.9893,-1.0305,-1.0873,-1.0873,-1.1226,-1.1627,-1.1748,-1.1748,-1.1822,-1.2041,-1.2113,-1.215,-1.2258,-1.2258,-1.2258,-1.2258,-1.2186,-1.2222,-1.2639,-1.2709,-1.3207,-1.4637,-1.4808,-1.4808,-1.4808,-1.4808,-1.4808,-1.4808,-1.4808,-1.4871,-1.5025,-1.4902,-1.498,-1.5344,-1.5344,-1.5507,-1.59,-1.597,-1.6111,-1.6316,-1.6398,-1.6463,-1.6517,-1.6596,-1.6675,-0.3607,-0.3625,-0.3735,-0.4062,0.0,0.0,-0.4411,-0.4118,-0.3799,0.0,-0.4675,-0.4685,-0.473,-0.472,-0.4738,-0.4783,-0.4793,-0.5056,-0.582,-0.5929,-0.5947,-0.5993,-0.6302,-0.6547,-0.6547,-0.6894,-0.7132,-0.7132,-0.7168,-0.7196,-0.7196,-0.7196,-0.7196,-0.7196,-0.7196,-0.7196,-0.7196,-0.7196,-0.7196,-0.7196,-0.7196,-0.7196,-0.7196,-0.7196,-0.7196,-0.7196,-0.7196,-0.7196,-0.7196,-0.7196,-0.7196,-0.7232,-0.7607,-0.7721,-0.7798,-0.8188,-0.8388,-0.8434,-0.8434,-0.8461,-0.8498,-0.8498,-0.8498,-0.8489,-0.8443,-0.8496,-0.8662,-0.9018,-0.9715,-1.0287,-1.0287,-1.062,-1.1002,-1.1239,-1.1362,-1.1501,-1.2004,-1.2113,-1.2113,-1.2113,-1.2113,-1.2113,-1.2113,-1.2113,-1.2222,-1.2639,-1.2709,-1.3138,-1.4401,-1.4574,-1.4637,-1.4777,-1.4808,-1.4808,-1.4808,-1.4808,-1.4808,-1.4808,-1.4808,-1.4902,-1.5147,-1.5314,-1.5551,-1.5856,-1.6083,-1.6194,-1.6194,-1.6194,-1.6277,-1.6371,-1.6398,-1.6463,-0.3619,-0.3842,-0.4025,0.0,0.0,0.0,-0.3781,-0.3707,-0.3644,0.0,-0.3835,-0.3927,-0.4264,-0.4319,-0.442,-0.4738,-0.4793,-0.4965,-0.5456,-0.5511,-0.5643,-0.5957,-0.6066,-0.6111,-0.6111,-0.6493,-0.6721,-0.6721,-0.7013,-0.7196,-0.7196,-0.7196,-0.7196,-0.7196,-0.7196,-0.7196,-0.7196,-0.7196,-0.7196,-0.7196,-0.7196,-0.7196,-0.7196,-0.7196,-0.7196,-0.7196,-0.7196,-0.7196,-0.7196,-0.7196,-0.7196,-0.7205,-0.7287,-0.7314,-0.7324,-0.7406,-0.7652,-0.7935,-0.7935,-0.8188,-0.8498,-0.8498,-0.8498,-0.8434,-0.8036,-0.8422,-0.9052,-0.9345,-0.9843,-1.0287,-1.018,-1.0667,-1.1239,-1.1287,-1.1638,-1.1968,-1.2077,-1.2113,-1.2113,-1.2113,-1.2113,-1.2113,-1.2113,-1.2113,-1.2222,-1.2639,-1.2709,-1.2803,-1.3069,-1.3104,-1.3535,-1.4669,-1.4808,-1.4808,-1.4808,-1.4808,-1.4808,-1.4808,-1.4808,-1.4839,-1.4871,-1.4932,-1.5133,-1.558,-1.5998,-1.6194,-1.6194,-1.6194,-1.6222,-1.625,-1.6344,-1.6409,-0.4052,-0.4266,0.0,-0.4255,0.0,0.0,0.0,-0.4036,-0.3945,-0.4155,-0.4036,-0.4035,-0.442,-0.4302,-0.4275,-0.4679,-0.4633,-0.4633,-0.4833,-0.4999,-0.5178,-0.5365,-0.5566,-0.5707,-0.5707,-0.5972,-0.6154,-0.6209,-0.639,-0.6588,-0.6747,-0.6755,-0.6755,-0.6755,-0.6755,-0.6755,-0.6755,-0.6755,-0.6755,-0.6755,-0.6755,-0.6755,-0.6755,-0.6755,-0.6837,-0.6987,-0.6816,-0.6837,-0.6987,-0.6816,-0.6755,-0.6786,-0.7077,-0.7196,-0.7196,-0.7196,-0.7333,-0.7506,-0.7506,-0.7643,-0.7849,-0.7849,-0.7849,-0.7803,-0.757,-0.78,-0.8182,-0.833,-0.8875,-0.9357,-0.9165,-0.9797,-1.0487,-1.0487,-1.0697,-1.0916,-1.0916,-1.0916,-1.0916,-1.0916,-1.0916,-1.1142,-1.1957,-1.2113,-1.2222,-1.2639,-1.2709,-1.2709,-1.2709,-1.2709,-1.3242,-1.4637,-1.4808,-1.4808,-1.4808,-1.4808,-1.4808,-1.4808,-1.4808,-1.4808,-1.4808,-1.4932,-1.5163,-1.5477,-1.5726,-1.5841,-1.5841,-1.5998,-1.6111,-1.6194,-1.6277,-1.6289,0.0,0.0,0.0,0.0,0.0,-0.4238,0.0,0.0,0.0,-0.4511,-0.4292,0.0,0.0,0.0,0.0,0.0,0.0,0.0,0.0,-0.4494,0.0,-0.4635,-0.4939,-0.5147,-0.5147,-0.5386,-0.5575,-0.5699,-0.5768,-0.5907,-0.6195,-0.6275,-0.6315,-0.6315,-0.6315,-0.6315,-0.6315,-0.6315,-0.6315,-0.6315,-0.6315,-0.6315,-0.6315,-0.6315,-0.646,-0.6686,-0.6429,-0.646,-0.6686,-0.6399,-0.6315,-0.6337,-0.6837,-0.7017,-0.7017,-0.7017,-0.7077,-0.7136,-0.7136,-0.7166,-0.7196,-0.7136,-0.7136,-0.7136,-0.7196,-0.7196,-0.7214,-0.7296,-0.7831,-0.836,-0.8286,-0.8995,-0.9683,-0.9683,-0.9683,-0.9683,-0.9683,-0.9683,-0.9683,-0.9683,-0.9941,-1.0582,-1.1884,-1.2113,-1.2222,-1.252,-1.2591,-1.2591,-1.2591,-1.2591,-1.3104,-1.4447,-1.4714,-1.4746,-1.462,-1.4683,-1.47,-1.4732,-1.4732,-1.4763,-1.4808,-1.5056,-1.5268,-1.5433,-1.5522,-1.558,-1.558,-1.5827,-1.6026,-1.6139,-1.6194,-1.6194,0.0,0.0,0.0,0.0,-0.4321,0.0,0.0,0.0,-0.4033,-0.3706,0.0,0.0,0.0,0.0,0.0,0.0,0.0,0.0,-0.4724,-0.4221,-0.3885,-0.4062,-0.4182,-0.4247,-0.4247,-0.4633,-0.5045,-0.5422,-0.5678,-0.5824,-0.5864,-0.6139,-0.6315,-0.6315,-0.6315,-0.6315,-0.6315,-0.6315,-0.6315,-0.6315,-0.6315,-0.6315,-0.6315,-0.6315,-0.6315,-0.6337,-0.6315,-0.6315,-0.6337,-0.6315,-0.6315,-0.6315,-0.6368,-0.6399,-0.6399,-0.6399,-0.6604,-0.6837,-0.6837,-0.7017,-0.7166,-0.6927,-0.6837,-0.6897,-0.7136,-0.7196,-0.7269,-0.7643,-0.7817,-0.8045,-0.8793,-0.9345,-0.9683,-0.9683,-0.9683,-0.9683,-0.9683,-0.9683,-0.9683,-0.9683,-1.084,-1.1884,-1.2077,-1.2113,-1.2113,-1.215,-1.2186,-1.2186,-1.2186,-1.2186,-1.2603,-1.3808,-1.4461,-1.4556,-1.3941,-1.4203,-1.4415,-1.4547,-1.4533,-1.461,-1.4794,-1.5056,-1.5222,-1.5238,-1.5624,-1.5856,-1.5871,-1.6055,-1.6083,-1.5957,-1.6111,-1.6194,0.0,0.0,0.0,0.0,0.0,0.0,-0.4155,0.0,-0.4221,0.0,0.0,0.0,0.0,0.0,0.0,0.0,-0.416,0.0,0.0,0.0,-0.3281,0.0,0.0,0.0,-0.3917,-0.4094,-0.4328,-0.458,-0.4686,-0.4883,-0.5218,-0.5363,-0.5522,-0.571,-0.5718,-0.5718,-0.5718,-0.5718,-0.5718,-0.5718,-0.5679,-0.5679,-0.5718,-0.5592,-0.5679,-0.589,-0.5648,-0.5655,-0.5811,-0.5624,-0.5561,-0.5561,-0.5561,-0.5804,-0.6168,-0.6145,-0.6206,-0.6352,-0.6374,-0.6466,-0.6557,-0.6513,-0.6513,-0.6573,-0.6867,-0.6957,-0.7053,-0.7345,-0.7634,-0.7844,-0.7968,-0.883,-0.9683,-0.9683,-0.9683,-0.9683,-0.9683,-0.9683,-0.999,-1.0916,-1.1627,-1.2113,-1.2113,-1.2113,-1.2113,-1.2113,-1.2113,-1.2113,-1.2113,-1.2113,-1.2282,-1.2743,-1.3079,-1.3113,-1.2861,-1.3242,-1.3669,-1.4117,-1.4374,-1.4578,-1.4808,-1.4902,-1.4963,-1.4963,-1.5163,-1.5254,-1.5254,-1.5639,-1.5755,-1.5668,-1.6011,-1.6194,-0.3387,0.0,0.0,0.0,0.0,0.0,0.0,0.0,0.0,0.0,0.0,0.0,0.0,0.0,0.0,-0.4352,0.0,-0.3403,0.0,-0.2917,0.0,0.0,0.0,0.0,0.0,-0.3682,-0.373,-0.3857,-0.3951,-0.418,-0.4548,-0.4721,-0.4907,-0.515,-0.5237,-0.5309,-0.5309,-0.5309,-0.5309,-0.5309,-0.5239,-0.5239,-0.5277,-0.5087,-0.5144,-0.5414,-0.5112,-0.5151,-0.5334,-0.5087,-0.4992,-0.4992,-0.4992,-0.5295,-0.5758,-0.5734,-0.5773,-0.5866,-0.5921,-0.5944,-0.5983,-0.6153,-0.6214,-0.6276,-0.6604,-0.6777,-0.6897,-0.7107,-0.7354,-0.7544,-0.7354,-0.8164,-0.9123,-0.9573,-0.9683,-0.9683,-0.9683,-0.9683,-1.0059,-1.1217,-1.1442,-1.1442,-1.1442,-1.1811,-1.2113,-1.2113,-1.2113,-1.2113,-1.2113,-1.2113,-1.2113,-1.2113,-1.2113,-1.2113,-1.2113,-1.2473,-1.3022,-1.3815,-1.4227,-1.4529,-1.4651,-1.4651,-1.4651,-1.4651,-1.4732,-1.4763,-1.4763,-1.5179,-1.5359,-1.5389,-1.5955,-1.6194,0.0,0.0,0.0,-0.3393,0.0,0.0,0.0,0.0,-0.3834,0.0,0.0,0.0,0.0,0.0,-0.4004,-0.4012,-0.3834,0.0,0.0,0.0,0.0,0.0,0.0,0.0,0.0,-0.3408,-0.3436,0.0,-0.3808,-0.4005,-0.4019,-0.4529,-0.4814,-0.4821,-0.513,-0.5309,-0.5309,-0.5309,-0.5309,-0.5309,-0.5239,-0.5207,-0.5207,-0.5055,-0.4992,-0.5023,-0.4992,-0.4992,-0.5023,-0.4992,-0.4992,-0.4992,-0.4922,-0.4915,-0.4947,-0.5023,-0.5246,-0.5522,-0.5522,-0.5522,-0.5585,-0.5897,-0.6021,-0.6083,-0.6399,-0.6725,-0.6987,-0.7017,-0.7026,-0.7124,-0.7475,-0.7449,-0.7671,-0.9307,-0.9683,-0.9683,-0.9683,-0.9683,-0.9723,-0.9762,-0.9762,-0.9762,-0.9762,-1.1067,-1.2113,-1.2113,-1.2113,-1.2113,-1.2113,-1.2113,-1.2113,-1.2113,-1.2113,-1.2113,-1.2113,-1.2113,-1.2615,-1.3708,-1.4105,-1.43,-1.4332,-1.4332,-1.4332,-1.4332,-1.4515,-1.4596,-1.4596,-1.4876,-1.5013,-1.5043,-1.5826,-1.6194,0.0,0.0,-0.2307,-0.2832,0.0,0.0,0.0,0.0,0.0,0.0,0.0,0.0,0.0,0.0,-0.3723,-0.3855,-0.3427,-0.3122,0.0,0.0,0.0,0.0,0.0,0.0,0.0,0.0,0.0,-0.3188,-0.3444,0.0,-0.3985,-0.413,-0.4382,-0.4794,-0.49,-0.5046,-0.5239,-0.5239,-0.5176,-0.5087,-0.5017,-0.5017,-0.5055,-0.4934,-0.4896,-0.4922,-0.4902,-0.487,-0.487,-0.487,-0.487,-0.487,-0.4838,-0.4838,-0.4838,-0.487,-0.4934,-0.5055,-0.5081,-0.5144,-0.5176,-0.5302,-0.5334,-0.5397,-0.5742,-0.5928,-0.6044,-0.626,-0.6513,-0.6698,-0.6825,-0.7172,-0.7687,-0.8567,-0.925,-0.9683,-0.9683,-0.9683,-0.9683,-0.9683,-0.9683,-0.9683,-0.9683,-1.0137,-1.0878,-1.1932,-1.2113,-1.2113,-1.2113,-1.2113,-1.2113,-1.2113,-1.2113,-1.2113,-1.2113,-1.2258,-1.2579,-1.3116,-1.3581,-1.3881,-1.4046,-1.4222,-1.43,-1.43,-1.4383,-1.4401,-1.4401,-1.4641,-1.4752,-1.4752,-1.5433,-1.5755,-0.2132,-0.2026,0.0,-0.2437,-0.2437,0.0,-0.3068,0.0,-0.326,0.0,0.0,0.0,0.0,0.0,-0.326,-0.3395,-0.3152,-0.2857,0.0,-0.2353,0.0,0.0,0.0,0.0,0.0,-0.318,-0.3193,-0.3104,-0.3148,0.0,0.0,-0.3831,-0.4029,-0.4428,-0.4524,-0.4657,-0.4834,-0.4809,-0.4724,-0.4692,-0.4596,-0.457,-0.4602,-0.4473,-0.4441,-0.4462,-0.4436,-0.4409,-0.4409,-0.4543,-0.4576,-0.4608,-0.4742,-0.4812,-0.4812,-0.4812,-0.4812,-0.4806,-0.4864,-0.4896,-0.4934,-0.4934,-0.5023,-0.5151,-0.5372,-0.5522,-0.5655,-0.5874,-0.6091,-0.6245,-0.6245,-0.6631,-0.7122,-0.7661,-0.841,-0.9047,-0.9284,-0.9475,-0.9643,-0.9594,-0.9594,-0.9594,-0.9683,-0.9683,-1.0137,-1.1479,-1.192,-1.2113,-1.2113,-1.2113,-1.2113,-1.2113,-1.2113,-1.2113,-1.2113,-1.2401,-1.2627,-1.2768,-1.3254,-1.3581,-1.3702,-1.3993,-1.4105,-1.4105,-1.4105,-1.4105,-1.4105,-1.4241,-1.4324,-1.4324,-1.4704,-1.4966]}]]